[[{"header":{"parameterUnit":"m.s-1","parameterCategory":1,"la1":31.0,"la2":29.5877,"lo1":-88.7671,"lo2":-86.6584,"dy":0.0162,"dx":0.0185,"nx":115,"ny":88,"refTime":"2023-05-02T00:00:00:Z","depth":0,"parameterNumber":2,"parameterNumberName":"U-component_of_WINDS"},"data":[0.0,0.0,0.0,0.0,0.0,0.0,0.0,0.0,0.0,0.0,0.0,0.0,0.0,0.0,0.0,0.0,0.0,0.0,0.0,0.0,0.0,0.0,0.0,0.0,0.0,0.0,0.0,0.0,0.0,0.0,0.0,0.0,0.0,0.0,0.0,0.0,0.0,0.0,0.0,0.0,0.0,0.0,0.0,0.0,0.0,0.0,0.0,0.0,0.0,0.0,0.0,0.0,0.0,0.0,0.0,0.0,0.0,0.0,0.0,0.0,0.0,0.0,0.0,0.0,0.0,0.0,0.0,0.0,0.0,0.0,0.0,0.0,0.0,0.0,0.0,0.0,0.0,0.0,0.0,0.0,0.0,0.0,0.0,0.0,0.0,0.0,0.0,0.0,0.0,0.0,0.0,0.0,0.0,0.0,0.0,0.0,0.0,0.0,0.0,0.0,0.0,0.0,0.0,0.0,0.0,0.0,0.0,0.0,0.0,0.0,0.0,0.0,0.0,0.0,0.0,0.0,0.0,0.0,0.0,0.0,0.0,0.0,0.0,0.0,0.0,0.0,0.0,0.0,0.0,0.0,0.0,0.0,0.0,0.0,0.0,0.0,0.0,0.0,0.0,0.0,0.0,0.0,0.0,0.0,0.0,0.0,0.0,0.0,0.0,0.0,0.0,0.0,0.0,0.0,0.0,0.0,0.0,0.0,0.0,0.0,0.0,0.0,0.0,0.0,0.0,0.0,0.0,0.0,0.0,0.0,0.0,0.0,0.0,0.0,0.0,0.0,0.0,0.0,0.0,0.0,0.0,0.0,0.0,0.0,0.0,0.0,0.0,0.0,0.0,0.0,0.0,0.0,0.0,0.0,0.0,0.0,0.0,0.0,0.0,0.0,0.0,0.0,0.0,0.0,0.0,0.0,0.0,0.0,0.0,0.0,0.0,0.0,0.0,0.0,0.0,0.0,0.0,0.0,0.0,0.0,0.0,0.0,0.0,0.0,0.0,0.0,0.0,0.0,0.0,0.0,0.0,0.0,0.0,0.0,0.0,0.0,0.0,0.0,0.0,0.0,0.0,0.0,0.0,0.0,0.0,0.0,0.0,0.0,0.0,0.0,0.0,0.0,0.0,0.0,0.0,0.0,0.0,0.0,0.0,0.0,0.0,0.0,0.0,0.0,0.0,0.0,0.0,0.0,0.0,0.0,0.0,0.0,0.0,0.0,0.0,0.0,0.0,0.0,0.0,0.0,0.0,0.0,0.0,0.0,0.0,0.0,0.0,0.0,0.0,0.0,0.0,0.0,0.0,0.0,0.0,0.0,0.0,0.0,0.0,0.0,0.0,0.0,0.0,0.0,0.0,0.0,0.0,0.0,0.0,0.0,0.0,0.0,0.0,0.0,0.0,0.0,0.0,0.0,0.0,0.0,0.0,0.0,0.0,0.0,0.0,0.0,0.0,0.0,0.0,0.0,0.0,0.0,0.0,0.0,0.0,0.0,0.0,0.0,0.0,0.0,0.0,0.0,0.0,0.0,0.0,0.0,0.0,0.0,0.0,0.0,0.0,0.0,0.0,0.0,0.0,0.0,0.0,0.0,0.0,0.0,0.0,0.0,0.0,0.0,0.0,0.0,0.0,0.0,0.0,0.0,0.0,0.0,0.0,0.0,0.0,0.0,0.0,0.0,0.0,0.0,0.0,0.0,0.0,0.0,0.0,0.0,0.0,0.0,0.0,0.0,0.0,0.0,0.0,0.0,0.0,0.0,0.0,0.0,0.0,0.0,0.0,0.0,0.0,0.0,0.0,0.0,0.0,0.0,0.0,0.0,0.0,0.0,0.0,0.0,0.0,0.0,0.0,0.0,0.0,0.0,0.0,0.0,0.0,0.0,0.0,0.0,0.0,0.0,0.0,0.0,0.0,0.0,0.0,0.0,0.0,0.0,0.0,0.0,0.0,0.0,0.0,0.0,0.0,0.0,0.0,0.0,0.0,0.0,0.0,0.0,0.0,0.0,0.0,0.0,0.0,0.0,0.0,0.0,0.0,0.0,0.0,0.0,0.0,0.0,0.0,0.0,0.0,0.0,0.0,0.0,0.0,0.0,0.0,0.0,0.0,0.0,0.0,0.0,0.0,0.0,0.0,0.0,0.0,0.0,0.0,0.0,0.0,0.0,0.0,0.0,0.0,0.0,0.0,0.0,0.0,0.0,0.0,0.0,0.0,0.0,0.0,0.0,0.0,0.0,0.0,0.0,0.0,0.0,0.0,0.0,0.0,0.0,0.0,0.0,0.0,0.0,0.0,0.0,0.0,0.0,0.0,0.0,0.0,0.0,0.0,0.0,0.0,0.0,0.0,0.0,0.0,0.0,0.0,0.0,0.0,0.0,0.0,0.0,0.0,0.0,0.0,0.0,0.0,0.0,0.0,0.0,0.0,0.0,0.0,0.0,0.0,0.0,0.0,0.0,0.0,0.0,0.0,0.0,0.0,0.0,0.0,0.0,0.0,0.0,0.0,0.0,0.0,0.0,0.0,0.0,0.0,0.0,0.0,0.0,0.0,0.0,0.0,0.0,0.0,0.0,0.0,0.0,0.0,0.0,0.0,0.0,0.0,0.0,0.0,0.0,0.0,0.0,0.0,0.0,0.0,0.0,0.0,0.0,0.0,0.0,0.0,0.0,0.0,0.0,0.0,0.0,0.0,0.0,0.0,0.0,0.0,0.0,0.0,0.0,0.0,0.0,0.0,0.0,0.0,0.0,0.0,0.0,0.0,0.0,0.0,0.0,0.0,0.0,0.0,0.0,0.0,0.0,0.0,0.0,0.0,0.0,0.0,0.0,0.0,0.0,0.0,0.0,0.0,0.0,0.0,0.0,0.0,0.0,0.0,0.0,0.0,0.0,0.0,0.0,0.0,0.0,0.0,0.0,0.0,0.0,0.0,0.0,0.0,0.0,0.0,0.0,0.0,0.0,0.0,0.0,0.0,0.0,0.0,0.0,0.0,0.0,0.0,0.0,0.0,0.0,0.0,0.0,0.0,0.0,0.0,0.0,0.0,0.0,0.0,0.0,0.0,0.0,0.0,0.0,0.0,0.0,0.0,0.0,0.0,0.0,0.0,0.0,0.0,0.0,0.0,0.0,0.0,0.0,0.0,0.0,0.0,0.0,0.0,0.0,0.0,0.0,0.0,0.0,0.0,0.0,0.0,0.0,0.0,0.0,0.0,0.0,0.0,0.0,0.0,0.0,0.0,0.0,0.0,0.0,0.0,0.0,0.0,0.0,0.0,0.0,0.0,0.0,0.0,0.0,0.0,0.0,0.0,0.0,0.0,0.0,0.0,0.0,0.0,0.0,0.0,0.0,0.0,0.0,0.0,0.0,0.0,0.0,0.0,0.0,0.0,0.0,0.0,0.0,0.0,0.0,0.0,0.0,0.0,0.0,0.0,0.0,0.0,0.0,0.0,0.0,0.0,0.0,0.0,0.0,0.0,0.0,0.0,0.0,0.0,0.0,0.0,0.0,0.0,0.0,0.0,0.0,0.0,0.0,0.0,0.0,0.0,0.0,0.0,0.0,0.0,0.0,0.0,0.0,0.0,0.0,0.0,0.0,0.0,0.0,0.0,0.0,0.0,0.0,0.0,0.0,0.0,0.0,0.0,0.0,0.0,0.0,0.0,0.0,0.0,0.0,0.0,0.0,0.0,0.0,0.0,0.0,0.0,0.0,0.0,0.0,0.0,0.0,0.0,0.0,0.0,0.0,0.0,0.0,0.0,0.0,0.0,0.0,0.0,0.0,0.0,0.0,0.0,0.0,0.0,0.0,0.0,0.0,0.0,0.0,0.0,0.0,0.0,0.0,0.0,0.0,0.0,0.0,0.0,0.0,0.0,0.0,0.0,0.0,0.0,0.0,0.0,0.0,0.0,0.0,0.0,0.0,0.0,0.0,0.0,0.0,0.0,0.0,0.0,0.0,0.0,0.0,0.0,0.0,0.0,0.0,0.0,0.0,0.0,0.0,0.0,0.0,0.0,0.0,0.0,0.0,0.0,0.0,0.0,0.0,0.0,0.0,0.0,0.0,0.0,0.0,0.0,0.0,0.0,0.0,0.0,0.0,0.0,0.0,0.0,0.0,0.0,0.0,0.0,0.0,0.0,0.0,0.0,0.0,0.0,0.0,0.0,0.0,0.0,0.0,0.0,0.0,0.0,0.0,0.0,0.0,0.0,0.0,0.0,0.0,0.0,0.0,0.0,0.0,0.0,0.0,0.0,0.0,0.0,0.0,0.0,0.0,-3.499,0.0,0.0,0.0,0.0,0.0,0.0,0.0,0.0,0.0,0.0,0.0,0.0,0.0,0.0,0.0,0.0,0.0,0.0,0.0,0.0,0.0,0.0,0.0,0.0,0.0,0.0,0.0,0.0,0.0,0.0,0.0,0.0,0.0,0.0,0.0,0.0,0.0,0.0,0.0,0.0,0.0,0.0,0.0,0.0,0.0,0.0,0.0,0.0,0.0,0.0,0.0,0.0,0.0,0.0,0.0,0.0,0.0,0.0,0.0,0.0,0.0,0.0,0.0,0.0,0.0,0.0,0.0,0.0,0.0,0.0,0.0,0.0,0.0,0.0,0.0,0.0,0.0,0.0,0.0,0.0,0.0,0.0,0.0,0.0,0.0,0.0,0.0,0.0,0.0,0.0,0.0,0.0,0.0,0.0,0.0,0.0,0.0,0.0,0.0,0.0,0.0,0.0,0.0,0.0,0.0,0.0,0.0,0.0,0.0,0.0,-3.559,-3.5554,-3.5266,-3.506,-3.4934,0.0,0.0,0.0,0.0,0.0,0.0,0.0,0.0,0.0,0.0,0.0,0.0,0.0,0.0,0.0,0.0,0.0,0.0,0.0,0.0,0.0,0.0,0.0,0.0,0.0,0.0,0.0,0.0,0.0,0.0,0.0,0.0,0.0,0.0,0.0,0.0,0.0,0.0,0.0,0.0,0.0,0.0,0.0,0.0,0.0,0.0,0.0,0.0,0.0,0.0,0.0,0.0,0.0,0.0,0.0,0.0,0.0,0.0,0.0,0.0,0.0,0.0,0.0,0.0,0.0,0.0,0.0,0.0,0.0,0.0,0.0,0.0,0.0,0.0,0.0,0.0,0.0,0.0,0.0,0.0,0.0,0.0,0.0,0.0,0.0,0.0,0.0,0.0,0.0,0.0,0.0,0.0,0.0,0.0,0.0,0.0,0.0,0.0,0.0,0.0,0.0,0.0,0.0,0.0,0.0,0.0,0.0,0.0,0.0,0.0,0.0,0.0,-3.6159,-3.5933,-3.5617,0.0,0.0,0.0,0.0,0.0,0.0,0.0,0.0,0.0,0.0,0.0,0.0,0.0,0.0,0.0,0.0,0.0,0.0,0.0,0.0,0.0,0.0,0.0,0.0,0.0,0.0,0.0,0.0,0.0,0.0,0.0,0.0,0.0,0.0,0.0,0.0,0.0,0.0,0.0,0.0,0.0,0.0,0.0,0.0,0.0,0.0,0.0,0.0,0.0,0.0,0.0,0.0,0.0,0.0,0.0,0.0,0.0,0.0,0.0,0.0,0.0,0.0,0.0,0.0,0.0,0.0,0.0,0.0,0.0,0.0,0.0,0.0,0.0,0.0,0.0,0.0,0.0,0.0,0.0,0.0,0.0,0.0,0.0,0.0,0.0,0.0,0.0,0.0,0.0,0.0,0.0,0.0,0.0,0.0,0.0,0.0,0.0,0.0,0.0,0.0,0.0,0.0,0.0,0.0,0.0,0.0,0.0,0.0,0.0,0.0,-3.6528,-3.8441,-3.8414,0.0,-3.7728,0.0,0.0,0.0,0.0,0.0,0.0,0.0,0.0,0.0,0.0,0.0,0.0,0.0,0.0,0.0,0.0,0.0,0.0,0.0,0.0,0.0,0.0,0.0,0.0,0.0,0.0,0.0,0.0,0.0,0.0,0.0,0.0,0.0,0.0,0.0,0.0,0.0,0.0,0.0,0.0,0.0,0.0,0.0,0.0,0.0,0.0,0.0,0.0,0.0,0.0,0.0,0.0,0.0,0.0,0.0,0.0,0.0,0.0,0.0,0.0,0.0,0.0,0.0,0.0,0.0,0.0,0.0,0.0,0.0,0.0,0.0,0.0,0.0,0.0,0.0,0.0,0.0,0.0,0.0,0.0,0.0,0.0,0.0,0.0,0.0,0.0,0.0,0.0,0.0,0.0,0.0,0.0,0.0,0.0,0.0,0.0,0.0,0.0,0.0,0.0,0.0,0.0,0.0,0.0,0.0,0.0,0.0,0.0,0.0,0.0,-3.6814,-3.806,-3.841,-3.7753,0.0,0.0,0.0,0.0,0.0,0.0,0.0,0.0,0.0,0.0,0.0,0.0,0.0,0.0,0.0,0.0,0.0,0.0,0.0,0.0,0.0,0.0,0.0,0.0,0.0,0.0,0.0,0.0,0.0,0.0,0.0,0.0,0.0,0.0,0.0,0.0,0.0,0.0,0.0,0.0,0.0,0.0,0.0,0.0,0.0,0.0,0.0,0.0,0.0,0.0,0.0,0.0,0.0,0.0,0.0,0.0,0.0,0.0,0.0,0.0,0.0,0.0,0.0,0.0,0.0,0.0,0.0,0.0,0.0,0.0,0.0,0.0,0.0,0.0,0.0,0.0,0.0,0.0,0.0,0.0,0.0,0.0,0.0,0.0,0.0,0.0,0.0,0.0,0.0,0.0,0.0,0.0,0.0,0.0,0.0,0.0,0.0,0.0,0.0,0.0,0.0,0.0,0.0,0.0,0.0,0.0,0.0,0.0,0.0,0.0,-3.6795,-3.7554,-3.8766,-3.7917,-3.6825,-3.5578,0.0,0.0,0.0,0.0,0.0,0.0,0.0,0.0,0.0,0.0,0.0,0.0,0.0,0.0,0.0,0.0,0.0,0.0,0.0,0.0,0.0,0.0,0.0,0.0,0.0,0.0,0.0,0.0,0.0,0.0,0.0,0.0,0.0,0.0,0.0,0.0,0.0,0.0,0.0,0.0,0.0,0.0,0.0,0.0,0.0,0.0,0.0,0.0,0.0,0.0,0.0,0.0,0.0,0.0,0.0,0.0,0.0,0.0,0.0,0.0,0.0,0.0,0.0,0.0,0.0,0.0,0.0,0.0,0.0,0.0,0.0,0.0,0.0,0.0,0.0,0.0,0.0,0.0,0.0,0.0,0.0,0.0,0.0,0.0,0.0,0.0,0.0,0.0,0.0,0.0,0.0,0.0,0.0,0.0,0.0,0.0,0.0,0.0,0.0,0.0,0.0,0.0,0.0,0.0,0.0,0.0,0.0,0.0,-4.1712,-3.9176,-3.9097,-4.1715,-3.7348,-3.5833,0.0,0.0,0.0,0.0,0.0,0.0,0.0,0.0,0.0,0.0,0.0,0.0,0.0,0.0,0.0,0.0,0.0,0.0,0.0,0.0,0.0,0.0,0.0,0.0,0.0,0.0,0.0,0.0,0.0,0.0,0.0,0.0,0.0,0.0,0.0,0.0,0.0,0.0,0.0,0.0,0.0,0.0,0.0,0.0,0.0,0.0,0.0,0.0,0.0,0.0,0.0,0.0,0.0,0.0,0.0,0.0,0.0,0.0,0.0,0.0,0.0,0.0,0.0,0.0,0.0,0.0,0.0,0.0,0.0,0.0,0.0,0.0,0.0,0.0,0.0,0.0,0.0,0.0,0.0,0.0,0.0,0.0,0.0,0.0,0.0,0.0,0.0,0.0,0.0,0.0,0.0,0.0,0.0,0.0,0.0,0.0,0.0,0.0,0.0,0.0,0.0,0.0,0.0,0.0,0.0,0.0,0.0,0.0,0.0,-3.6175,-3.5913,-3.677,-3.8787,-3.7137,-3.6622,0.0,0.0,0.0,0.0,0.0,0.0,0.0,0.0,0.0,0.0,0.0,0.0,0.0,0.0,0.0,0.0,0.0,0.0,0.0,0.0,0.0,0.0,0.0,0.0,0.0,0.0,0.0,0.0,0.0,0.0,0.0,0.0,0.0,0.0,0.0,0.0,0.0,0.0,0.0,0.0,0.0,0.0,0.0,0.0,0.0,0.0,0.0,0.0,0.0,0.0,0.0,0.0,0.0,0.0,0.0,0.0,0.0,0.0,0.0,0.0,0.0,0.0,0.0,0.0,0.0,0.0,0.0,0.0,0.0,0.0,0.0,0.0,0.0,0.0,0.0,0.0,0.0,0.0,0.0,0.0,0.0,0.0,0.0,0.0,0.0,0.0,0.0,0.0,0.0,0.0,0.0,0.0,0.0,0.0,0.0,0.0,0.0,0.0,0.0,0.0,0.0,0.0,0.0,0.0,0.0,0.0,0.0,0.0,0.0,-3.4622,0.0,-3.7598,-3.7861,-3.7373,-3.6716,0.0,0.0,0.0,0.0,0.0,0.0,0.0,0.0,0.0,0.0,0.0,0.0,0.0,0.0,0.0,0.0,0.0,0.0,0.0,0.0,0.0,0.0,0.0,0.0,0.0,0.0,0.0,0.0,0.0,0.0,0.0,0.0,0.0,0.0,0.0,0.0,0.0,0.0,0.0,0.0,0.0,0.0,0.0,0.0,0.0,0.0,0.0,0.0,0.0,0.0,0.0,0.0,0.0,0.0,0.0,0.0,0.0,0.0,0.0,0.0,0.0,0.0,0.0,0.0,0.0,0.0,0.0,0.0,0.0,0.0,0.0,0.0,0.0,0.0,0.0,0.0,0.0,0.0,0.0,0.0,0.0,0.0,0.0,0.0,0.0,0.0,0.0,0.0,0.0,0.0,0.0,0.0,0.0,0.0,0.0,0.0,0.0,0.0,0.0,0.0,0.0,0.0,0.0,0.0,0.0,0.0,0.0,0.0,-3.4749,-3.8323,-4.1324,-4.1661,-3.9664,-3.7937,-3.5953,0.0,0.0,0.0,0.0,0.0,0.0,0.0,0.0,0.0,0.0,0.0,0.0,0.0,0.0,0.0,0.0,0.0,0.0,0.0,0.0,0.0,0.0,0.0,0.0,0.0,0.0,0.0,0.0,0.0,0.0,0.0,0.0,0.0,0.0,0.0,0.0,0.0,0.0,0.0,0.0,0.0,0.0,0.0,0.0,0.0,0.0,0.0,0.0,0.0,0.0,0.0,0.0,0.0,0.0,0.0,0.0,0.0,0.0,0.0,0.0,0.0,0.0,0.0,0.0,0.0,0.0,0.0,0.0,0.0,0.0,0.0,0.0,0.0,0.0,0.0,0.0,0.0,0.0,0.0,0.0,0.0,0.0,0.0,0.0,0.0,0.0,0.0,0.0,0.0,0.0,0.0,0.0,0.0,0.0,0.0,0.0,0.0,0.0,0.0,0.0,0.0,0.0,0.0,0.0,0.0,0.0,0.0,0.0,0.0,-3.4189,-3.7333,-3.9727,-4.106,-3.7418,-3.6348,0.0,0.0,0.0,0.0,0.0,0.0,0.0,0.0,0.0,0.0,0.0,0.0,0.0,0.0,0.0,0.0,0.0,0.0,0.0,0.0,0.0,0.0,0.0,0.0,0.0,0.0,0.0,0.0,0.0,0.0,0.0,0.0,0.0,0.0,0.0,0.0,0.0,0.0,0.0,0.0,0.0,0.0,0.0,0.0,0.0,0.0,0.0,0.0,0.0,0.0,0.0,0.0,0.0,0.0,0.0,0.0,0.0,0.0,0.0,0.0,0.0,0.0,0.0,0.0,0.0,0.0,0.0,0.0,0.0,0.0,0.0,0.0,0.0,0.0,0.0,0.0,0.0,0.0,0.0,0.0,0.0,0.0,0.0,0.0,0.0,0.0,0.0,0.0,0.0,0.0,0.0,0.0,0.0,0.0,0.0,0.0,0.0,0.0,0.0,0.0,0.0,0.0,0.0,0.0,0.0,0.0,0.0,0.0,0.0,-3.5597,-3.8901,-4.1173,-4.1967,-3.8694,-3.7249,-3.7925,0.0,0.0,0.0,0.0,0.0,0.0,0.0,0.0,0.0,0.0,0.0,0.0,0.0,0.0,0.0,0.0,0.0,0.0,0.0,0.0,0.0,0.0,0.0,0.0,0.0,0.0,0.0,0.0,0.0,0.0,0.0,0.0,0.0,0.0,0.0,0.0,0.0,0.0,0.0,0.0,0.0,0.0,0.0,0.0,0.0,0.0,0.0,0.0,0.0,0.0,0.0,0.0,0.0,0.0,0.0,0.0,0.0,0.0,0.0,0.0,0.0,0.0,0.0,0.0,0.0,0.0,0.0,0.0,0.0,0.0,0.0,0.0,0.0,0.0,0.0,0.0,0.0,0.0,0.0,0.0,0.0,0.0,0.0,0.0,0.0,0.0,0.0,0.0,0.0,0.0,0.0,0.0,0.0,0.0,0.0,0.0,0.0,0.0,0.0,0.0,0.0,0.0,0.0,0.0,0.0,0.0,0.0,0.0,-4.0891,-4.5059,-4.5664,-4.2511,-4.1267,-3.8544,0.0,0.0,0.0,0.0,0.0,0.0,0.0,0.0,0.0,0.0,0.0,0.0,0.0,0.0,0.0,0.0,0.0,0.0,0.0,0.0,0.0,0.0,0.0,0.0,0.0,0.0,0.0,0.0,0.0,0.0,0.0,0.0,0.0,0.0,0.0,0.0,0.0,0.0,0.0,0.0,0.0,0.0,0.0,0.0,0.0,0.0,0.0,0.0,0.0,0.0,0.0,0.0,0.0,0.0,0.0,0.0,0.0,0.0,0.0,0.0,0.0,0.0,0.0,0.0,0.0,0.0,0.0,0.0,0.0,0.0,0.0,0.0,0.0,0.0,0.0,0.0,0.0,0.0,0.0,0.0,0.0,0.0,0.0,0.0,0.0,0.0,0.0,0.0,0.0,0.0,0.0,0.0,0.0,0.0,0.0,0.0,0.0,0.0,0.0,0.0,0.0,0.0,0.0,0.0,0.0,0.0,0.0,0.0,0.0,-4.1854,-4.7522,-4.9321,-4.6599,-4.2256,-3.9308,0.0,0.0,0.0,0.0,0.0,0.0,0.0,0.0,0.0,0.0,0.0,0.0,0.0,0.0,0.0,0.0,0.0,0.0,0.0,0.0,0.0,0.0,0.0,0.0,0.0,0.0,0.0,0.0,0.0,0.0,0.0,0.0,0.0,0.0,0.0,0.0,0.0,0.0,0.0,0.0,0.0,0.0,0.0,0.0,0.0,0.0,0.0,0.0,0.0,0.0,0.0,0.0,0.0,0.0,0.0,0.0,0.0,0.0,0.0,0.0,0.0,0.0,0.0,0.0,0.0,0.0,0.0,0.0,0.0,0.0,0.0,0.0,0.0,0.0,0.0,0.0,0.0,0.0,0.0,0.0,0.0,0.0,0.0,0.0,0.0,0.0,0.0,0.0,0.0,0.0,0.0,0.0,0.0,0.0,0.0,0.0,0.0,0.0,0.0,0.0,0.0,0.0,0.0,0.0,0.0,0.0,0.0,0.0,-4.2956,-4.4646,-5.0072,-5.1931,-4.9809,-4.5524,-4.188,0.0,0.0,0.0,0.0,0.0,0.0,0.0,0.0,0.0,0.0,0.0,0.0,0.0,0.0,0.0,0.0,0.0,0.0,0.0,0.0,0.0,0.0,0.0,0.0,0.0,0.0,0.0,0.0,0.0,0.0,0.0,0.0,0.0,0.0,0.0,0.0,0.0,0.0,0.0,0.0,0.0,0.0,0.0,0.0,0.0,0.0,0.0,0.0,0.0,0.0,0.0,0.0,0.0,0.0,0.0,0.0,0.0,0.0,0.0,0.0,0.0,0.0,0.0,0.0,0.0,0.0,0.0,0.0,0.0,0.0,0.0,0.0,0.0,0.0,0.0,0.0,0.0,0.0,0.0,0.0,0.0,0.0,0.0,0.0,0.0,0.0,0.0,0.0,0.0,0.0,0.0,0.0,0.0,0.0,0.0,0.0,0.0,0.0,0.0,0.0,0.0,0.0,0.0,0.0,0.0,0.0,0.0,0.0,-4.6298,-4.8044,-5.2212,-5.3677,-5.2156,-4.934,-4.4871,0.0,0.0,0.0,0.0,0.0,0.0,0.0,0.0,0.0,0.0,0.0,0.0,0.0,0.0,0.0,0.0,0.0,0.0,0.0,0.0,0.0,0.0,0.0,0.0,0.0,0.0,0.0,0.0,0.0,0.0,0.0,0.0,0.0,0.0,0.0,0.0,0.0,0.0,0.0,0.0,0.0,0.0,0.0,0.0,0.0,0.0,0.0,0.0,0.0,0.0,0.0,0.0,0.0,0.0,0.0,0.0,0.0,0.0,0.0,0.0,0.0,0.0,0.0,0.0,0.0,0.0,0.0,0.0,0.0,0.0,0.0,0.0,0.0,0.0,0.0,0.0,0.0,0.0,0.0,0.0,0.0,0.0,0.0,0.0,0.0,0.0,0.0,0.0,0.0,0.0,0.0,0.0,0.0,0.0,0.0,0.0,0.0,0.0,0.0,0.0,0.0,0.0,0.0,0.0,0.0,0.0,0.0,0.0,-4.4928,-4.7256,-5.1931,-5.424,-5.3864,-4.8307,-4.3426,0.0,0.0,0.0,0.0,0.0,0.0,0.0,0.0,0.0,0.0,0.0,0.0,0.0,0.0,0.0,0.0,0.0,0.0,0.0,0.0,0.0,0.0,0.0,0.0,0.0,0.0,0.0,0.0,0.0,0.0,0.0,0.0,0.0,0.0,0.0,0.0,0.0,0.0,0.0,0.0,0.0,0.0,0.0,0.0,0.0,0.0,0.0,0.0,-2.858,0.0,0.0,0.0,0.0,0.0,0.0,0.0,0.0,0.0,0.0,0.0,0.0,0.0,0.0,0.0,0.0,0.0,0.0,0.0,0.0,0.0,0.0,0.0,0.0,0.0,0.0,0.0,0.0,0.0,0.0,0.0,0.0,0.0,0.0,0.0,0.0,0.0,0.0,0.0,0.0,0.0,0.0,0.0,0.0,0.0,0.0,0.0,0.0,0.0,0.0,0.0,0.0,0.0,0.0,0.0,0.0,0.0,0.0,0.0,-4.5998,-4.9265,-5.2644,-5.4409,-5.4202,-4.8739,-4.4139,0.0,0.0,0.0,0.0,0.0,0.0,0.0,0.0,0.0,0.0,0.0,0.0,0.0,0.0,0.0,0.0,0.0,0.0,0.0,0.0,0.0,0.0,0.0,0.0,0.0,0.0,0.0,0.0,0.0,0.0,0.0,0.0,0.0,0.0,0.0,0.0,0.0,0.0,0.0,0.0,0.0,0.0,0.0,0.0,0.0,0.0,0.0,0.0,0.0,0.0,0.0,0.0,0.0,0.0,0.0,0.0,0.0,0.0,0.0,0.0,0.0,0.0,0.0,0.0,0.0,0.0,0.0,0.0,0.0,0.0,0.0,0.0,0.0,0.0,0.0,0.0,0.0,0.0,0.0,0.0,0.0,0.0,0.0,0.0,0.0,0.0,0.0,0.0,0.0,0.0,0.0,0.0,0.0,0.0,0.0,0.0,0.0,0.0,0.0,0.0,0.0,0.0,0.0,0.0,0.0,0.0,0.0,-4.3557,-4.7537,-5.1931,-5.362,-5.4352,-5.4165,-4.9527,-4.5364,-4.1929,0.0,0.0,0.0,0.0,0.0,0.0,0.0,0.0,0.0,0.0,0.0,0.0,0.0,0.0,0.0,0.0,0.0,0.0,0.0,0.0,0.0,0.0,0.0,0.0,0.0,0.0,0.0,0.0,0.0,0.0,0.0,0.0,0.0,0.0,0.0,0.0,0.0,0.0,-2.8944,-2.9179,0.0,0.0,0.0,0.0,0.0,0.0,0.0,0.0,-2.8134,0.0,0.0,0.0,0.0,0.0,0.0,0.0,0.0,0.0,0.0,0.0,0.0,0.0,0.0,0.0,0.0,0.0,0.0,0.0,0.0,0.0,0.0,0.0,0.0,0.0,0.0,0.0,0.0,0.0,0.0,0.0,0.0,0.0,0.0,0.0,0.0,0.0,0.0,0.0,0.0,0.0,0.0,0.0,0.0,0.0,0.0,0.0,0.0,0.0,0.0,0.0,0.0,0.0,0.0,0.0,0.0,-4.2743,-4.3412,-4.6707,-5.2811,-5.3902,-5.409,-5.3318,-4.9246,-4.5115,-4.1135,0.0,0.0,0.0,0.0,0.0,0.0,0.0,0.0,0.0,0.0,0.0,0.0,0.0,0.0,0.0,0.0,0.0,0.0,0.0,0.0,0.0,0.0,0.0,0.0,0.0,0.0,0.0,0.0,0.0,0.0,0.0,0.0,0.0,0.0,0.0,0.0,0.0,0.0,0.0,-3.1763,-3.2451,0.0,0.0,0.0,0.0,0.0,0.0,0.0,0.0,-2.7769,0.0,0.0,0.0,0.0,0.0,0.0,0.0,0.0,0.0,0.0,0.0,0.0,0.0,0.0,0.0,0.0,0.0,0.0,0.0,0.0,0.0,0.0,0.0,0.0,0.0,0.0,0.0,0.0,0.0,0.0,0.0,0.0,0.0,0.0,0.0,0.0,0.0,0.0,0.0,0.0,0.0,0.0,0.0,0.0,0.0,0.0,0.0,0.0,0.0,0.0,0.0,0.0,0.0,0.0,0.0,-4.2517,-4.4409,-4.8007,-5.3564,-5.3789,-5.3357,-5.2456,-4.7687,-4.352,0.0,0.0,0.0,0.0,0.0,0.0,0.0,0.0,0.0,0.0,0.0,0.0,0.0,0.0,0.0,0.0,0.0,0.0,0.0,0.0,0.0,0.0,0.0,0.0,0.0,0.0,0.0,0.0,0.0,0.0,0.0,0.0,0.0,0.0,0.0,0.0,0.0,0.0,0.0,0.0,-3.2021,-3.2232,-3.3291,0.0,0.0,0.0,0.0,0.0,0.0,-2.8248,-2.7876,0.0,0.0,0.0,0.0,0.0,0.0,0.0,0.0,0.0,0.0,0.0,0.0,0.0,0.0,0.0,0.0,0.0,0.0,0.0,0.0,0.0,0.0,0.0,0.0,0.0,0.0,0.0,0.0,0.0,0.0,0.0,0.0,0.0,0.0,0.0,0.0,0.0,0.0,0.0,0.0,0.0,0.0,0.0,0.0,0.0,0.0,0.0,0.0,0.0,0.0,0.0,0.0,0.0,0.0,0.0,-4.1886,-4.4799,-4.8739,-5.3601,-5.3245,-5.2362,-5.1123,-4.6223,-4.213,0.0,0.0,0.0,0.0,0.0,0.0,0.0,0.0,0.0,0.0,0.0,0.0,0.0,0.0,0.0,0.0,0.0,0.0,0.0,0.0,0.0,0.0,0.0,0.0,0.0,0.0,0.0,0.0,0.0,0.0,0.0,0.0,0.0,0.0,0.0,0.0,0.0,0.0,0.0,0.0,0.0,-3.2273,-3.4199,-3.2467,0.0,0.0,0.0,0.0,-2.8938,-2.88,0.0,0.0,0.0,0.0,0.0,0.0,0.0,0.0,0.0,0.0,0.0,0.0,0.0,0.0,0.0,0.0,0.0,0.0,0.0,0.0,0.0,0.0,0.0,0.0,0.0,0.0,0.0,0.0,0.0,0.0,0.0,0.0,0.0,0.0,0.0,0.0,0.0,0.0,0.0,0.0,0.0,0.0,0.0,0.0,0.0,0.0,0.0,0.0,0.0,0.0,0.0,0.0,0.0,0.0,0.0,0.0,-4.1108,-4.2894,-4.6467,-5.1855,-5.2081,-5.0954,-4.8664,-4.5866,-4.2187,0.0,0.0,0.0,0.0,0.0,0.0,0.0,0.0,0.0,0.0,0.0,0.0,0.0,0.0,0.0,0.0,0.0,0.0,0.0,0.0,0.0,0.0,0.0,0.0,0.0,0.0,0.0,0.0,0.0,0.0,0.0,0.0,0.0,0.0,0.0,0.0,0.0,0.0,0.0,0.0,0.0,-3.5222,-3.4204,-3.3406,-3.2527,0.0,0.0,0.0,-3.1625,-3.1185,0.0,0.0,0.0,0.0,0.0,0.0,0.0,0.0,0.0,0.0,0.0,0.0,0.0,0.0,0.0,0.0,0.0,0.0,0.0,0.0,0.0,0.0,0.0,0.0,0.0,0.0,0.0,0.0,0.0,0.0,0.0,0.0,0.0,0.0,0.0,0.0,0.0,0.0,0.0,0.0,0.0,0.0,0.0,0.0,0.0,0.0,0.0,0.0,0.0,0.0,0.0,0.0,0.0,0.0,0.0,-3.6491,-4.0458,-4.3718,-4.7293,-5.1029,-5.0785,-4.9584,-4.7556,-4.3262,-3.9558,0.0,0.0,0.0,0.0,0.0,0.0,0.0,0.0,0.0,0.0,0.0,0.0,0.0,0.0,0.0,0.0,0.0,0.0,0.0,0.0,0.0,0.0,0.0,0.0,0.0,0.0,0.0,0.0,0.0,0.0,0.0,0.0,0.0,0.0,0.0,0.0,0.0,0.0,0.0,0.0,0.0,0.0,-3.4341,-3.3834,0.0,0.0,0.0,-3.1669,-3.207,0.0,0.0,0.0,0.0,0.0,0.0,0.0,0.0,0.0,0.0,0.0,0.0,0.0,0.0,0.0,0.0,0.0,0.0,0.0,0.0,0.0,0.0,0.0,0.0,0.0,0.0,0.0,0.0,0.0,0.0,0.0,0.0,0.0,0.0,0.0,0.0,0.0,0.0,0.0,0.0,0.0,0.0,0.0,0.0,0.0,0.0,0.0,0.0,0.0,0.0,0.0,0.0,0.0,0.0,0.0,0.0,0.0,-4.0091,-4.4102,-4.7353,-4.9725,-4.9051,-4.7837,-4.6035,-4.1022,0.0,0.0,0.0,0.0,0.0,0.0,0.0,0.0,0.0,0.0,0.0,0.0,0.0,0.0,0.0,0.0,0.0,0.0,0.0,0.0,0.0,0.0,0.0,0.0,0.0,0.0,0.0,-3.0186,0.0,0.0,0.0,0.0,0.0,0.0,0.0,0.0,0.0,0.0,0.0,0.0,0.0,0.0,-3.3431,-3.429,-3.4123,-3.3779,0.0,0.0,-3.2767,-3.2387,-3.1905,-3.1116,0.0,0.0,0.0,0.0,0.0,0.0,0.0,0.0,0.0,0.0,0.0,0.0,0.0,0.0,0.0,0.0,0.0,0.0,0.0,0.0,0.0,0.0,0.0,0.0,0.0,0.0,0.0,0.0,0.0,0.0,0.0,0.0,0.0,0.0,0.0,0.0,0.0,0.0,0.0,0.0,0.0,0.0,0.0,0.0,0.0,0.0,0.0,0.0,0.0,0.0,0.0,0.0,0.0,0.0,0.0,-4.0307,-4.2648,-4.5079,-4.7401,-4.6752,-4.5457,-4.3571,-4.014,-3.7174,0.0,0.0,0.0,0.0,0.0,0.0,0.0,0.0,0.0,0.0,0.0,0.0,0.0,0.0,0.0,0.0,0.0,0.0,0.0,0.0,0.0,0.0,0.0,0.0,0.0,0.0,0.0,0.0,0.0,0.0,0.0,0.0,0.0,0.0,0.0,0.0,0.0,0.0,0.0,0.0,0.0,-3.3162,-3.3845,-3.4172,-3.4587,0.0,0.0,-3.4037,-3.3321,-3.3616,-3.2976,-3.0066,0.0,0.0,0.0,0.0,0.0,0.0,0.0,0.0,0.0,0.0,0.0,0.0,0.0,0.0,0.0,0.0,0.0,0.0,0.0,0.0,0.0,0.0,0.0,0.0,0.0,0.0,0.0,0.0,0.0,0.0,0.0,0.0,0.0,0.0,0.0,0.0,0.0,0.0,0.0,0.0,0.0,0.0,0.0,0.0,0.0,0.0,0.0,0.0,0.0,0.0,0.0,0.0,0.0,-3.7202,-3.9588,-4.285,-4.5258,-4.6656,-4.5803,-4.4732,-4.3511,-3.9637,-3.6641,0.0,0.0,0.0,0.0,0.0,0.0,0.0,0.0,0.0,0.0,0.0,0.0,0.0,0.0,0.0,0.0,0.0,0.0,0.0,0.0,0.0,0.0,0.0,0.0,0.0,0.0,0.0,0.0,-2.9527,-2.9472,-2.9197,0.0,0.0,0.0,0.0,0.0,0.0,0.0,0.0,0.0,0.0,-3.3179,-3.4133,-3.4747,0.0,0.0,-3.5245,-3.4886,-3.4684,-3.3946,-3.2689,-3.0612,-2.9447,0.0,0.0,0.0,0.0,0.0,0.0,0.0,0.0,0.0,0.0,0.0,0.0,0.0,0.0,0.0,0.0,0.0,0.0,0.0,0.0,0.0,0.0,0.0,0.0,0.0,0.0,0.0,0.0,0.0,0.0,0.0,0.0,0.0,0.0,0.0,0.0,0.0,0.0,0.0,0.0,0.0,0.0,0.0,0.0,0.0,0.0,0.0,0.0,0.0,0.0,0.0,0.0,-3.7589,-3.961,-4.284,-4.5005,-4.6087,-4.4908,-4.3946,-4.3175,-3.9078,-3.6136,0.0,0.0,0.0,0.0,0.0,0.0,0.0,0.0,0.0,0.0,0.0,0.0,0.0,0.0,0.0,0.0,0.0,0.0,0.0,0.0,0.0,0.0,0.0,0.0,0.0,0.0,0.0,0.0,-2.9399,-2.9436,-2.8791,0.0,0.0,0.0,0.0,0.0,0.0,0.0,0.0,0.0,0.0,-3.31,-3.4329,-3.5104,-3.5554,-3.56,-3.5296,-3.4986,-3.4807,-3.3572,-3.2042,-3.0288,0.0,0.0,0.0,0.0,0.0,0.0,0.0,0.0,0.0,0.0,0.0,0.0,0.0,0.0,0.0,0.0,0.0,0.0,0.0,0.0,0.0,0.0,0.0,0.0,0.0,0.0,0.0,0.0,0.0,0.0,0.0,0.0,0.0,0.0,0.0,0.0,0.0,0.0,0.0,0.0,0.0,0.0,0.0,0.0,0.0,0.0,0.0,0.0,0.0,0.0,0.0,0.0,0.0,-3.7975,-4.0726,-4.2298,-4.3874,-4.5451,-4.3912,-4.2909,-4.2394,-3.8416,-3.5719,-3.4575,0.0,0.0,0.0,0.0,0.0,0.0,0.0,0.0,0.0,0.0,0.0,0.0,0.0,0.0,0.0,0.0,0.0,0.0,0.0,0.0,0.0,0.0,0.0,0.0,0.0,0.0,-2.8917,-2.8798,-2.8767,0.0,0.0,0.0,0.0,0.0,0.0,0.0,0.0,0.0,0.0,-3.1543,-3.2818,-3.429,-3.5092,-3.5515,-3.5532,-3.494,-3.4204,-3.3352,-3.2584,-3.1267,0.0,0.0,0.0,0.0,0.0,0.0,0.0,0.0,0.0,0.0,0.0,0.0,0.0,0.0,0.0,0.0,0.0,0.0,0.0,0.0,0.0,0.0,0.0,0.0,0.0,0.0,0.0,-3.7851,-3.7305,0.0,0.0,0.0,0.0,0.0,0.0,0.0,0.0,0.0,0.0,0.0,-3.8415,-3.8377,0.0,0.0,0.0,0.0,0.0,0.0,0.0,0.0,0.0,0.0,0.0,0.0,-3.8118,-4.0732,-4.2368,-4.4008,-4.5611,-4.4487,-4.3524,-4.2794,-3.9585,-3.6326,-3.3035,0.0,0.0,0.0,0.0,0.0,0.0,0.0,0.0,0.0,0.0,0.0,0.0,0.0,0.0,0.0,0.0,0.0,0.0,0.0,0.0,0.0,0.0,0.0,0.0,0.0,-2.8994,0.0,0.0,0.0,0.0,0.0,0.0,0.0,0.0,0.0,0.0,0.0,-2.8647,-3.0057,-3.0997,-3.2107,-3.3575,-3.3981,-3.415,0.0,0.0,0.0,0.0,0.0,0.0,0.0,0.0,0.0,0.0,0.0,0.0,0.0,0.0,-3.1445,-2.8702,-2.7805,-2.7421,-2.719,0.0,0.0,0.0,0.0,0.0,0.0,0.0,0.0,0.0,0.0,0.0,0.0,0.0,0.0,0.0,0.0,-3.7558,0.0,0.0,0.0,0.0,0.0,0.0,0.0,0.0,-3.8965,-3.9763,-4.0252,-4.0207,-3.9844,0.0,-3.804,-3.6294,0.0,0.0,0.0,0.0,0.0,0.0,0.0,0.0,-3.8489,-4.0758,-4.2454,-4.4098,-4.5664,-4.4901,-4.3948,-4.2986,-3.9707,-3.6122,-3.2401,-3.0949,-3.0083,0.0,0.0,0.0,0.0,0.0,0.0,0.0,0.0,0.0,0.0,0.0,0.0,0.0,0.0,0.0,0.0,0.0,0.0,0.0,0.0,0.0,0.0,0.0,-2.8987,0.0,0.0,0.0,0.0,0.0,0.0,0.0,0.0,0.0,-2.7282,-2.7998,-2.9125,-3.0671,-3.1295,-3.2002,-3.3237,0.0,0.0,0.0,0.0,0.0,0.0,0.0,-3.2194,-3.1295,-3.175,-3.1769,-3.0456,-3.1591,-3.2762,-3.3011,0.0,0.0,-2.9956,-2.9054,-2.8581,-2.8161,-2.7806,-2.7561,-2.7677,-2.7238,-2.6902,0.0,0.0,0.0,0.0,0.0,0.0,0.0,0.0,-3.7753,-3.8378,0.0,-3.8168,0.0,0.0,0.0,0.0,0.0,0.0,0.0,0.0,-4.0469,-4.1267,-4.1252,-4.1268,-4.1169,-4.1021,-4.093,-3.9956,-3.8075,-3.4079,0.0,0.0,0.0,0.0,0.0,0.0,-3.9069,-4.0835,-4.2473,-4.4098,-4.5652,-4.5007,-4.4047,-4.2794,-3.8671,-3.5234,-3.2726,-3.1678,-3.0791,-2.9962,-2.9782,0.0,0.0,0.0,0.0,0.0,0.0,0.0,0.0,0.0,0.0,0.0,0.0,0.0,0.0,0.0,0.0,0.0,0.0,0.0,0.0,-2.8987,0.0,0.0,0.0,0.0,0.0,0.0,0.0,0.0,0.0,0.0,-2.832,-2.8748,-2.9822,-3.1955,0.0,0.0,0.0,0.0,-3.3322,-3.3288,-3.3339,-3.3567,-3.4189,-3.3765,-3.3039,-3.2127,0.0,0.0,-3.2083,-3.2381,-3.2597,-3.1879,-3.2448,-3.2803,-3.2894,-3.1634,-3.0623,-3.0201,-2.9123,-2.8438,-2.8557,-2.8214,-2.7733,-4.4765,0.0,0.0,0.0,0.0,-4.159,-4.1602,-4.1945,-4.1762,-4.1292,-4.0613,-3.9556,0.0,0.0,0.0,0.0,0.0,0.0,-3.9821,-4.0467,-4.2167,-4.3301,-4.3885,-4.3835,-4.3777,-4.3714,-4.2389,-4.1199,-4.0044,-3.7586,-3.5452,-3.3692,0.0,0.0,0.0,0.0,-3.9334,-4.1564,-4.2744,-4.3846,-4.4929,-4.471,-4.3217,-4.0358,-3.7896,-3.5345,-3.2695,-3.1779,-3.0936,-3.0094,-2.995,0.0,0.0,0.0,0.0,0.0,0.0,0.0,0.0,0.0,0.0,0.0,0.0,0.0,0.0,0.0,0.0,0.0,0.0,0.0,-2.8987,-2.8987,-2.8987,0.0,0.0,0.0,0.0,0.0,0.0,0.0,0.0,0.0,-2.9461,-2.969,-3.0209,0.0,0.0,-3.1802,-3.2513,-3.2154,-3.1816,-3.1833,0.0,0.0,0.0,-3.2647,-3.2365,-3.2105,-3.26,-3.3256,-3.4028,-3.423,-3.4203,-3.3955,-3.4121,-3.4006,-3.3113,-3.1927,-3.0775,-3.0007,-2.9795,-2.9862,-2.9906,-2.9774,-2.9722,-4.7528,-4.4921,-4.2969,-4.2543,-4.3118,-4.2673,-4.2814,-4.3313,-4.3,-4.2719,-4.2429,-4.1278,-4.0216,-3.9239,-3.7701,0.0,0.0,0.0,-4.1008,-4.2182,-4.3589,-4.4666,-4.5468,-4.5467,-4.5438,-4.5345,-4.3925,-4.2763,-4.1854,-4.0121,-3.8294,-3.6444,0.0,0.0,-3.7193,-3.8547,-4.0307,-4.2434,-4.3034,-4.373,-4.4581,-4.3917,-4.2201,-3.943,-3.8003,-3.5881,-3.291,-3.2287,-3.1436,-3.0235,-3.0096,-3.004,0.0,0.0,0.0,0.0,0.0,0.0,0.0,0.0,0.0,0.0,0.0,-2.9388,0.0,0.0,0.0,0.0,-2.9067,-2.8987,-2.8987,-2.8987,0.0,0.0,0.0,0.0,0.0,0.0,0.0,-2.9939,-2.9617,-2.9524,-3.0068,-3.0364,-3.0801,-3.1549,-3.1376,-3.1461,-3.2192,0.0,-3.1309,-3.1599,-3.2022,-3.2412,-3.2699,-3.2671,-3.2609,-3.2609,-3.2832,-3.3289,-3.4141,-3.4222,-3.4107,-3.4107,-3.4068,-3.371,-3.2731,-3.1741,-3.088,-3.0083,-3.0195,-3.0477,-3.0492,-3.0717,-3.096,-4.9875,-4.8105,-4.572,-4.4201,-4.3412,-4.3393,-4.3397,-4.331,-4.2563,-4.3156,-4.4631,-4.3045,-4.2309,-4.2162,-3.9924,0.0,0.0,-4.1024,-4.2275,-4.3835,-4.4698,-4.5523,-4.6268,-4.6288,-4.6268,-4.6188,-4.5387,-4.4526,-4.3568,-4.1999,-4.0776,-3.9886,-3.8166,-3.8044,-3.9462,-4.0352,-4.1622,-4.3266,-4.3305,-4.3666,-4.4342,-4.2705,-4.1048,-3.9423,-3.8489,-3.6433,-3.3276,-3.2841,-3.1973,-3.0427,-3.0139,-3.0034,-3.0049,0.0,0.0,0.0,0.0,0.0,0.0,0.0,0.0,0.0,0.0,0.0,0.0,0.0,0.0,0.0,-2.9085,0.0,-2.8987,-2.8987,0.0,0.0,0.0,-2.9338,-2.9704,-2.9911,-3.0042,-3.0071,0.0,0.0,0.0,0.0,-3.1464,-3.2124,-3.163,-3.1461,-3.2209,-3.1684,-3.1427,-3.2039,-3.2259,-3.253,-3.3051,-3.3165,-3.3148,-3.3169,-3.3216,-3.311,-3.3223,-3.3105,-3.294,-3.2962,-3.2818,-3.2551,-3.1983,-3.1454,-3.091,-3.0356,-3.0346,-3.0402,-3.0417,-3.0793,-3.1168,-5.1625,-4.9981,-4.8721,-4.7336,-4.6009,-4.5981,-4.5622,-4.5038,-4.4931,-4.4763,-4.4523,-4.3599,-4.2526,-4.142,-4.148,-4.1618,-4.1872,-4.3402,-4.4285,-4.4738,-4.5582,-4.6092,-4.6289,-4.6289,-4.6289,-4.6248,-4.6001,-4.5765,-4.5487,-4.4366,-4.3675,-4.3377,-4.1658,-4.0352,-3.9559,-4.0371,-4.1603,-4.3285,-4.3305,-4.3073,-4.2589,-4.0965,-3.9578,-3.8522,-3.7077,-3.5298,-3.316,-3.183,-3.097,-3.0525,-2.9882,-2.9804,-3.0416,-3.026,0.0,0.0,0.0,0.0,0.0,0.0,0.0,0.0,0.0,-3.0057,-2.9452,0.0,-3.0565,0.0,-2.9085,-2.8987,-2.8987,-2.8987,0.0,0.0,-3.0099,-3.0864,-3.0954,-3.1501,-3.1997,-3.2352,-3.1631,-3.12,-3.1405,-3.1289,-3.1278,-3.1447,-3.1309,-3.1444,-3.2158,-3.1647,-3.1278,-3.1461,-3.1918,-3.2361,-3.2513,-3.2544,-3.2544,-3.2564,-3.2441,-3.2517,-3.3024,-3.2994,-3.2862,-3.2763,-3.2741,-3.2436,-3.1792,-3.1281,-3.0742,-3.0209,-2.9939,-2.9804,-2.9804,-2.9968,-3.0152,-5.1875,-5.0635,-4.974,-4.8644,-4.7404,-4.7058,-4.6394,-4.5622,-4.5676,-4.5464,-4.5033,-4.4364,-4.3581,-4.2776,-4.2895,-4.3196,-4.3606,-4.4567,-4.5216,-4.5611,-4.6066,-4.6305,-4.6288,-4.6288,-4.6289,-4.6289,-4.6265,-4.6022,-4.5579,-4.4665,-4.418,-4.4074,-4.2729,-4.1561,-4.07,-4.1467,-4.255,-4.3846,-4.3111,-4.2318,-4.1467,-4.0178,-3.9268,-3.876,-3.6767,-3.4872,-3.3146,-3.1487,-3.0617,-3.0598,-3.0153,-3.0269,-3.1076,-3.0995,-3.0662,0.0,0.0,0.0,0.0,0.0,0.0,0.0,0.0,0.0,0.0,0.0,-3.0213,0.0,-2.9074,0.0,-2.8987,-2.8987,-2.9152,-2.95,-3.0338,-3.1127,-3.1843,-3.2282,-3.2716,-3.3183,-3.2436,-3.191,-3.1951,-3.1545,-3.1252,-3.1235,-3.123,-3.1343,-3.1684,-3.1427,-3.119,-3.1207,-3.1529,-3.1819,-3.1819,-3.1819,-3.1819,-3.1799,-3.1739,-3.183,-3.2189,-3.2131,-3.2005,-3.1907,-3.1784,-3.1603,-3.1163,-3.0718,-3.0258,-2.9737,-2.9289,-2.9293,-2.9858,-2.9998,-3.009,-5.1471,-5.0452,-4.9721,-4.8836,-4.7913,-4.7201,-4.6471,-4.5768,-4.5768,-4.5772,-4.5763,-4.5196,-4.4947,-4.4929,-4.4282,-4.4421,-4.5148,-4.5148,-4.556,-4.6284,-4.6291,-4.6297,-4.6302,-4.6306,-4.6288,-4.6289,-4.6289,-4.5838,-4.4905,-4.4139,-4.3648,-4.3402,-4.2543,-4.213,-4.2215,-4.2828,-4.3531,-4.4233,-4.2879,-4.1719,-4.0816,-3.9946,-3.9385,-3.9094,-3.669,-3.4543,-3.2836,-3.127,-3.0443,-3.0443,-3.0443,-3.0791,-3.1599,-3.1637,-3.1193,0.0,-3.0095,0.0,0.0,0.0,0.0,0.0,0.0,0.0,0.0,-2.9334,-2.9266,-2.9259,-2.9106,-2.8987,-2.8987,-2.8987,-2.928,-2.9953,-3.0155,-3.076,-3.2087,-3.2381,-3.2655,-3.3158,-3.2857,-3.2511,-3.2351,-3.1769,-3.1372,-3.1391,-3.1271,-3.114,-3.1072,-3.114,-3.119,-3.119,-3.119,-3.1292,-3.1258,-3.1224,-3.1224,-3.1207,-3.1241,-3.119,-3.1235,-3.1083,-3.0942,-3.0901,-3.0788,-3.0597,-3.0489,-3.021,-2.983,-2.951,-2.9061,-2.8958,-2.9681,-3.0028,-3.0298,-5.1664,-4.9644,-4.9452,-4.8509,-4.7115,-4.6971,-4.6797,-4.6663,-4.6663,-4.6342,-4.5787,-4.5667,-4.57,-4.5845,-4.5703,-4.5796,-4.6046,-4.6054,-4.6155,-4.6291,-4.6297,-4.6303,-4.6306,-4.6307,-4.6288,-4.6289,-4.6289,-4.584,-4.4979,-4.477,-4.428,-4.3558,-4.2637,-4.2505,-4.3066,0.0,0.0,0.0,-4.286,-4.2318,-4.0835,-3.9946,-3.8824,-3.7386,-3.4925,0.0,-3.1159,-3.0099,-2.9553,-2.9534,-2.9553,0.0,0.0,0.0,0.0,0.0,0.0,0.0,0.0,0.0,0.0,0.0,-2.9502,-2.9503,-2.9399,-2.9283,-2.9496,-3.0064,-2.9453,-2.8987,-2.8987,-2.8987,-2.9078,-2.9225,-2.9794,-3.0338,-3.065,-3.1237,-3.1909,-3.2632,-3.2375,-3.2361,-3.2811,-3.2247,-3.1697,-3.1678,-3.1411,-3.0956,-3.0412,-3.0818,-3.1157,-3.119,-3.1157,-3.119,-3.119,-3.119,-3.119,-3.119,-3.119,-3.1154,-3.1021,-3.0965,-3.0898,-3.0723,-3.0692,-3.0613,-3.0531,-3.0443,-3.0341,-3.0464,-3.0013,-2.9361,-2.8389,-2.8577,-2.9116,-5.1202,0.0,-4.9106,-4.8279,0.0,-4.7077,-4.6904,-4.6865,-4.6432,-4.6042,-4.5715,-4.5771,-4.5848,-4.5949,-4.6045,-4.6138,-4.6209,-4.6257,-4.6288,-4.6288,-4.6295,-4.63,-4.6302,-4.6306,-4.6073,-4.5664,-4.5664,-4.5215,-4.4355,-4.3883,-4.364,-4.3583,-4.2705,-4.2445,-4.2758,-4.1936,-4.1668,-4.199,-4.2048,-4.1641,-4.0797,-3.9514,-3.8663,-3.8102,0.0,0.0,0.0,0.0,0.0,0.0,0.0,0.0,0.0,0.0,0.0,-3.0396,-3.026,-3.0102,-2.9883,-2.9875,-2.982,-2.9673,-2.9608,-2.9541,-2.9399,-2.9304,-2.9436,-2.9806,-2.9351,-2.9062,-2.9051,-2.9017,-2.917,-2.9555,-2.9959,-3.0338,-3.0742,-3.1146,-3.1562,-3.1873,-3.1683,-3.1751,-3.2557,-3.203,-3.169,-3.1827,-3.164,-3.1117,-3.0332,-3.0412,-3.0649,-3.0683,-3.1004,-3.119,-3.119,-3.119,-3.1173,-3.1173,-3.0903,-3.0664,-3.0572,-3.0193,-2.99,-2.98,-2.9952,-3.0118,-3.0091,-3.0282,-3.0479,-3.0313,-2.9904,-2.9273,-2.8192,-2.8303,-2.8697,-5.076,-5.0337,-4.8933,-4.8163,-4.7836,-4.7182,-4.6817,-4.6635,0.0,0.0,0.0,-4.5731,-4.5778,-4.5801,-4.5964,-4.6053,-4.6105,-4.6214,-4.6275,-4.6302,-4.6288,-4.6291,-4.6294,-4.6302,-4.5935,-4.5232,-4.5078,-4.4551,-4.3691,-4.2812,-4.2654,-4.3069,-4.2461,-4.2149,-4.2178,-4.1642,-4.1568,-4.1956,-4.137,-4.0951,-4.0758,-3.9243,-3.8624,-3.9036,-3.5317,-3.3184,-3.2856,-3.0849,-2.9998,-3.0559,-3.0617,-3.0907,-3.1541,-3.1579,-3.1269,-3.0562,-3.0352,-3.0209,-3.0096,-3.0022,-2.9973,-2.9942,-2.9724,-2.9541,-2.9399,-2.9344,-2.9302,-2.9302,-2.9186,-2.9108,-2.9108,-2.9033,-2.9262,-2.9934,-2.9989,-3.0246,-3.0864,-3.0962,-3.0962,-3.1133,-3.0961,-3.1093,-3.1837,-3.1682,-3.1563,-3.1897,-3.1917,-3.1369,-3.0333,-2.9946,-2.9905,-2.9956,-3.0294,-3.0753,-3.0768,-3.0717,-3.0821,-3.0668,-3.026,-2.9939,-2.9785,-2.9306,-2.888,-2.8927,-2.9178,-2.9399,-2.9456,-2.9726,-3.0038,-2.9777,-2.9357,-2.8932,-2.8559,-2.8484,-2.8572,-5.0894,-4.9567,-4.9317,-4.8394,-4.7067,-4.6951,-4.6471,-4.5845,-4.6432,-4.6297,-4.5594,-4.562,-4.5692,-4.5807,-4.5828,-4.5928,-4.6098,-4.6112,-4.6184,0.0,-4.6302,-4.6306,-4.6293,-4.6295,-4.624,-4.6068,-4.5368,-4.4549,-4.369,-4.2832,-4.2129,-4.1621,-4.1425,-4.1693,-4.2293,-4.283,-4.2802,-4.2102,-4.1916,-4.1506,-4.0797,-3.9829,-3.8649,-3.727,-3.5298,-3.3479,-3.2024,-3.1637,-3.1173,-3.0636,-3.0617,-3.0656,-3.0752,-3.0791,-3.067,-3.0509,-3.0469,-3.0346,-3.0129,-3.0241,-3.0267,-3.008,-2.9784,-2.956,-2.9409,-2.9326,-2.9302,-2.9302,-2.9186,-2.9108,-2.9108,-2.9051,-2.906,-2.917,-2.917,-2.9225,-2.9409,-2.9427,-2.9684,-3.0301,-3.0332,-3.0595,-3.1307,-3.1664,-3.1771,-3.1987,-3.1878,-3.1635,-3.0075,-2.9382,-2.9163,-2.9162,-2.923,-2.9314,-2.9484,-2.9331,-2.945,-2.9297,-2.9281,-2.9127,-2.9145,-2.8941,-2.8734,-2.8777,-2.8789,-2.8831,-2.8715,-2.8688,-2.9025,-2.9275,-2.9035,-2.8752,-2.8744,-2.855,-2.8368,-5.051,-4.9452,-4.9413,-4.8432,-4.6865,-4.6394,-4.597,-4.5652,-4.6028,-4.5998,-4.5614,-4.5594,-4.5637,-4.57,-4.5771,-4.5879,-4.5996,-4.6061,-4.6176,-4.63,-4.6302,-4.6303,-4.6287,-4.6291,-4.606,-4.5575,-4.4703,-4.408,-4.3651,-4.2812,-4.2441,-4.2539,-4.2558,-4.2712,-4.2986,-4.2908,-4.2852,-4.2844,-4.234,-4.1643,-4.0797,-3.9495,-3.8411,-3.7593,-3.553,-3.4046,-3.3228,-3.2759,-3.2121,-3.1289,-3.1236,-3.1062,-3.0636,-3.0617,-3.0564,-3.0505,-3.049,-3.0442,-3.026,-3.0342,-3.0311,-3.0115,-2.9958,-2.9756,-2.9531,-2.9419,-2.9355,-2.9355,-2.928,-2.9197,-2.9175,-2.9089,-2.904,-2.8987,-2.8987,-2.8987,-2.8987,-2.8987,-2.9152,-2.9482,-2.9537,-2.9849,-3.065,-3.0896,-3.1102,-3.1243,-3.1019,-3.0201,-2.9343,-2.8702,-2.8321,-2.8387,-2.8722,-2.8976,-2.8976,-2.8993,-2.8993,-2.8993,-2.8637,-2.8399,-2.8315,-2.8095,-2.779,-2.7738,-2.7955,-2.817,-2.8059,-2.8317,-2.8591,-2.871,-2.8465,-2.8236,-2.8195,-2.7961,-2.7931,-5.0192,-4.9413,-4.9606,-4.8721,-4.7096,-4.6028,-4.5594,-4.5594,-4.5594,-4.5594,-4.5594,-4.5594,-4.5594,-4.5603,-4.5696,-4.5796,-4.5886,-4.6016,-4.6115,-4.6245,-4.6277,-4.6302,-4.6302,-4.6288,-4.5938,-4.5257,-4.4406,-4.3981,-4.3903,-4.3124,-4.3008,-4.3652,-4.3887,-4.3963,-4.3913,-4.3443,-4.3409,-4.3755,-4.3097,-4.2194,-4.1102,-3.9377,-3.8406,-3.8057,-3.611,-3.4891,-3.4665,-3.3866,-3.3088,-3.2411,-3.2005,-3.1521,-3.0902,-3.0694,-3.0564,-3.0496,-3.0495,-3.0463,-3.0411,-3.0402,-3.0323,-3.0182,-3.0129,-2.9988,-2.975,-2.9589,-2.9461,-2.9417,-2.9315,-2.928,-2.9207,-2.9134,-2.9085,-2.9017,-2.8987,-2.8987,-2.8987,-2.8987,-2.8987,-2.8987,-2.8987,-2.9262,-2.9776,-3.0051,-3.0403,-3.0731,-2.9851,-2.9113,-2.8945,-2.8291,-2.7788,-2.7857,-2.8253,-2.8455,-2.8503,-2.8434,-2.84,-2.8485,-2.796,-2.7621,-2.7469,-2.7063,-2.6776,-2.686,-2.7147,-2.7432,-2.7498,-2.7707,-2.7996,-2.8123,-2.7882,-2.7559,-2.7506,-2.7396,-2.7445,-5.0164,-4.9567,-5.0173,-4.9567,-4.7817,-4.6259,-4.5594,-4.5594,-4.5594,-4.5594,-4.5594,-4.5594,-4.5594,-4.5594,-4.5612,-4.57,-4.5822,-4.5886,-4.5992,-4.6112,-4.6243,-4.6302,-4.63,-4.6302,-4.6262,-4.6049,-4.5257,-4.4831,-4.4832,-4.4039,-4.3652,-4.3789,-4.4492,-4.4883,-4.4922,-4.5508,-4.5523,-4.4779,-4.4697,-4.3791,-4.2005,-4.0281,-3.9017,-3.8212,-3.7232,-3.6323,-3.5651,-3.4761,-3.4239,-3.4046,-3.2667,-3.1773,-3.1618,-3.1004,-3.0583,-3.0515,-3.0495,-3.0477,-3.0416,-3.0404,-3.0379,-3.0361,-3.0202,-3.0095,-3.0032,-2.9915,-2.9717,-2.95,-2.9365,-2.9302,-2.92,-2.9134,-2.9096,-2.9028,-2.8987,-2.8987,-2.8987,-2.8987,-2.8987,-2.8987,-2.8987,-2.9049,-2.9225,-2.9721,-3.0406,-3.0917,-3.0064,-2.9355,-2.9237,-2.8514,-2.7847,-2.7717,-2.7612,-2.7362,-2.7182,-2.6928,-2.7114,-2.7029,-2.6911,-2.6894,-2.6877,-2.6843,-2.6708,-2.6725,-2.6759,-2.686,-2.6792,-2.6738,-2.6969,-2.7396,-2.7358,-2.7243,-2.7105,-2.7049,-2.7279,-4.9413,-4.8682,-4.9009,-4.849,-4.7278,-4.6105,-4.5594,-4.5594,-4.5594,-4.5594,-4.5594,-4.5594,-4.5594,-4.5594,-4.5594,-4.5676,-4.5807,-4.5848,-4.59,-4.5987,-4.6112,-4.6181,-4.6203,-4.6271,-4.6302,-4.6223,-4.541,-4.5277,-4.5651,-4.5386,-4.5233,-4.5273,-4.5625,-4.5762,-4.5762,-4.5605,-4.5585,-4.57,-4.4673,-4.3732,-4.2889,-4.1254,-3.989,-3.9004,-3.8102,-3.7555,-3.7135,-3.6342,-3.5665,-3.5148,-3.3982,-3.2861,-3.185,-3.1487,-3.1091,-3.0617,-3.0525,-3.0463,-3.04,-3.0396,-3.0404,-3.0404,-3.0317,-3.0241,-3.0115,-3.0052,-2.9915,-2.9735,-2.9561,-2.9423,-2.9265,-2.9207,-2.9123,-2.9055,-2.9028,-2.8987,-2.8987,-2.8987,-2.8987,-2.8987,-2.8987,-2.8987,-2.9042,-2.928,-2.961,-2.9922,-2.9466,-2.921,-2.9105,-2.865,-2.8295,-2.8037,-2.784,-2.7532,-2.7116,-2.6808,-2.6741,-2.6708,-2.6708,-2.6708,-2.6691,-2.6708,-2.6708,-2.6708,-2.6708,-2.6708,-2.6708,-2.6589,-2.6671,-2.6884,-2.674,-2.663,-2.6696,-2.6559,-2.668,-4.874,-4.7817,-4.7528,-4.7221,-4.6836,-4.597,-4.5594,-4.5594,-4.5594,-4.5594,-4.5594,-4.5594,-4.5748,-4.5893,-4.5729,-4.5651,-4.5734,-4.5786,-4.5841,-4.5881,-4.5987,-4.6061,-4.6102,-4.6206,-4.6271,-4.6202,-4.5662,-4.5685,-4.6255,-4.6301,-4.6305,-4.6306,-4.6288,-4.6289,-4.623,-4.5625,-4.5644,-4.6113,-4.4956,-4.4106,-4.3507,-4.2317,-4.0963,-3.9647,-3.8908,-3.8485,-3.8193,-3.7367,-3.6651,-3.6033,-3.4993,-3.3731,-3.2275,-3.1947,-3.1444,-3.068,-3.0535,-3.0474,-3.0398,-3.0389,-3.039,-3.0404,-3.0404,-3.0349,-3.0228,-3.0182,-3.0102,-2.9954,-2.9817,-2.9635,-2.9392,-2.931,-2.9217,-2.9123,-2.9033,-2.901,-2.8987,-2.8987,-2.8987,-2.8987,-2.8987,-2.8987,-2.8987,-2.9023,-2.9078,-2.9067,-2.9007,-2.8899,-2.8905,-2.881,-2.8657,-2.8373,-2.8228,-2.7908,-2.7428,-2.7195,-2.6971,-2.6841,-2.6858,-2.6825,-2.6741,-2.6691,-2.6708,-2.6708,-2.6708,-2.6708,-2.6674,-2.664,-2.6555,-2.6434,-2.636,-2.6224,-2.6163,-2.607,-2.6215,-4.8452,-4.6932,-4.6067,-4.6201,-4.6817,-4.597,-4.5594,-4.5594,-4.5594,-4.5594,-4.5594,-4.5594,-4.6047,-4.6682,-4.5913,-4.5622,-4.5676,-4.5754,-4.58,-4.5808,-4.5875,-4.5983,-4.6118,-4.6125,-4.6176,-4.6273,-4.6179,-4.6206,-4.6293,-4.6294,-4.6297,-4.6302,-4.6306,-4.6287,-4.6288,-4.6211,-4.623,-4.623,-4.6074,-4.529,-4.383,-4.3491,-4.2159,-3.9948,-3.9548,-3.9151,-3.8338,-3.7406,-3.6903,-3.6864,-3.5375,-3.4021,-3.3068,-3.2217,-3.1357,-3.0636,-3.0496,-3.0471,-3.0409,-3.0392,-3.04,-3.039,-3.0404,-3.0398,-3.0361,-3.0355,-3.0286,-3.0109,-3.008,-2.992,-2.9588,-2.9514,-2.9377,-2.916,-2.91,-2.9067,-2.8987,-2.8987,-2.8987,-2.8987,-2.8987,-2.8987,-2.8987,-2.8987,-2.8987,-2.8987,-2.8994,-2.8982,-2.8917,-2.8887,-2.8803,-2.8639,-2.8404,-2.8093,-2.7739,-2.7459,-2.7352,-2.7195,-2.7005,-2.6952,-2.6824,-2.6708,-2.6657,-2.664,-2.6539,-2.6539,-2.6624,-2.6624,-2.6521,-2.6416,-2.631,-2.6175,-2.6012,-2.6212,-2.6322,-4.7586,-4.6067,-4.5729,-4.5797,-4.6009,-4.5729,-4.5594,-4.5594,-4.5594,-4.5594,-4.5594,-4.5594,-4.5787,-4.6047,-4.5748,-4.5913,-4.6345,-4.5913,-4.5668,-4.5692,-4.5775,-4.5847,-4.5914,-4.5964,-4.6045,-4.6147,-4.6176,-4.6216,-4.6305,-4.6291,-4.6294,-4.6296,-4.6302,-4.6304,-4.6305,-4.6287,-4.6288,-4.6288,-4.6289,-4.5429,-4.3848,-4.3669,-4.2661,-4.0735,-4.0513,-4.0314,-3.9946,-3.9088,-3.8359,-3.7754,-3.6593,-3.5104,-3.3242,-3.1792,-3.0902,-3.0603,-3.0525,-3.0486,-3.0446,-3.0433,-3.0392,-3.04,-3.0396,-3.0404,-3.0404,-3.0404,-3.038,-3.0305,-3.0292,-3.0155,-2.9943,-2.9773,-2.9598,-2.9407,-2.9322,-2.9225,-2.9089,-2.901,-2.8987,-2.8987,-2.8987,-2.8987,-2.8987,-2.8987,-2.8987,-2.8987,-2.8987,-2.8975,-2.897,-2.8947,-2.887,-2.8785,-2.8596,-2.8276,-2.7564,-2.742,-2.7289,-2.7181,-2.6986,-2.6515,-2.625,-2.6031,-2.5947,-2.5964,-2.5998,-2.6336,-2.6421,-2.6506,-2.642,-2.6468,-2.6363,-2.6187,-2.6007,-2.6131,-2.6118,-4.6819,-4.5591,-4.5568,-4.5594,-4.5594,-4.5594,-4.5594,-4.5594,-4.5594,-4.5594,-4.5594,-4.5594,-4.5729,-4.5932,-4.5748,-4.6067,-4.6731,-4.6018,-4.5594,-4.5603,-4.57,-4.5757,-4.5794,-4.5866,-4.5924,-4.6017,-4.6091,-4.6156,-4.6277,-4.6306,-4.629,-4.629,-4.6296,-4.6299,-4.63,-4.6304,-4.6306,-4.6287,-4.6289,-4.5566,-4.4277,-4.3848,-4.3026,-4.1708,-4.1238,-4.1031,-4.0921,-4.01,-3.9207,-3.8281,-3.7408,-3.576,-3.3286,-3.1521,-3.0617,-3.0598,-3.054,-3.052,-3.0491,-3.046,-3.0433,-3.0398,-3.0394,-3.0396,-3.0404,-3.0404,-3.0404,-3.0404,-3.0404,-3.0323,-3.0202,-3.0059,-2.9872,-2.9661,-2.9551,-2.9444,-2.9243,-2.9167,-2.9089,-2.901,-2.8987,-2.8987,-2.8987,-2.8987,-2.8987,-2.8987,-2.8987,-2.8987,-2.8994,-2.897,-2.8905,-2.8846,-2.8773,-2.85,-2.8061,-2.7828,-2.7013,-2.6746,-2.6547,-2.6093,-2.5619,-2.54,-2.5269,-2.5303,-2.5575,-2.5981,-2.6235,-2.6337,-2.6421,-2.6487,-2.6416,-2.6241,-2.6117,-2.5974,-2.5991,-4.6254,-4.532,-4.5495,-4.5586,-4.5594,-4.5594,-4.5594,-4.5594,-4.5594,-4.5594,-4.5594,-4.5594,-4.597,-4.6471,-4.5893,-4.6047,-4.6509,-4.5932,-4.5594,-4.5594,-4.5612,-4.5734,-4.5894,-4.5928,-4.5971,-4.6035,-4.6076,-4.6209,-4.6409,-4.6411,-4.6413,-4.636,-4.6348,-4.6293,-4.6293,-4.6299,-4.6304,-4.6306,-4.6287,-4.5839,-4.5,-4.4219,-4.332,-4.2363,-4.1641,-4.1198,-4.1003,-4.022,-3.939,-3.8427,-3.7556,-3.5823,-3.3374,-3.1521,-3.0602,-3.0617,-3.0617,-3.0564,-3.052,-3.0491,-3.0465,-3.0414,-3.0392,-3.04,-3.0396,-3.0404,-3.0404,-3.0404,-3.0404,-3.0373,-3.0373,-3.0349,-3.0195,-2.9864,-2.9773,-2.9652,-2.9464,-2.9392,-2.9289,-2.9055,-2.8987,-2.8987,-2.8987,-2.8987,-2.8987,-2.8987,-2.8987,-2.8987,-2.8987,-2.8994,-2.8982,-2.8905,-2.8797,-2.8585,-2.8444,-2.8211,-2.7105,-2.6228,-2.6004,-2.5651,-2.5114,-2.4775,-2.4643,-2.4683,-2.5371,-2.5794,-2.6116,-2.6219,-2.6337,-2.6387,-2.6334,-2.6329,-2.6207,-2.61,-2.5956,-4.5848,-4.5239,-4.5273,-4.5448,-4.5586,-4.5594,-4.5594,-4.5594,-4.5594,-4.5594,-4.5594,-4.5594,-4.5768,-4.5893,-4.5691,-4.5748,-4.597,-4.5691,-4.5594,-4.5594,-4.5594,-4.5928,-4.6414,-4.6538,-4.6607,-4.6674,-4.6782,-4.6909,-4.7035,-4.7044,-4.7103,-4.7094,-4.6575,-4.6305,-4.6305,-4.6293,-4.6297,-4.63,-4.6305,-4.5858,-4.5077,-4.4746,-4.3906,-4.2558,-4.2148,-4.1756,-4.1162,-4.0833,-4.0213,-3.9276,-3.8432,-3.6514,-3.3592,-3.1546,-3.0649,-3.0607,-3.0617,-3.0593,-3.0564,-3.0525,-3.0491,-3.0465,-3.0419,-3.0392,-3.04,-3.0396,-3.0404,-3.0404,-3.0404,-3.0404,-3.0404,-3.0404,-3.0286,-3.0044,-2.9973,-2.9813,-2.9523,-2.9322,-2.9156,-2.9021,-2.8987,-2.8987,-2.8987,-2.8987,-2.8987,-2.8987,-2.8987,-2.8987,-2.8987,-2.8987,-2.8964,-2.8905,-2.8778,-2.8523,-2.8112,-2.7634,-2.676,-2.5894,-2.5537,-2.513,-2.4605,-2.4319,-2.4156,-2.4334,-2.5027,-2.5523,-2.5845,-2.6015,-2.6067,-2.6387,-2.6487,-2.6434,-2.6347,-2.6207,-2.6082,-4.5848,-4.4957,-4.5118,-4.5302,-4.5457,-4.5559,-4.5594,-4.5594,-4.5594,-4.5594,-4.5594,-4.5594,-4.5594,-4.5594,-4.5594,-4.5594,-4.5594,-4.5594,-4.5594,-4.5594,-4.5594,-4.5922,-4.6394,-4.6413,-4.6681,-4.6977,-4.7081,-4.7379,-4.7795,-4.7833,-4.7775,-4.746,-4.7012,-4.6593,-4.6341,-4.6306,-4.629,-4.6294,-4.63,-4.603,-4.5524,-4.5174,-4.4491,-4.3437,-4.2734,-4.2343,-4.207,-4.1539,-4.0722,-3.9713,-3.8597,-3.654,-3.3894,-3.2409,-3.131,-3.0715,-3.0613,-3.0619,-3.0602,-3.0564,-3.0525,-3.0491,-3.0446,-3.0433,-3.0417,-3.0394,-3.0402,-3.0404,-3.0404,-3.0404,-3.0404,-3.0404,-3.0349,-3.0222,-3.0182,-3.0018,-2.9702,-2.9397,-2.9214,-2.9138,-2.9085,-2.8998,-2.8987,-2.8987,-2.8987,-2.8987,-2.8987,-2.8987,-2.8987,-2.8987,-2.8964,-2.8947,-2.8887,-2.8394,-2.7588,-2.6948,-2.6302,-2.5666,-2.5087,-2.4585,-2.404,-2.4,-2.3907,-2.4096,-2.4623,-2.5015,-2.5355,-2.5423,-2.5542,-2.6016,-2.6488,-2.652,-2.6417,-2.633,-2.6207,-4.614,-4.4611,-4.4973,-4.5191,-4.5272,-4.5495,-4.5594,-4.5594,-4.5594,-4.5594,-4.5594,-4.5594,-4.5594,-4.5594,-4.5594,-4.5594,-4.5594,-4.5594,-4.5594,-4.5594,-4.5614,-4.5748,-4.5951,-4.599,-4.6442,-4.7055,-4.7163,-4.7655,-4.8518,-4.8638,-4.8363,-4.782,-4.7577,-4.7196,-4.6591,-4.636,-4.6305,-4.6291,-4.6293,-4.6238,-4.6067,-4.552,-4.4935,-4.4681,-4.3454,-4.2967,-4.3183,-4.2129,-4.0876,-3.9747,-3.8182,-3.6428,-3.4776,-3.3741,-3.2218,-3.0766,-3.0623,-3.0618,-3.0615,-3.0601,-3.0578,-3.0506,-3.0491,-3.0476,-3.0414,-3.0417,-3.04,-3.0396,-3.039,-3.0404,-3.0404,-3.0404,-3.0398,-3.0398,-3.0317,-3.0189,-3.0018,-2.9643,-2.9445,-2.9373,-2.9192,-2.9033,-2.9067,-2.9044,-2.9021,-2.8987,-2.8987,-2.8987,-2.8987,-2.8987,-2.8987,-2.8964,-2.8959,-2.8265,-2.747,-2.6961,-2.626,-2.5179,-2.4773,-2.449,-2.394,-2.3889,-2.385,-2.4015,-2.4316,-2.4642,-2.4881,-2.5083,-2.5303,-2.5711,-2.6101,-2.6387,-2.6419,-2.6266,-2.6313,-4.6166,-4.5294,-4.501,-4.5019,-4.5222,-4.5485,-4.5594,-4.5594,-4.5594,-4.5594,-4.5594,-4.5594,-4.5594,-4.5594,-4.5594,-4.5594,-4.5594,-4.5594,-4.5594,-4.5594,-4.5594,-4.599,-4.6451,-4.6547,-4.695,-4.7677,-4.7771,-4.8329,-4.9236,-4.9349,-4.9279,-4.9192,-4.7999,-4.7432,-4.7192,-4.6591,-4.6321,-4.6305,-4.6291,-4.598,-4.5553,-4.5831,-4.5305,-4.4114,-4.4193,-4.402,-4.3709,-4.2675,-4.1367,-3.9882,-3.82,-3.6454,-3.4875,-3.3467,-3.2182,-3.1013,-3.0706,-3.0661,-3.0621,-3.0603,-3.0591,-3.0554,-3.0521,-3.0491,-3.0476,-3.0439,-3.0398,-3.0394,-3.0402,-3.0404,-3.0404,-3.0404,-3.0404,-3.0373,-3.0299,-3.0157,-3.0025,-2.9821,-2.9689,-2.9617,-2.9514,-2.9377,-2.928,-2.9217,-2.9171,-2.9055,-2.901,-2.8987,-2.8998,-2.8987,-2.8987,-2.8987,-2.8835,-2.8116,-2.7453,-2.698,-2.6144,-2.4861,-2.4501,-2.4668,-2.4257,-2.4056,-2.3981,-2.3963,-2.4469,-2.4822,-2.4911,-2.5032,-2.5286,-2.5557,-2.5829,-2.6151,-2.6084,-2.5983,-2.6282,-4.6036,-4.5428,-4.4864,-4.4788,-4.5052,-4.5341,-4.5514,-4.5586,-4.5594,-4.5594,-4.5594,-4.5594,-4.5594,-4.5594,-4.5594,-4.5594,-4.5594,-4.5594,-4.5594,-4.5594,-4.5594,-4.5855,-4.624,-4.6355,-4.6951,-4.8019,-4.8096,-4.8862,-4.9854,-5.0112,-5.0014,-4.9532,-4.8492,-4.7782,-4.7413,-4.6682,-4.6245,-4.6278,-4.6285,-4.6015,-4.5644,-4.6019,-4.5825,-4.4909,-4.4988,-4.4484,-4.3317,-4.2987,-4.2168,-4.0664,-3.9414,-3.7988,-3.5972,-3.4896,-3.3365,-3.1599,-3.1283,-3.1129,-3.0734,-3.0639,-3.0643,-3.0618,-3.0575,-3.0557,-3.0534,-3.0482,-3.043,-3.0398,-3.0394,-3.0402,-3.0404,-3.0404,-3.0404,-3.0398,-3.0299,-3.0221,-3.0176,-2.9996,-2.9888,-2.9807,-2.9713,-2.9607,-2.9484,-2.9436,-2.9306,-2.9195,-2.9149,-2.9071,-2.901,-2.898,-2.8895,-2.8785,-2.8546,-2.7875,-2.7156,-2.664,-2.6169,-2.492,-2.4239,-2.4439,-2.4647,-2.4391,-2.4262,-2.4319,-2.468,-2.4933,-2.5036,-2.5145,-2.5337,-2.5574,-2.5744,-2.5948,-2.6034,-2.6068,-2.6318,-4.5931,-4.534,-4.4687,-4.4533,-4.4776,-4.5052,-4.5282,-4.5457,-4.5457,-4.5495,-4.5522,-4.5559,-4.554,-4.5594,-4.5594,-4.5594,-4.5594,-4.5594,-4.5594,-4.5594,-4.5594,-4.5691,-4.5729,-4.5768,-4.6644,-4.7875,-4.8096,-4.9115,-5.021,-5.0739,-5.0457,-4.9836,-4.9039,-4.8243,-4.765,-4.6757,-4.6309,-4.6264,-4.6298,-4.6126,-4.597,-4.6108,-4.6049,-4.5719,-4.5452,-4.4538,-4.3547,-4.3238,-4.2909,-4.1387,-4.1191,-3.957,-3.7598,-3.7285,-3.5448,-3.288,-3.2035,-3.1615,-3.0901,-3.0715,-3.0711,-3.0672,-3.063,-3.062,-3.0595,-3.0559,-3.0516,-3.0456,-3.0419,-3.0422,-3.039,-3.0404,-3.0404,-3.0398,-3.0398,-3.0398,-3.0355,-3.0189,-3.0028,-3.0021,-2.9875,-2.9767,-2.9688,-2.9568,-2.9401,-2.8844,-2.8736,-2.8394,-2.8299,-2.8209,-2.8228,-2.8271,-2.7989,-2.7614,-2.6914,-2.6251,-2.579,-2.5082,-2.4306,-2.4275,-2.4976,-2.4897,-2.472,-2.48,-2.5276,-2.5394,-2.5264,-2.5381,-2.5433,-2.5523,-2.5642,-2.6066,-2.6421,-2.6387,-2.6503,-4.618,-4.5984,-4.4823,-4.4388,-4.4519,-4.4763,-4.4927,-4.4996,-4.4996,-4.5107,-4.5243,-4.5292,-4.541,-4.5586,-4.5586,-4.5594,-4.5594,-4.5594,-4.5594,-4.5594,-4.5594,-4.5594,-4.5594,-4.5594,-4.6537,-4.7702,-4.8077,-4.9029,-5.0288,-5.0634,-5.0715,-5.0492,-4.9644,-4.8987,-4.8252,-4.7508,-4.6741,-4.6303,-4.6282,-4.6005,-4.5656,-4.6007,-4.6007,-4.554,-4.5761,-4.5473,-4.4559,-4.396,-4.3201,-4.2128,-4.0918,-3.9707,-3.8418,-3.7187,-3.5488,-3.3672,-3.2519,-3.183,-3.0994,-3.0771,-3.0762,-3.072,-3.0687,-3.0672,-3.0669,-3.0661,-3.0632,-3.0575,-3.0509,-3.0472,-3.0425,-3.041,-3.0404,-3.0404,-3.0404,-3.0404,-3.0379,-3.0336,-3.0292,-3.0228,-3.0189,-3.0095,-2.985,-2.9268,-2.8946,-2.8557,-2.8091,-2.7587,-2.7537,-2.7594,-2.7704,-2.7919,-2.7446,-2.7053,-2.6337,-2.5721,-2.5334,-2.4992,-2.4391,-2.4247,-2.4942,-2.4998,-2.4659,-2.5142,-2.5952,-2.5802,-2.5155,-2.5259,-2.5248,-2.5403,-2.5575,-2.5897,-2.6219,-2.6387,-2.6572,-4.6204,-4.6136,-4.4718,-4.4221,-4.4397,-4.4519,-4.465,-4.4763,-4.4751,-4.4837,-4.5019,-4.5118,-4.5292,-4.5419,-4.5531,-4.5594,-4.5594,-4.5594,-4.5594,-4.5594,-4.5594,-4.5594,-4.5594,-4.5691,-4.6326,-4.7432,-4.7519,-4.8509,-4.9683,-5.0173,-5.0307,-5.0705,-4.9952,-4.9359,-4.8948,-4.8202,-4.7451,-4.6909,-4.6774,-4.6431,-4.5847,-4.6007,-4.6165,-4.5734,-4.6012,-4.5896,-4.5,-4.4129,-4.3294,-4.232,-4.117,-4.0078,-3.9336,-3.8281,-3.6641,-3.4394,-3.3672,-3.2441,-3.1402,-3.0853,-3.0851,-3.08,-3.0749,-3.076,-3.0732,-3.0717,-3.0703,-3.0646,-3.0613,-3.0564,-3.0472,-3.0408,-3.0396,-3.0404,-3.0404,-3.0404,-3.0404,-3.0404,-3.0379,-3.0348,-3.0317,-3.0228,-2.9907,-2.9239,-2.8814,-2.8555,-2.7832,-2.7372,-2.778,-2.78,-2.7624,-2.754,-2.7019,-2.6447,-2.5723,-2.5181,-2.4822,-2.4563,-2.4283,-2.4452,-2.503,-2.4797,-2.4428,-2.5025,-2.5553,-2.5102,-2.4627,-2.4827,-2.5225,-2.5454,-2.5659,-2.5812,-2.6049,-2.6421,-2.6556,-4.6172,-4.5958,-4.4624,-4.416,-4.4275,-4.4265,-4.4374,-4.4585,-4.4585,-4.4585,-4.4751,-4.4996,-4.5074,-4.5232,-4.5438,-4.555,-4.5586,-4.5594,-4.5594,-4.5594,-4.5594,-4.5594,-4.5633,-4.5883,-4.624,-4.6865,-4.7201,-4.8144,-4.9163,-4.9567,-5.0067,-5.0337,-5.0038,-4.9457,-4.9211,-4.8674,-4.7747,-4.6989,-4.6859,-4.6706,-4.6226,-4.6221,-4.621,-4.6223,-4.6204,-4.6028,-4.5288,-4.4473,-4.356,-4.2648,-4.1754,-4.0917,-4.0273,-3.9746,-3.8594,-3.5293,-3.4785,-3.3379,-3.168,-3.1035,-3.0898,-3.0898,-3.0835,-3.0808,-3.0801,-3.0771,-3.0751,-3.0723,-3.0673,-3.0597,-3.0511,-3.0446,-3.0402,-3.0404,-3.0404,-3.0404,-3.0404,-3.0404,-3.0404,-3.0404,-3.0367,-3.0311,-2.9902,-2.9334,-2.8942,-2.8439,-2.7663,-2.7214,-2.753,-2.7499,-2.7042,-2.6589,-2.5939,-2.5668,-2.5026,-2.486,-2.4483,-2.4381,-2.4167,-2.4574,-2.5025,-2.4882,-2.4635,-2.45,-2.4634,-2.449,-2.4734,-2.5227,-2.556,-2.5681,-2.5909,-2.6195,-2.6367,-2.6522,-2.6421,-4.6195,-4.5031,-4.4877,-4.448,-4.3952,-4.3961,-4.3974,-4.3958,-4.4048,-4.4166,-4.4369,-4.4493,-4.4812,-4.5096,-4.5222,-4.539,-4.5513,-4.5577,-4.5652,-4.5691,-4.571,-4.5729,-4.596,-4.6432,-4.6797,-4.7038,-4.7548,-4.849,-4.9356,-5.0067,-5.0067,-4.9856,-5.0183,-4.9894,-4.8927,-4.8221,-4.7715,-4.6771,-4.6491,-4.6275,-4.6106,-4.6121,-4.6187,-4.6273,-4.6278,-4.6184,-4.5931,-4.5215,-4.4379,-4.3521,-4.2651,-4.1755,-4.0858,-4.0195,-3.8867,-3.6973,-3.5449,-3.3965,-3.2168,-3.1269,-3.0996,-3.0898,-3.0879,-3.0879,-3.0879,-3.0859,-3.0828,-3.0765,-3.0686,-3.0575,-3.0507,-3.0462,-3.0411,-3.0396,-3.0404,-3.0404,-3.0404,-3.0404,-3.0404,-3.0404,-3.0379,-3.0219,-2.9715,-2.907,-2.8358,-2.7625,-2.6753,-2.6272,-2.6294,-2.6058,-2.558,-2.5114,-2.4653,-2.4513,-2.4328,-2.4365,-2.4263,-2.4327,-2.4296,-2.4622,-2.4936,-2.5037,-2.4954,-2.5034,-2.5018,-2.5015,-2.5331,-2.5618,-2.5825,-2.5899,-2.6249,-2.6543,-2.6144,-2.5778,-2.5762,-4.6103,-4.5401,-4.4626,-4.4105,-4.3824,-4.3769,-4.3769,-4.3804,-4.3767,-4.3878,-4.4091,-4.4275,-4.4493,-4.4776,-4.4962,-4.5148,-4.5371,-4.5559,-4.5836,-4.6144,-4.6278,-4.6547,-4.6778,-4.7346,-4.7798,-4.8182,-4.8663,-4.8952,-4.9375,-4.976,-5.0029,-5.024,-5.0529,-5.0221,-4.9548,-4.9073,-4.821,-4.7197,-4.6655,-4.6246,-4.5938,-4.6037,-4.6138,-4.6181,-4.6271,-4.63,-4.6126,-4.5464,-4.459,-4.3714,-4.2861,-4.1771,-4.0895,-4.033,-3.9511,-3.7539,-3.6055,-3.4394,-3.2539,-3.1426,-3.0937,-3.0918,-3.0937,-3.0918,-3.0918,-3.0898,-3.0898,-3.0832,-3.0746,-3.0647,-3.0617,-3.0509,-3.0453,-3.0451,-3.0422,-3.0402,-3.0404,-3.0404,-3.041,-3.041,-3.0379,-3.011,-2.945,-2.8697,-2.776,-2.683,-2.5939,-2.5577,-2.5365,-2.5215,-2.5001,-2.4841,-2.4604,-2.4375,-2.4284,-2.4247,-2.4228,-2.4265,-2.4417,-2.4734,-2.5168,-2.5407,-2.5699,-2.5909,-2.584,-2.5488,-2.5346,-2.542,-2.5764,-2.5974,-2.576,-2.5555,-2.5245,-2.5017,-2.507,-4.5901,-4.5476,-4.4316,-4.3798,-4.3738,-4.3651,-4.3651,-4.3703,-4.3651,-4.3682,-4.3865,-4.4075,-4.4265,-4.4443,-4.4676,-4.4919,-4.5148,-4.5342,-4.588,-4.658,-4.6743,-4.7204,-4.7885,-4.8375,-4.8663,-4.9048,-4.9567,-4.9548,-4.9471,-4.976,-5.0029,-5.0183,-5.0481,-5.0548,-5.0154,-4.9509,-4.8945,-4.805,-4.7372,-4.6614,-4.6075,-4.5969,-4.6045,-4.6064,-4.6184,-4.6247,-4.6147,-4.573,-4.4779,-4.3887,-4.2972,-4.1863,-4.0402,-4.0523,-3.9725,-3.7675,-3.6523,-3.4824,-3.3242,-3.1738,-3.1211,-3.0957,-3.1094,-3.1074,-3.0918,-3.0918,-3.0918,-3.0879,-3.079,-3.071,-3.0671,-3.06,-3.0537,-3.0511,-3.0467,-3.0425,-3.0428,-3.0411,-3.0419,-3.0408,-3.041,-3.0135,-2.961,-2.8579,-2.77,-2.705,-2.6178,-2.552,-2.5361,-2.5434,-2.5283,-2.5177,-2.4943,-2.4586,-2.4417,-2.4321,-2.4312,-2.4294,-2.4522,-2.4819,-2.5419,-2.5961,-2.6264,-2.6481,-2.6018,-2.5659,-2.544,-2.5316,-2.5671,-2.5659,-2.5023,-2.4633,-2.4533,-2.4601,-2.473,-4.5718,-4.3881,-4.4428,-4.4227,-4.3604,-4.3565,-4.3583,-4.3549,-4.36,-4.3615,-4.3684,-4.38,-4.4033,-4.4341,-4.47,-4.4826,-4.4868,-4.5102,-4.5703,-4.6579,-4.6746,-4.7317,-4.8193,-4.8952,-4.926,-4.9663,-5.0183,-5.0029,-4.9817,-5.0183,-5.0135,-4.9981,-5.0385,-5.0394,-4.9913,-4.9567,-4.8596,-4.7402,-4.7006,-4.6571,-4.6,-4.5867,-4.5883,-4.5944,-4.6025,-4.6112,-4.6138,-4.5894,-4.5273,-4.3855,-4.3611,-4.2308,-4.0437,-3.9934,-3.9058,-3.7655,-3.6465,-3.5527,-3.4238,-3.2754,-3.166,-3.1309,-3.1484,-3.1504,-3.1152,-3.0918,-3.0918,-3.0879,-3.0832,-3.0783,-3.0737,-3.0694,-3.0628,-3.0597,-3.0563,-3.0539,-3.0515,-3.0477,-3.0477,-3.0428,-3.0436,-3.0331,-3.0,-2.8791,-2.7698,-2.7072,-2.6455,-2.5753,-2.5338,-2.5381,-2.5378,-2.5203,-2.5073,-2.4729,-2.4599,-2.4485,-2.4426,-2.4392,-2.4838,-2.5109,-2.5593,-2.6222,-2.6717,-2.6745,-2.6245,-2.5837,-2.5605,-2.5578,-2.5715,-2.5448,-2.4929,-2.4431,-2.3994,-2.4147,-2.4296,-4.5553,-4.4176,-4.41,-4.3861,-4.3515,-4.3549,-4.3532,-4.3515,-4.3532,-4.3565,-4.3599,-4.3651,-4.383,-4.4162,-4.482,-4.4925,-4.4753,-4.511,-4.5988,-4.6723,-4.7118,-4.7873,-4.9175,-4.9836,-5.0125,-5.0154,-5.0442,-5.0519,-5.0346,-5.0404,-5.0423,-5.0269,-5.0481,-5.0577,-4.999,-4.9625,-4.9067,-4.8269,-4.7499,-4.6775,-4.6397,-4.6047,-4.5815,-4.5835,-4.5934,-4.5978,-4.602,-4.5998,-4.5227,-4.3909,-4.3568,-4.211,-4.0028,-3.9337,-3.9039,-3.7474,-3.6435,-3.5566,-3.4609,-3.3144,-3.2226,-3.1641,-3.1562,-3.1211,-3.0976,-3.0918,-3.0918,-3.0898,-3.0879,-3.084,-3.0801,-3.0734,-3.0695,-3.0655,-3.065,-3.0604,-3.0575,-3.0572,-3.0554,-3.0511,-3.0402,-3.0227,-2.9872,-2.8772,-2.7481,-2.6488,-2.603,-2.5587,-2.528,-2.5273,-2.5227,-2.5127,-2.499,-2.4811,-2.4753,-2.4678,-2.4602,-2.4742,-2.5644,-2.5855,-2.5926,-2.6381,-2.6702,-2.6779,-2.634,-2.6004,-2.5712,-2.542,-2.5207,-2.5049,-2.4885,-2.4295,-2.3715,-2.3415,-2.3702,-4.5131,-4.436,-4.3736,-4.3479,-4.3479,-4.3479,-4.3479,-4.3479,-4.3496,-4.3531,-4.3565,-4.3599,-4.3682,-4.3957,-4.4547,-4.4629,-4.4248,-4.5068,-4.6091,-4.6792,-4.734,-4.8192,-4.9296,-5.0167,-5.0276,-5.0575,-5.0596,-5.0625,-5.0654,-5.0693,-5.0673,-5.0683,-5.0654,-5.0654,-5.0519,-5.0135,-4.9586,-4.9106,-4.7663,-4.6951,-4.6718,-4.6105,-4.5843,-4.5773,-4.5816,-4.5856,-4.5881,-4.5905,-4.5094,-4.3792,-4.3463,-4.2034,-3.9565,-3.9036,-3.8592,-3.7312,-3.633,-3.5667,-3.4892,-3.3867,-3.2793,-3.207,-3.1484,-3.0996,-3.0957,-3.0918,-3.0918,-3.0918,-3.0918,-3.0898,-3.0898,-3.0801,-3.0768,-3.0735,-3.0718,-3.0684,-3.065,-3.0636,-3.062,-3.0556,-3.0365,-2.9979,-2.9468,-2.854,-2.7363,-2.6067,-2.5508,-2.5306,-2.528,-2.5267,-2.5228,-2.5182,-2.5082,-2.4974,-2.4941,-2.4872,-2.4805,-2.4955,-2.5843,-2.6172,-2.5947,-2.6051,-2.6313,-2.6311,-2.6118,-2.5583,-2.4947,-2.4795,-2.4629,-2.4462,-2.4254,-2.3903,-2.3467,-2.3219,-2.3726,-4.4323,-4.357,-4.3533,-4.3479,-4.3479,-4.3479,-4.3479,-4.3479,-4.3479,-4.3496,-4.3513,-4.3565,-4.3599,-4.374,-4.3987,-4.4105,-4.3851,-4.3941,-4.5183,-4.6012,-4.6307,-4.7565,-4.8875,-4.9574,-4.9671,-5.0221,-5.0493,-5.0624,-5.0683,-5.0683,-5.0683,-5.0683,-5.0683,-5.0683,-5.0654,-5.0471,-5.0067,-4.9433,-4.8048,-4.7173,-4.6836,-4.6275,-4.5744,-4.5662,-4.5734,-4.5821,-4.5808,-4.5834,-4.5099,-4.3502,-4.3379,-4.2155,-3.9785,-3.9021,-3.8268,-3.7186,-3.6404,-3.5875,-3.5342,-3.4659,-3.3711,-3.25,-3.1641,-3.1211,-3.1152,-3.0976,-3.0937,-3.0937,-3.0918,-3.0918,-3.0898,-3.0879,-3.0857,-3.0834,-3.0806,-3.0774,-3.0755,-3.0722,-3.0691,-3.0614,-3.0377,-3.0056,-2.9554,-2.875,-2.7687,-2.64,-2.5543,-2.534,-2.543,-2.5442,-2.5357,-2.5298,-2.5205,-2.5156,-2.5131,-2.5063,-2.494,-2.4933,-2.5442,-2.5549,-2.5429,-2.5645,-2.6011,-2.5549,-2.5267,-2.4741,-2.4369,-2.4393,-2.4316,-2.3959,-2.3707,-2.3682,-2.4147,-2.4416,-2.5136,-4.4232,-4.3515,-4.3479,-4.3479,-4.3479,-4.3479,-4.3479,-4.3479,-4.3479,-4.3479,-4.3479,-4.3532,-4.3566,-4.3727,-4.4203,-4.4145,-4.3832,-4.436,-4.5238,-4.5943,-4.6485,-4.7503,-4.8715,-4.9394,-4.9689,-5.0102,-5.0347,-5.0544,-5.0702,-5.0624,-5.0683,-5.0683,-5.0673,-5.0683,-5.0683,-5.0683,-5.0433,-5.0029,-4.9029,-4.8259,-4.7509,-4.6855,-4.6163,-4.5631,-4.5637,-4.5676,-4.5684,-4.5692,-4.4699,-4.3703,-4.3299,-4.1697,-3.9979,-3.9196,-3.8297,-3.7249,-3.6594,-3.6207,-3.5687,-3.5057,-3.4113,-3.3301,-3.2617,-3.2207,-3.1758,-3.168,-3.1348,-3.1152,-3.0918,-3.0918,-3.0918,-3.0898,-3.0898,-3.0918,-3.0897,-3.0873,-3.0848,-3.0817,-3.0762,-3.0699,-3.0517,-3.0263,-2.9722,-2.9124,-2.7982,-2.6834,-2.6034,-2.5413,-2.5484,-2.5535,-2.5436,-2.539,-2.531,-2.5222,-2.5191,-2.5125,-2.5063,-2.5065,-2.5096,-2.5132,-2.5188,-2.5458,-2.5633,-2.5065,-2.4624,-2.4355,-2.4202,-2.4174,-2.4049,-2.3847,-2.3829,-2.3887,-2.4521,-2.5387,-2.6186,-4.4011,-4.3516,-4.3479,-4.3479,-4.3479,-4.3479,-4.3479,-4.3479,-4.3479,-4.3479,-4.3479,-4.3496,-4.3532,-4.3767,-4.4097,-4.417,-4.3802,-4.4222,-4.5088,-4.5652,-4.6172,-4.7283,-4.841,-4.9058,-4.916,-4.9771,-5.0056,-5.0183,-5.0493,-5.0462,-5.0462,-5.0483,-5.0554,-5.0565,-5.0683,-5.0683,-5.0683,-5.0491,-4.9837,-4.899,-4.8086,-4.7278,-4.6451,-4.5748,-4.5612,-4.5612,-4.5505,-4.5291,-4.4454,-4.3477,-4.2687,-4.1689,-4.0429,-3.9342,-3.8612,-3.7727,-3.695,-3.6491,-3.5728,-3.4976,-3.436,-3.3828,-3.3398,-3.3027,-3.2695,-3.2363,-3.1816,-3.1445,-3.1152,-3.0918,-3.0918,-3.0918,-3.0918,-3.0918,-3.0918,-3.0897,-3.0895,-3.0871,-3.0842,-3.0785,-3.0636,-3.0523,-3.0103,-2.9483,-2.8264,-2.7228,-2.6472,-2.5813,-2.5499,-2.5517,-2.5458,-2.5431,-2.5422,-2.5315,-2.5203,-2.5168,-2.5101,-2.4999,-2.5003,-2.5013,-2.5099,-2.5337,-2.5253,-2.4755,-2.4385,-2.4123,-2.4042,-2.407,-2.3964,-2.3824,-2.4024,-2.4385,-2.521,-2.6068,-2.6645,-4.3534,-4.3479,-4.3479,-4.3479,-4.3479,-4.3479,-4.3479,-4.3479,-4.3479,-4.3479,-4.3479,-4.3479,-4.3479,-4.3533,-4.3716,-4.3642,-4.3642,-4.3752,-4.4542,-4.5588,-4.5823,-4.6689,-4.7679,-4.8455,-4.8727,-4.9177,-4.9522,-4.984,-5.0183,-5.005,-5.0062,-5.0171,-5.0272,-5.0421,-5.0673,-5.0683,-5.0683,-5.0567,-4.9865,-4.9125,-4.8298,-4.7509,-4.6682,-4.6028,-4.5652,-4.5614,-4.5498,-4.4902,-4.4105,-4.3275,-4.239,-4.1459,-4.0496,-3.9764,-3.9001,-3.8134,-3.7261,-3.6479,-3.5651,-3.4913,-3.4617,-3.4498,-3.4098,-3.3541,-3.326,-3.2754,-3.2168,-3.1797,-3.1348,-3.0976,-3.0918,-3.0918,-3.0918,-3.0918,-3.0918,-3.0918,-3.0917,-3.0916,-3.087,-3.0863,-3.0863,-3.0799,-3.0447,-2.983,-2.857,-2.7578,-2.6867,-2.6294,-2.5808,-2.5513,-2.5468,-2.5625,-2.5617,-2.5313,-2.5201,-2.5203,-2.515,-2.5012,-2.4946,-2.4974,-2.4929,-2.4975,-2.4781,-2.4424,-2.4293,-2.4183,-2.4058,-2.3966,-2.3995,-2.4142,-2.4719,-2.521,-2.6024,-2.6724,-2.7297,-4.325,-4.3479,-4.3479,-4.3479,-4.3479,-4.3479,-4.3479,-4.3479,-4.3479,-4.3479,-4.3479,-4.3479,-4.3479,-4.3479,-4.3479,-4.3497,-4.3588,-4.4232,-4.5039,-4.5755,-4.603,-4.7169,-4.809,-4.8383,-4.8556,-4.8992,-4.9302,-4.9449,-4.9733,-4.9641,-4.9692,-4.9821,-5.0024,-5.0399,-5.0614,-5.0683,-5.0683,-5.0673,-5.0327,-4.9856,-4.8971,-4.8125,-4.7278,-4.6432,-4.5922,-4.5614,-4.5518,-4.472,-4.3855,-4.3085,-4.2231,-4.1335,-4.065,-4.0035,-3.965,-3.8854,-3.8007,-3.692,-3.5971,-3.5264,-3.5256,-3.5071,-3.4703,-3.4215,-3.4107,-3.2862,-3.2383,-3.2031,-3.1406,-3.1035,-3.0918,-3.0898,-3.0898,-3.0918,-3.0918,-3.0918,-3.0918,-3.0917,-3.0895,-3.0893,-3.0911,-3.0866,-3.063,-3.0113,-2.9002,-2.7892,-2.714,-2.6655,-2.6189,-2.5712,-2.5479,-2.5781,-2.5822,-2.5431,-2.5236,-2.5405,-2.5426,-2.5342,-2.5171,-2.5051,-2.496,-2.4915,-2.4776,-2.466,-2.4449,-2.4283,-2.4174,-2.4132,-2.4299,-2.457,-2.5103,-2.5642,-2.6253,-2.7103,-2.7995,-4.2957,-4.3087,-4.3392,-4.341,-4.3339,-4.3427,-4.3479,-4.3479,-4.3479,-4.3479,-4.3479,-4.3479,-4.3479,-4.3479,-4.3479,-4.3479,-4.3606,-4.4342,-4.5131,-4.592,-4.6691,-4.7517,-4.8143,-4.8457,-4.8532,-4.8853,-4.8954,-4.9085,-4.9345,-4.9299,-4.9345,-4.9508,-4.9719,-4.9968,-5.0279,-5.0502,-5.0683,-5.0673,-5.051,-5.0173,-4.9336,-4.8509,-4.7682,-4.6855,-4.6163,-4.5594,-4.5287,-4.4586,-4.3662,-4.2931,-4.2047,-4.1162,-4.065,-4.04,-4.0073,-3.9323,-3.8104,-3.6925,-3.5855,-3.5477,-3.5472,-3.5538,-3.5173,-3.5043,-3.4714,-3.3516,-3.2883,-3.2348,-3.1499,-3.1055,-3.0879,-3.0857,-3.0879,-3.0898,-3.0898,-3.0898,-3.0918,-3.0918,-3.0917,-3.0916,-3.0914,-3.0871,-3.0746,-3.0168,-2.9443,-2.8405,-2.7398,-2.6958,-2.6482,-2.5914,-2.5481,-2.5697,-2.595,-2.5683,-2.5592,-2.5788,-2.5776,-2.565,-2.5607,-2.5564,-2.5297,-2.5278,-2.5071,-2.4891,-2.473,-2.4567,-2.4337,-2.4302,-2.4486,-2.4863,-2.5415,-2.5937,-2.6493,-2.7387,-2.8389,-4.2614,-4.236,-4.3105,-4.3214,-4.2995,-4.3339,-4.3479,-4.3479,-4.3479,-4.3516,-4.3571,-4.3552,-4.3571,-4.3571,-4.3534,-4.3479,-4.3736,-4.4433,-4.5204,-4.603,-4.6892,-4.7645,-4.8104,-4.8343,-4.8439,-4.8494,-4.8587,-4.8784,-4.9003,-4.8885,-4.8919,-4.9118,-4.9287,-4.9541,-4.9891,-5.0245,-5.0493,-5.0554,-5.0615,-5.0183,-4.9413,-4.8548,-4.7721,-4.6913,-4.6124,-4.5691,-4.5133,-4.4201,-4.3431,-4.2566,-4.1554,-4.0862,-4.0496,-4.0496,-3.9977,-3.9046,-3.7603,-3.6526,-3.5706,-3.5502,-3.549,-3.5574,-3.5577,-3.5667,-3.5152,-3.3955,-3.3035,-3.2489,-3.1785,-3.1224,-3.0799,-3.0832,-3.0859,-3.0879,-3.0879,-3.0898,-3.0918,-3.0918,-3.0918,-3.0917,-3.0916,-3.0855,-3.0732,-3.0274,-2.9542,-2.8616,-2.7642,-2.7037,-2.6521,-2.5834,-2.5499,-2.5473,-2.5697,-2.5877,-2.5973,-2.629,-2.6197,-2.6115,-2.6447,-2.6447,-2.6097,-2.5557,-2.5292,-2.5094,-2.5041,-2.4911,-2.4759,-2.469,-2.4696,-2.5189,-2.6048,-2.6136,-2.6656,-2.7676,-2.8543,-4.2011,-4.2218,-4.246,-4.2711,-4.2939,-4.3322,-4.3479,-4.3479,-4.3497,-4.379,-4.4323,-4.3736,-4.392,-4.4305,-4.3773,-4.3589,-4.403,-4.4764,-4.548,-4.6305,-4.7223,-4.7884,-4.8233,-4.8324,-4.8343,-4.8382,-4.8438,-4.8476,-4.8495,-4.8421,-4.8495,-4.8714,-4.9005,-4.9246,-4.9472,-4.9825,-5.0068,-5.0259,-5.0389,-5.0048,-4.9337,-4.8462,-4.7673,-4.6894,-4.6067,-4.5691,-4.521,-4.4028,-4.3316,-4.2816,-4.142,-4.0573,-4.0496,-4.0439,-3.9996,-3.8469,-3.7315,-3.6365,-3.5673,-3.5494,-3.5489,-3.5496,-3.5532,-3.5614,-3.5066,-3.405,-3.2866,-3.2505,-3.1758,-3.0975,-3.073,-3.0768,-3.0804,-3.0828,-3.0852,-3.0859,-3.0879,-3.0898,-3.0898,-3.0918,-3.0917,-3.0895,-3.0754,-3.0164,-2.9416,-2.8613,-2.7925,-2.7309,-2.672,-2.6093,-2.5945,-2.5947,-2.5757,-2.6015,-2.6573,-2.6951,-2.6737,-2.6631,-2.7122,-2.7115,-2.6173,-2.5689,-2.5448,-2.5488,-2.5716,-2.5571,-2.5281,-2.5329,-2.5588,-2.626,-2.6999,-2.6819,-2.691,-2.7876,-2.8563,-4.1561,-4.1731,-4.2053,-4.2458,-4.2955,-4.3488,-4.3815,-4.3957,-4.3975,-4.4433,-4.5057,-4.4709,-4.4727,-4.5057,-4.4709,-4.4397,-4.4176,-4.5571,-4.6269,-4.625,-4.7553,-4.8049,-4.8306,-4.8324,-4.8324,-4.8343,-4.8289,-4.8179,-4.8031,-4.7958,-4.7997,-4.855,-4.8854,-4.8903,-4.905,-4.9299,-4.9344,-4.9479,-4.9575,-4.9616,-4.9037,-4.8183,-4.7423,-4.6827,-4.6028,-4.5691,-4.5441,-4.4143,-4.3528,-4.3047,-4.1604,-4.0843,-4.0662,-4.0439,-3.9727,-3.8354,-3.7661,-3.6635,-3.5788,-3.55,-3.5501,-3.5495,-3.5489,-3.5534,-3.4928,-3.3926,-3.3309,-3.2808,-3.1595,-3.0659,-3.0667,-3.068,-3.0724,-3.0762,-3.0796,-3.0827,-3.0859,-3.0879,-3.0898,-3.0918,-3.0917,-3.0915,-3.0581,-2.9973,-2.948,-2.9007,-2.8517,-2.7967,-2.7366,-2.6768,-2.6795,-2.6965,-2.653,-2.63,-2.6969,-2.7651,-2.753,-2.7699,-2.8383,-2.8033,-2.6663,-2.6421,-2.6791,-2.6734,-2.6594,-2.642,-2.6274,-2.6519,-2.6839,-2.7366,-2.7586,-2.7412,-2.7409,-2.7894,-2.8419,-4.1342,-4.1116,-4.1884,-4.2468,-4.2915,-4.3658,-4.4196,-4.4656,-4.4766,-4.5278,-4.5883,-4.5883,-4.581,-4.5902,-4.5645,-4.5259,-4.5314,-4.6232,-4.6617,-4.6067,-4.7553,-4.8288,-4.8324,-4.8324,-4.8324,-4.8324,-4.8251,-4.8105,-4.748,-4.7407,-4.7775,-4.8439,-4.8532,-4.8532,-4.8471,-4.8656,-4.8496,-4.8036,-4.8202,-4.8322,-4.8239,-4.7555,-4.6809,-4.6569,-4.6049,-4.5575,-4.5364,-4.471,-4.3855,-4.3066,-4.2124,-4.1162,-4.0758,-4.0054,-3.915,-3.8334,-3.7546,-3.6661,-3.5827,-3.55,-3.55,-3.5488,-3.5488,-3.5502,-3.4937,-3.4116,-3.3566,-3.3127,-3.2077,-3.1235,-3.1075,-3.0788,-3.0684,-3.0694,-3.0717,-3.0758,-3.0796,-3.0829,-3.0856,-3.0877,-3.0898,-3.0878,-3.0739,-3.017,-2.962,-2.9342,-2.9084,-2.8576,-2.8258,-2.7654,-2.7618,-2.7892,-2.7382,-2.7142,-2.7961,-2.8483,-2.8439,-2.8762,-2.9296,-2.8817,-2.7331,-2.7599,-2.8363,-2.7866,-2.73,-2.7487,-2.7502,-2.7746,-2.7823,-2.7754,-2.7901,-2.7882,-2.8022,-2.83,-2.8407,-4.1819,-4.1788,-4.2356,-4.2512,-4.2463,-4.3143,-4.3784,-4.4357,-4.552,-4.626,-4.6635,-4.625,-4.625,-4.6654,-4.6195,-4.5755,-4.5847,-4.6452,-4.6874,-4.6966,-4.7773,-4.8177,-4.8306,-4.8269,-4.8306,-4.8324,-4.8269,-4.8031,-4.781,-4.7553,-4.748,-4.8271,-4.8327,-4.8181,-4.7758,-4.7862,-4.7449,-4.6723,-4.6588,-4.6706,-4.662,-4.6725,-4.6384,-4.5956,-4.5429,-4.5519,-4.5152,-4.4201,-4.3566,-4.2893,-4.1527,-4.0816,-4.0516,-3.9342,-3.8546,-3.7911,-3.6988,-3.6192,-3.575,-3.55,-3.55,-3.55,-3.5481,-3.5488,-3.5142,-3.4379,-3.3805,-3.3388,-3.2807,-3.2024,-3.1413,-3.1041,-3.0719,-3.0701,-3.0645,-3.0677,-3.0724,-3.077,-3.0808,-3.0834,-3.0878,-3.082,-3.0702,-3.0387,-2.9817,-2.9559,-2.9516,-2.9319,-2.9319,-2.8939,-2.8535,-2.8597,-2.8152,-2.8143,-2.8957,-2.9155,-2.9018,-2.9028,-2.9404,-2.8774,-2.7981,-2.83,-2.8695,-2.8325,-2.7981,-2.8277,-2.8605,-2.8979,-2.8964,-2.8615,-2.8501,-2.8586,-2.8562,-2.8755,-2.87,-4.0767,-4.0573,-4.114,-4.1595,-4.2001,-4.2721,-4.3337,-4.4052,-4.5665,-4.6573,-4.6921,-4.6909,-4.704,-4.7149,-4.6599,-4.5883,-4.5828,-4.6599,-4.6324,-4.6489,-4.7553,-4.7865,-4.8049,-4.814,-4.8288,-4.8269,-4.7535,-4.7297,-4.7865,-4.7223,-4.6966,-4.7957,-4.8069,-4.7647,-4.7132,-4.6911,-4.6321,-4.5584,-4.5228,-4.5078,-4.5172,-4.5401,-4.5693,-4.531,-4.5381,-4.5386,-4.4855,-4.397,-4.3355,-4.2335,-4.0854,-4.0477,-3.9996,-3.9008,-3.82,-3.77,-3.693,-3.5885,-3.5635,-3.55,-3.55,-3.55,-3.55,-3.5488,-3.5488,-3.4802,-3.4462,-3.4029,-3.32,-3.242,-3.2169,-3.1835,-3.1452,-3.1288,-3.0888,-3.0645,-3.068,-3.073,-3.0742,-3.0767,-3.0803,-3.0815,-3.076,-3.0761,-3.0309,-3.0303,-3.0202,-3.008,-3.008,-2.9983,-2.9641,-2.9318,-2.8897,-2.9072,-2.9811,-2.9775,-2.9442,-2.9508,-2.9568,-2.949,-2.9198,-2.9008,-2.8918,-2.8887,-2.8988,-2.926,-2.9619,-2.976,-2.972,-2.9358,-2.9325,-2.9401,-2.9299,-2.9115,-2.8957,-3.9388,-3.8893,-3.9618,-4.0428,-4.1397,-4.2261,-4.2811,-4.3408,-4.5114,-4.5928,-4.5952,-4.6913,-4.7274,-4.7278,-4.6946,-4.603,-4.5902,-4.6984,-4.6397,-4.625,-4.7461,-4.7645,-4.7755,-4.7901,-4.8048,-4.7645,-4.6819,-4.7095,-4.7609,-4.6617,-4.6361,-4.7535,-4.7424,-4.6874,-4.6599,-4.6012,-4.5167,-4.4688,-4.4314,-4.4001,-4.4138,-4.4412,-4.4778,-4.5055,-4.5141,-4.4916,-4.4423,-4.3758,-4.3047,-4.2003,-4.0545,-4.0087,-3.9536,-3.8657,-3.799,-3.7368,-3.6672,-3.5938,-3.5647,-3.55,-3.55,-3.55,-3.55,-3.55,-3.55,-3.5321,-3.4982,-3.45,-3.3693,-3.3181,-3.2932,-3.2411,-3.2029,-3.1652,-3.113,-3.0655,-3.0694,-3.0711,-3.0716,-3.0699,-3.0732,-3.0776,-3.0812,-3.0839,-3.0859,-3.0894,-3.0888,-3.0845,-3.0745,-3.0529,-3.027,-2.9994,-2.9677,-3.0051,-3.0406,-3.0173,-2.968,-2.9817,-2.99,-3.0234,-3.0346,-2.9899,-2.9729,-2.9914,-3.0047,-2.9957,-2.9994,-3.0059,-3.0,-2.9878,-2.9851,-2.9756,-2.9542,-2.9367,-2.9163,-3.9612,-3.956,-4.0359,-4.0631,-4.0775,-4.1685,-4.2039,-4.2049,-4.2966,-4.3417,-4.3738,-4.4265,-4.5162,-4.7038,-4.6731,-4.6148,-4.5956,-4.7093,-4.7351,-4.7149,-4.7425,-4.7406,-4.7351,-4.7388,-4.7681,-4.7113,-4.6361,-4.625,-4.6691,-4.5736,-4.5406,-4.6397,-4.6361,-4.581,-4.5131,-4.4544,-4.4065,-4.368,-4.3258,-4.2869,-4.3104,-4.3467,-4.396,-4.4111,-4.4037,-4.379,-4.3342,-4.2615,-4.2192,-4.1544,-4.0626,-3.9827,-3.9047,-3.8191,-3.738,-3.681,-3.6119,-3.5749,-3.5434,-3.5439,-3.5446,-3.55,-3.55,-3.55,-3.55,-3.5481,-3.5245,-3.5136,-3.448,-3.4085,-3.3669,-3.2671,-3.2101,-3.1792,-3.1359,-3.0976,-3.0808,-3.078,-3.0753,-3.0697,-3.0669,-3.0726,-3.0774,-3.0811,-3.0838,-3.0859,-3.0894,-3.0851,-3.0823,-3.0803,-3.0801,-3.0566,-3.0294,-3.0001,-2.9935,-3.0066,-2.9835,-3.0002,-3.0175,-3.0404,-3.0535,-3.0492,-3.0416,-3.0334,-3.0286,-3.0184,-3.0234,-3.0232,-3.0183,-3.0072,-3.0109,-3.0038,-2.9817,-2.9598,-2.9414]},{"header":{"parameterUnit":"m.s-1","parameterCategory":1,"la1":31.0,"la2":29.5877,"lo1":-88.7671,"lo2":-86.6584,"dy":0.0162,"dx":0.0185,"nx":115,"ny":88,"refTime":"2023-05-02T00:00:00:Z","depth":0,"parameterNumber":3,"parameterNumberName":"V-component_of_WINDS"},"data":[0.0,0.0,0.0,0.0,0.0,0.0,0.0,0.0,0.0,0.0,0.0,0.0,0.0,0.0,0.0,0.0,0.0,0.0,0.0,0.0,0.0,0.0,0.0,0.0,0.0,0.0,0.0,0.0,0.0,0.0,0.0,0.0,0.0,0.0,0.0,0.0,0.0,0.0,0.0,0.0,0.0,0.0,0.0,0.0,0.0,0.0,0.0,0.0,0.0,0.0,0.0,0.0,0.0,0.0,0.0,0.0,0.0,0.0,0.0,0.0,0.0,0.0,0.0,0.0,0.0,0.0,0.0,0.0,0.0,0.0,0.0,0.0,0.0,0.0,0.0,0.0,0.0,0.0,0.0,0.0,0.0,0.0,0.0,0.0,0.0,0.0,0.0,0.0,0.0,0.0,0.0,0.0,0.0,0.0,0.0,0.0,0.0,0.0,0.0,0.0,0.0,0.0,0.0,0.0,0.0,0.0,0.0,0.0,0.0,0.0,0.0,0.0,0.0,0.0,0.0,0.0,0.0,0.0,0.0,0.0,0.0,0.0,0.0,0.0,0.0,0.0,0.0,0.0,0.0,0.0,0.0,0.0,0.0,0.0,0.0,0.0,0.0,0.0,0.0,0.0,0.0,0.0,0.0,0.0,0.0,0.0,0.0,0.0,0.0,0.0,0.0,0.0,0.0,0.0,0.0,0.0,0.0,0.0,0.0,0.0,0.0,0.0,0.0,0.0,0.0,0.0,0.0,0.0,0.0,0.0,0.0,0.0,0.0,0.0,0.0,0.0,0.0,0.0,0.0,0.0,0.0,0.0,0.0,0.0,0.0,0.0,0.0,0.0,0.0,0.0,0.0,0.0,0.0,0.0,0.0,0.0,0.0,0.0,0.0,0.0,0.0,0.0,0.0,0.0,0.0,0.0,0.0,0.0,0.0,0.0,0.0,0.0,0.0,0.0,0.0,0.0,0.0,0.0,0.0,0.0,0.0,0.0,0.0,0.0,0.0,0.0,0.0,0.0,0.0,0.0,0.0,0.0,0.0,0.0,0.0,0.0,0.0,0.0,0.0,0.0,0.0,0.0,0.0,0.0,0.0,0.0,0.0,0.0,0.0,0.0,0.0,0.0,0.0,0.0,0.0,0.0,0.0,0.0,0.0,0.0,0.0,0.0,0.0,0.0,0.0,0.0,0.0,0.0,0.0,0.0,0.0,0.0,0.0,0.0,0.0,0.0,0.0,0.0,0.0,0.0,0.0,0.0,0.0,0.0,0.0,0.0,0.0,0.0,0.0,0.0,0.0,0.0,0.0,0.0,0.0,0.0,0.0,0.0,0.0,0.0,0.0,0.0,0.0,0.0,0.0,0.0,0.0,0.0,0.0,0.0,0.0,0.0,0.0,0.0,0.0,0.0,0.0,0.0,0.0,0.0,0.0,0.0,0.0,0.0,0.0,0.0,0.0,0.0,0.0,0.0,0.0,0.0,0.0,0.0,0.0,0.0,0.0,0.0,0.0,0.0,0.0,0.0,0.0,0.0,0.0,0.0,0.0,0.0,0.0,0.0,0.0,0.0,0.0,0.0,0.0,0.0,0.0,0.0,0.0,0.0,0.0,0.0,0.0,0.0,0.0,0.0,0.0,0.0,0.0,0.0,0.0,0.0,0.0,0.0,0.0,0.0,0.0,0.0,0.0,0.0,0.0,0.0,0.0,0.0,0.0,0.0,0.0,0.0,0.0,0.0,0.0,0.0,0.0,0.0,0.0,0.0,0.0,0.0,0.0,0.0,0.0,0.0,0.0,0.0,0.0,0.0,0.0,0.0,0.0,0.0,0.0,0.0,0.0,0.0,0.0,0.0,0.0,0.0,0.0,0.0,0.0,0.0,0.0,0.0,0.0,0.0,0.0,0.0,0.0,0.0,0.0,0.0,0.0,0.0,0.0,0.0,0.0,0.0,0.0,0.0,0.0,0.0,0.0,0.0,0.0,0.0,0.0,0.0,0.0,0.0,0.0,0.0,0.0,0.0,0.0,0.0,0.0,0.0,0.0,0.0,0.0,0.0,0.0,0.0,0.0,0.0,0.0,0.0,0.0,0.0,0.0,0.0,0.0,0.0,0.0,0.0,0.0,0.0,0.0,0.0,0.0,0.0,0.0,0.0,0.0,0.0,0.0,0.0,0.0,0.0,0.0,0.0,0.0,0.0,0.0,0.0,0.0,0.0,0.0,0.0,0.0,0.0,0.0,0.0,0.0,0.0,0.0,0.0,0.0,0.0,0.0,0.0,0.0,0.0,0.0,0.0,0.0,0.0,0.0,0.0,0.0,0.0,0.0,0.0,0.0,0.0,0.0,0.0,0.0,0.0,0.0,0.0,0.0,0.0,0.0,0.0,0.0,0.0,0.0,0.0,0.0,0.0,0.0,0.0,0.0,0.0,0.0,0.0,0.0,0.0,0.0,0.0,0.0,0.0,0.0,0.0,0.0,0.0,0.0,0.0,0.0,0.0,0.0,0.0,0.0,0.0,0.0,0.0,0.0,0.0,0.0,0.0,0.0,0.0,0.0,0.0,0.0,0.0,0.0,0.0,0.0,0.0,0.0,0.0,0.0,0.0,0.0,0.0,0.0,0.0,0.0,0.0,0.0,0.0,0.0,0.0,0.0,0.0,0.0,0.0,0.0,0.0,0.0,0.0,0.0,0.0,0.0,0.0,0.0,0.0,0.0,0.0,0.0,0.0,0.0,0.0,0.0,0.0,0.0,0.0,0.0,0.0,0.0,0.0,0.0,0.0,0.0,0.0,0.0,0.0,0.0,0.0,0.0,0.0,0.0,0.0,0.0,0.0,0.0,0.0,0.0,0.0,0.0,0.0,0.0,0.0,0.0,0.0,0.0,0.0,0.0,0.0,0.0,0.0,0.0,0.0,0.0,0.0,0.0,0.0,0.0,0.0,0.0,0.0,0.0,0.0,0.0,0.0,0.0,0.0,0.0,0.0,0.0,0.0,0.0,0.0,0.0,0.0,0.0,0.0,0.0,0.0,0.0,0.0,0.0,0.0,0.0,0.0,0.0,0.0,0.0,0.0,0.0,0.0,0.0,0.0,0.0,0.0,0.0,0.0,0.0,0.0,0.0,0.0,0.0,0.0,0.0,0.0,0.0,0.0,0.0,0.0,0.0,0.0,0.0,0.0,0.0,0.0,0.0,0.0,0.0,0.0,0.0,0.0,0.0,0.0,0.0,0.0,0.0,0.0,0.0,0.0,0.0,0.0,0.0,0.0,0.0,0.0,0.0,0.0,0.0,0.0,0.0,0.0,0.0,0.0,0.0,0.0,0.0,0.0,0.0,0.0,0.0,0.0,0.0,0.0,0.0,0.0,0.0,0.0,0.0,0.0,0.0,0.0,0.0,0.0,0.0,0.0,0.0,0.0,0.0,0.0,0.0,0.0,0.0,0.0,0.0,0.0,0.0,0.0,0.0,0.0,0.0,0.0,0.0,0.0,0.0,0.0,0.0,0.0,0.0,0.0,0.0,0.0,0.0,0.0,0.0,0.0,0.0,0.0,0.0,0.0,0.0,0.0,0.0,0.0,0.0,0.0,0.0,0.0,0.0,0.0,0.0,0.0,0.0,0.0,0.0,0.0,0.0,0.0,0.0,0.0,0.0,0.0,0.0,0.0,0.0,0.0,0.0,0.0,0.0,0.0,0.0,0.0,0.0,0.0,0.0,0.0,0.0,0.0,0.0,0.0,0.0,0.0,0.0,0.0,0.0,0.0,0.0,0.0,0.0,0.0,0.0,0.0,0.0,0.0,0.0,0.0,0.0,0.0,0.0,0.0,0.0,0.0,0.0,0.0,0.0,0.0,0.0,0.0,0.0,0.0,0.0,0.0,0.0,0.0,0.0,0.0,0.0,0.0,0.0,0.0,0.0,0.0,0.0,0.0,0.0,0.0,0.0,0.0,0.0,0.0,0.0,0.0,0.0,0.0,0.0,0.0,0.0,0.0,0.0,0.0,0.0,0.0,0.0,0.0,0.0,0.0,0.0,0.0,0.0,0.0,0.0,0.0,0.0,0.0,0.0,0.0,0.0,0.0,0.0,0.0,0.0,0.0,0.0,0.0,0.0,0.0,0.0,0.0,0.0,0.0,0.0,0.0,0.0,0.0,0.0,0.0,0.0,0.0,0.0,0.0,0.0,0.0,0.0,0.0,0.0,0.0,0.0,0.0,0.0,0.0,0.0,0.0,0.0,0.0,0.0,0.0,0.0,0.0,0.0,0.0,0.0,0.0,0.0,0.0,-0.8199,0.0,0.0,0.0,0.0,0.0,0.0,0.0,0.0,0.0,0.0,0.0,0.0,0.0,0.0,0.0,0.0,0.0,0.0,0.0,0.0,0.0,0.0,0.0,0.0,0.0,0.0,0.0,0.0,0.0,0.0,0.0,0.0,0.0,0.0,0.0,0.0,0.0,0.0,0.0,0.0,0.0,0.0,0.0,0.0,0.0,0.0,0.0,0.0,0.0,0.0,0.0,0.0,0.0,0.0,0.0,0.0,0.0,0.0,0.0,0.0,0.0,0.0,0.0,0.0,0.0,0.0,0.0,0.0,0.0,0.0,0.0,0.0,0.0,0.0,0.0,0.0,0.0,0.0,0.0,0.0,0.0,0.0,0.0,0.0,0.0,0.0,0.0,0.0,0.0,0.0,0.0,0.0,0.0,0.0,0.0,0.0,0.0,0.0,0.0,0.0,0.0,0.0,0.0,0.0,0.0,0.0,0.0,0.0,0.0,0.0,-0.5518,-0.575,-0.7015,-0.7893,-0.8266,0.0,0.0,0.0,0.0,0.0,0.0,0.0,0.0,0.0,0.0,0.0,0.0,0.0,0.0,0.0,0.0,0.0,0.0,0.0,0.0,0.0,0.0,0.0,0.0,0.0,0.0,0.0,0.0,0.0,0.0,0.0,0.0,0.0,0.0,0.0,0.0,0.0,0.0,0.0,0.0,0.0,0.0,0.0,0.0,0.0,0.0,0.0,0.0,0.0,0.0,0.0,0.0,0.0,0.0,0.0,0.0,0.0,0.0,0.0,0.0,0.0,0.0,0.0,0.0,0.0,0.0,0.0,0.0,0.0,0.0,0.0,0.0,0.0,0.0,0.0,0.0,0.0,0.0,0.0,0.0,0.0,0.0,0.0,0.0,0.0,0.0,0.0,0.0,0.0,0.0,0.0,0.0,0.0,0.0,0.0,0.0,0.0,0.0,0.0,0.0,0.0,0.0,0.0,0.0,0.0,0.0,0.0,0.0,0.0,0.0,0.0,0.0,-0.7029,-0.7925,-0.9087,0.0,0.0,0.0,0.0,0.0,0.0,0.0,0.0,0.0,0.0,0.0,0.0,0.0,0.0,0.0,0.0,0.0,0.0,0.0,0.0,0.0,0.0,0.0,0.0,0.0,0.0,0.0,0.0,0.0,0.0,0.0,0.0,0.0,0.0,0.0,0.0,0.0,0.0,0.0,0.0,0.0,0.0,0.0,0.0,0.0,0.0,0.0,0.0,0.0,0.0,0.0,0.0,0.0,0.0,0.0,0.0,0.0,0.0,0.0,0.0,0.0,0.0,0.0,0.0,0.0,0.0,0.0,0.0,0.0,0.0,0.0,0.0,0.0,0.0,0.0,0.0,0.0,0.0,0.0,0.0,0.0,0.0,0.0,0.0,0.0,0.0,0.0,0.0,0.0,0.0,0.0,0.0,0.0,0.0,0.0,0.0,0.0,0.0,0.0,0.0,0.0,0.0,0.0,0.0,0.0,0.0,0.0,0.0,0.0,0.0,-0.6318,-0.8434,-0.8736,0.0,-1.1131,0.0,0.0,0.0,0.0,0.0,0.0,0.0,0.0,0.0,0.0,0.0,0.0,0.0,0.0,0.0,0.0,0.0,0.0,0.0,0.0,0.0,0.0,0.0,0.0,0.0,0.0,0.0,0.0,0.0,0.0,0.0,0.0,0.0,0.0,0.0,0.0,0.0,0.0,0.0,0.0,0.0,0.0,0.0,0.0,0.0,0.0,0.0,0.0,0.0,0.0,0.0,0.0,0.0,0.0,0.0,0.0,0.0,0.0,0.0,0.0,0.0,0.0,0.0,0.0,0.0,0.0,0.0,0.0,0.0,0.0,0.0,0.0,0.0,0.0,0.0,0.0,0.0,0.0,0.0,0.0,0.0,0.0,0.0,0.0,0.0,0.0,0.0,0.0,0.0,0.0,0.0,0.0,0.0,0.0,0.0,0.0,0.0,0.0,0.0,0.0,0.0,0.0,0.0,0.0,0.0,0.0,0.0,0.0,0.0,0.0,-0.6823,-0.8438,-0.9266,-1.0028,0.0,0.0,0.0,0.0,0.0,0.0,0.0,0.0,0.0,0.0,0.0,0.0,0.0,0.0,0.0,0.0,0.0,0.0,0.0,0.0,0.0,0.0,0.0,0.0,0.0,0.0,0.0,0.0,0.0,0.0,0.0,0.0,0.0,0.0,0.0,0.0,0.0,0.0,0.0,0.0,0.0,0.0,0.0,0.0,0.0,0.0,0.0,0.0,0.0,0.0,0.0,0.0,0.0,0.0,0.0,0.0,0.0,0.0,0.0,0.0,0.0,0.0,0.0,0.0,0.0,0.0,0.0,0.0,0.0,0.0,0.0,0.0,0.0,0.0,0.0,0.0,0.0,0.0,0.0,0.0,0.0,0.0,0.0,0.0,0.0,0.0,0.0,0.0,0.0,0.0,0.0,0.0,0.0,0.0,0.0,0.0,0.0,0.0,0.0,0.0,0.0,0.0,0.0,0.0,0.0,0.0,0.0,0.0,0.0,0.0,-0.682,-0.7427,-0.8861,-0.963,-1.0169,-1.0412,0.0,0.0,0.0,0.0,0.0,0.0,0.0,0.0,0.0,0.0,0.0,0.0,0.0,0.0,0.0,0.0,0.0,0.0,0.0,0.0,0.0,0.0,0.0,0.0,0.0,0.0,0.0,0.0,0.0,0.0,0.0,0.0,0.0,0.0,0.0,0.0,0.0,0.0,0.0,0.0,0.0,0.0,0.0,0.0,0.0,0.0,0.0,0.0,0.0,0.0,0.0,0.0,0.0,0.0,0.0,0.0,0.0,0.0,0.0,0.0,0.0,0.0,0.0,0.0,0.0,0.0,0.0,0.0,0.0,0.0,0.0,0.0,0.0,0.0,0.0,0.0,0.0,0.0,0.0,0.0,0.0,0.0,0.0,0.0,0.0,0.0,0.0,0.0,0.0,0.0,0.0,0.0,0.0,0.0,0.0,0.0,0.0,0.0,0.0,0.0,0.0,0.0,0.0,0.0,0.0,0.0,0.0,0.0,-0.92,-0.7881,-0.8266,-1.0546,-1.0182,-1.0233,0.0,0.0,0.0,0.0,0.0,0.0,0.0,0.0,0.0,0.0,0.0,0.0,0.0,0.0,0.0,0.0,0.0,0.0,0.0,0.0,0.0,0.0,0.0,0.0,0.0,0.0,0.0,0.0,0.0,0.0,0.0,0.0,0.0,0.0,0.0,0.0,0.0,0.0,0.0,0.0,0.0,0.0,0.0,0.0,0.0,0.0,0.0,0.0,0.0,0.0,0.0,0.0,0.0,0.0,0.0,0.0,0.0,0.0,0.0,0.0,0.0,0.0,0.0,0.0,0.0,0.0,0.0,0.0,0.0,0.0,0.0,0.0,0.0,0.0,0.0,0.0,0.0,0.0,0.0,0.0,0.0,0.0,0.0,0.0,0.0,0.0,0.0,0.0,0.0,0.0,0.0,0.0,0.0,0.0,0.0,0.0,0.0,0.0,0.0,0.0,0.0,0.0,0.0,0.0,0.0,0.0,0.0,0.0,0.0,-0.7731,-0.8539,-0.9466,-1.062,-1.043,-1.0458,0.0,0.0,0.0,0.0,0.0,0.0,0.0,0.0,0.0,0.0,0.0,0.0,0.0,0.0,0.0,0.0,0.0,0.0,0.0,0.0,0.0,0.0,0.0,0.0,0.0,0.0,0.0,0.0,0.0,0.0,0.0,0.0,0.0,0.0,0.0,0.0,0.0,0.0,0.0,0.0,0.0,0.0,0.0,0.0,0.0,0.0,0.0,0.0,0.0,0.0,0.0,0.0,0.0,0.0,0.0,0.0,0.0,0.0,0.0,0.0,0.0,0.0,0.0,0.0,0.0,0.0,0.0,0.0,0.0,0.0,0.0,0.0,0.0,0.0,0.0,0.0,0.0,0.0,0.0,0.0,0.0,0.0,0.0,0.0,0.0,0.0,0.0,0.0,0.0,0.0,0.0,0.0,0.0,0.0,0.0,0.0,0.0,0.0,0.0,0.0,0.0,0.0,0.0,0.0,0.0,0.0,0.0,0.0,0.0,-0.7794,0.0,-1.0737,-1.0812,-1.0672,-1.0485,0.0,0.0,0.0,0.0,0.0,0.0,0.0,0.0,0.0,0.0,0.0,0.0,0.0,0.0,0.0,0.0,0.0,0.0,0.0,0.0,0.0,0.0,0.0,0.0,0.0,0.0,0.0,0.0,0.0,0.0,0.0,0.0,0.0,0.0,0.0,0.0,0.0,0.0,0.0,0.0,0.0,0.0,0.0,0.0,0.0,0.0,0.0,0.0,0.0,0.0,0.0,0.0,0.0,0.0,0.0,0.0,0.0,0.0,0.0,0.0,0.0,0.0,0.0,0.0,0.0,0.0,0.0,0.0,0.0,0.0,0.0,0.0,0.0,0.0,0.0,0.0,0.0,0.0,0.0,0.0,0.0,0.0,0.0,0.0,0.0,0.0,0.0,0.0,0.0,0.0,0.0,0.0,0.0,0.0,0.0,0.0,0.0,0.0,0.0,0.0,0.0,0.0,0.0,0.0,0.0,0.0,0.0,0.0,-0.7109,-0.9777,-1.1412,-1.1946,-1.1327,-1.0833,-1.0309,0.0,0.0,0.0,0.0,0.0,0.0,0.0,0.0,0.0,0.0,0.0,0.0,0.0,0.0,0.0,0.0,0.0,0.0,0.0,0.0,0.0,0.0,0.0,0.0,0.0,0.0,0.0,0.0,0.0,0.0,0.0,0.0,0.0,0.0,0.0,0.0,0.0,0.0,0.0,0.0,0.0,0.0,0.0,0.0,0.0,0.0,0.0,0.0,0.0,0.0,0.0,0.0,0.0,0.0,0.0,0.0,0.0,0.0,0.0,0.0,0.0,0.0,0.0,0.0,0.0,0.0,0.0,0.0,0.0,0.0,0.0,0.0,0.0,0.0,0.0,0.0,0.0,0.0,0.0,0.0,0.0,0.0,0.0,0.0,0.0,0.0,0.0,0.0,0.0,0.0,0.0,0.0,0.0,0.0,0.0,0.0,0.0,0.0,0.0,0.0,0.0,0.0,0.0,0.0,0.0,0.0,0.0,0.0,0.0,-0.9441,-1.0529,-1.1392,-1.1774,-1.0729,-1.0423,0.0,0.0,0.0,0.0,0.0,0.0,0.0,0.0,0.0,0.0,0.0,0.0,0.0,0.0,0.0,0.0,0.0,0.0,0.0,0.0,0.0,0.0,0.0,0.0,0.0,0.0,0.0,0.0,0.0,0.0,0.0,0.0,0.0,0.0,0.0,0.0,0.0,0.0,0.0,0.0,0.0,0.0,0.0,0.0,0.0,0.0,0.0,0.0,0.0,0.0,0.0,0.0,0.0,0.0,0.0,0.0,0.0,0.0,0.0,0.0,0.0,0.0,0.0,0.0,0.0,0.0,0.0,0.0,0.0,0.0,0.0,0.0,0.0,0.0,0.0,0.0,0.0,0.0,0.0,0.0,0.0,0.0,0.0,0.0,0.0,0.0,0.0,0.0,0.0,0.0,0.0,0.0,0.0,0.0,0.0,0.0,0.0,0.0,0.0,0.0,0.0,0.0,0.0,0.0,0.0,0.0,0.0,0.0,0.0,-1.0207,-1.1155,-1.1806,-1.2083,-1.1095,-1.0681,-1.0875,0.0,0.0,0.0,0.0,0.0,0.0,0.0,0.0,0.0,0.0,0.0,0.0,0.0,0.0,0.0,0.0,0.0,0.0,0.0,0.0,0.0,0.0,0.0,0.0,0.0,0.0,0.0,0.0,0.0,0.0,0.0,0.0,0.0,0.0,0.0,0.0,0.0,0.0,0.0,0.0,0.0,0.0,0.0,0.0,0.0,0.0,0.0,0.0,0.0,0.0,0.0,0.0,0.0,0.0,0.0,0.0,0.0,0.0,0.0,0.0,0.0,0.0,0.0,0.0,0.0,0.0,0.0,0.0,0.0,0.0,0.0,0.0,0.0,0.0,0.0,0.0,0.0,0.0,0.0,0.0,0.0,0.0,0.0,0.0,0.0,0.0,0.0,0.0,0.0,0.0,0.0,0.0,0.0,0.0,0.0,0.0,0.0,0.0,0.0,0.0,0.0,0.0,0.0,0.0,0.0,0.0,0.0,0.0,-1.1725,-1.292,-1.3148,-1.224,-1.1833,-1.1052,0.0,0.0,0.0,0.0,0.0,0.0,0.0,0.0,0.0,0.0,0.0,0.0,0.0,0.0,0.0,0.0,0.0,0.0,0.0,0.0,0.0,0.0,0.0,0.0,0.0,0.0,0.0,0.0,0.0,0.0,0.0,0.0,0.0,0.0,0.0,0.0,0.0,0.0,0.0,0.0,0.0,0.0,0.0,0.0,0.0,0.0,0.0,0.0,0.0,0.0,0.0,0.0,0.0,0.0,0.0,0.0,0.0,0.0,0.0,0.0,0.0,0.0,0.0,0.0,0.0,0.0,0.0,0.0,0.0,0.0,0.0,0.0,0.0,0.0,0.0,0.0,0.0,0.0,0.0,0.0,0.0,0.0,0.0,0.0,0.0,0.0,0.0,0.0,0.0,0.0,0.0,0.0,0.0,0.0,0.0,0.0,0.0,0.0,0.0,0.0,0.0,0.0,0.0,0.0,0.0,0.0,0.0,0.0,0.0,-1.2051,-1.3683,-1.4143,-1.3362,-1.2067,-1.1225,0.0,0.0,0.0,0.0,0.0,0.0,0.0,0.0,0.0,0.0,0.0,0.0,0.0,0.0,0.0,0.0,0.0,0.0,0.0,0.0,0.0,0.0,0.0,0.0,0.0,0.0,0.0,0.0,0.0,0.0,0.0,0.0,0.0,0.0,0.0,0.0,0.0,0.0,0.0,0.0,0.0,0.0,0.0,0.0,0.0,0.0,0.0,0.0,0.0,0.0,0.0,0.0,0.0,0.0,0.0,0.0,0.0,0.0,0.0,0.0,0.0,0.0,0.0,0.0,0.0,0.0,0.0,0.0,0.0,0.0,0.0,0.0,0.0,0.0,0.0,0.0,0.0,0.0,0.0,0.0,0.0,0.0,0.0,0.0,0.0,0.0,0.0,0.0,0.0,0.0,0.0,0.0,0.0,0.0,0.0,0.0,0.0,0.0,0.0,0.0,0.0,0.0,0.0,0.0,0.0,0.0,0.0,0.0,-1.2318,-1.2802,-1.4358,-1.4891,-1.4283,-1.3,-1.196,0.0,0.0,0.0,0.0,0.0,0.0,0.0,0.0,0.0,0.0,0.0,0.0,0.0,0.0,0.0,0.0,0.0,0.0,0.0,0.0,0.0,0.0,0.0,0.0,0.0,0.0,0.0,0.0,0.0,0.0,0.0,0.0,0.0,0.0,0.0,0.0,0.0,0.0,0.0,0.0,0.0,0.0,0.0,0.0,0.0,0.0,0.0,0.0,0.0,0.0,0.0,0.0,0.0,0.0,0.0,0.0,0.0,0.0,0.0,0.0,0.0,0.0,0.0,0.0,0.0,0.0,0.0,0.0,0.0,0.0,0.0,0.0,0.0,0.0,0.0,0.0,0.0,0.0,0.0,0.0,0.0,0.0,0.0,0.0,0.0,0.0,0.0,0.0,0.0,0.0,0.0,0.0,0.0,0.0,0.0,0.0,0.0,0.0,0.0,0.0,0.0,0.0,0.0,0.0,0.0,0.0,0.0,0.0,-1.3276,-1.3776,-1.4972,-1.5392,-1.4955,-1.4148,-1.2867,0.0,0.0,0.0,0.0,0.0,0.0,0.0,0.0,0.0,0.0,0.0,0.0,0.0,0.0,0.0,0.0,0.0,0.0,0.0,0.0,0.0,0.0,0.0,0.0,0.0,0.0,0.0,0.0,0.0,0.0,0.0,0.0,0.0,0.0,0.0,0.0,0.0,0.0,0.0,0.0,0.0,0.0,0.0,0.0,0.0,0.0,0.0,0.0,0.0,0.0,0.0,0.0,0.0,0.0,0.0,0.0,0.0,0.0,0.0,0.0,0.0,0.0,0.0,0.0,0.0,0.0,0.0,0.0,0.0,0.0,0.0,0.0,0.0,0.0,0.0,0.0,0.0,0.0,0.0,0.0,0.0,0.0,0.0,0.0,0.0,0.0,0.0,0.0,0.0,0.0,0.0,0.0,0.0,0.0,0.0,0.0,0.0,0.0,0.0,0.0,0.0,0.0,0.0,0.0,0.0,0.0,0.0,0.0,-1.2883,-1.355,-1.4891,-1.5553,-1.5445,-1.3852,-1.2452,0.0,0.0,0.0,0.0,0.0,0.0,0.0,0.0,0.0,0.0,0.0,0.0,0.0,0.0,0.0,0.0,0.0,0.0,0.0,0.0,0.0,0.0,0.0,0.0,0.0,0.0,0.0,0.0,0.0,0.0,0.0,0.0,0.0,0.0,0.0,0.0,0.0,0.0,0.0,0.0,0.0,0.0,0.0,0.0,0.0,0.0,0.0,0.0,-1.1692,0.0,0.0,0.0,0.0,0.0,0.0,0.0,0.0,0.0,0.0,0.0,0.0,0.0,0.0,0.0,0.0,0.0,0.0,0.0,0.0,0.0,0.0,0.0,0.0,0.0,0.0,0.0,0.0,0.0,0.0,0.0,0.0,0.0,0.0,0.0,0.0,0.0,0.0,0.0,0.0,0.0,0.0,0.0,0.0,0.0,0.0,0.0,0.0,0.0,0.0,0.0,0.0,0.0,0.0,0.0,0.0,0.0,0.0,0.0,-1.319,-1.4126,-1.5095,-1.5601,-1.5542,-1.3976,-1.2657,0.0,0.0,0.0,0.0,0.0,0.0,0.0,0.0,0.0,0.0,0.0,0.0,0.0,0.0,0.0,0.0,0.0,0.0,0.0,0.0,0.0,0.0,0.0,0.0,0.0,0.0,0.0,0.0,0.0,0.0,0.0,0.0,0.0,0.0,0.0,0.0,0.0,0.0,0.0,0.0,0.0,0.0,0.0,0.0,0.0,0.0,0.0,0.0,0.0,0.0,0.0,0.0,0.0,0.0,0.0,0.0,0.0,0.0,0.0,0.0,0.0,0.0,0.0,0.0,0.0,0.0,0.0,0.0,0.0,0.0,0.0,0.0,0.0,0.0,0.0,0.0,0.0,0.0,0.0,0.0,0.0,0.0,0.0,0.0,0.0,0.0,0.0,0.0,0.0,0.0,0.0,0.0,0.0,0.0,0.0,0.0,0.0,0.0,0.0,0.0,0.0,0.0,0.0,0.0,0.0,0.0,0.0,-1.249,-1.3631,-1.4891,-1.5375,-1.5585,-1.5531,-1.4202,-1.3061,-1.2073,0.0,0.0,0.0,0.0,0.0,0.0,0.0,0.0,0.0,0.0,0.0,0.0,0.0,0.0,0.0,0.0,0.0,0.0,0.0,0.0,0.0,0.0,0.0,0.0,0.0,0.0,0.0,0.0,0.0,0.0,0.0,0.0,0.0,0.0,0.0,0.0,0.0,0.0,-1.1731,-1.1826,0.0,0.0,0.0,0.0,0.0,0.0,0.0,0.0,-1.2821,0.0,0.0,0.0,0.0,0.0,0.0,0.0,0.0,0.0,0.0,0.0,0.0,0.0,0.0,0.0,0.0,0.0,0.0,0.0,0.0,0.0,0.0,0.0,0.0,0.0,0.0,0.0,0.0,0.0,0.0,0.0,0.0,0.0,0.0,0.0,0.0,0.0,0.0,0.0,0.0,0.0,0.0,0.0,0.0,0.0,0.0,0.0,0.0,0.0,0.0,0.0,0.0,0.0,0.0,0.0,0.0,-1.1403,-1.2141,-1.3338,-1.5081,-1.5456,-1.551,-1.5226,-1.4121,-1.2937,-1.1795,0.0,0.0,0.0,0.0,0.0,0.0,0.0,0.0,0.0,0.0,0.0,0.0,0.0,0.0,0.0,0.0,0.0,0.0,0.0,0.0,0.0,0.0,0.0,0.0,0.0,0.0,0.0,0.0,0.0,0.0,0.0,0.0,0.0,0.0,0.0,0.0,0.0,0.0,0.0,-1.2833,-1.3111,0.0,0.0,0.0,0.0,0.0,0.0,0.0,0.0,-1.4417,0.0,0.0,0.0,0.0,0.0,0.0,0.0,0.0,0.0,0.0,0.0,0.0,0.0,0.0,0.0,0.0,0.0,0.0,0.0,0.0,0.0,0.0,0.0,0.0,0.0,0.0,0.0,0.0,0.0,0.0,0.0,0.0,0.0,0.0,0.0,0.0,0.0,0.0,0.0,0.0,0.0,0.0,0.0,0.0,0.0,0.0,0.0,0.0,0.0,0.0,0.0,0.0,0.0,0.0,0.0,-1.1343,-1.242,-1.3766,-1.5359,-1.5424,-1.53,-1.5042,-1.3674,-1.2479,0.0,0.0,0.0,0.0,0.0,0.0,0.0,0.0,0.0,0.0,0.0,0.0,0.0,0.0,0.0,0.0,0.0,0.0,0.0,0.0,0.0,0.0,0.0,0.0,0.0,0.0,0.0,0.0,0.0,0.0,0.0,0.0,0.0,0.0,0.0,0.0,0.0,0.0,0.0,0.0,-1.3387,-1.364,-1.3535,0.0,0.0,0.0,0.0,0.0,0.0,-1.5059,-1.5214,0.0,0.0,0.0,0.0,0.0,0.0,0.0,0.0,0.0,0.0,0.0,0.0,0.0,0.0,0.0,0.0,0.0,0.0,0.0,0.0,0.0,0.0,0.0,0.0,0.0,0.0,0.0,0.0,0.0,0.0,0.0,0.0,0.0,0.0,0.0,0.0,0.0,0.0,0.0,0.0,0.0,0.0,0.0,0.0,0.0,0.0,0.0,0.0,0.0,0.0,0.0,0.0,0.0,0.0,0.0,-1.0979,-1.2476,-1.3976,-1.537,-1.5268,-1.5015,-1.4659,-1.3254,-1.2081,0.0,0.0,0.0,0.0,0.0,0.0,0.0,0.0,0.0,0.0,0.0,0.0,0.0,0.0,0.0,0.0,0.0,0.0,0.0,0.0,0.0,0.0,0.0,0.0,0.0,0.0,0.0,0.0,0.0,0.0,0.0,0.0,0.0,0.0,0.0,0.0,0.0,0.0,0.0,0.0,0.0,-1.4285,-1.4253,-1.4328,0.0,0.0,0.0,0.0,-1.5958,-1.6046,0.0,0.0,0.0,0.0,0.0,0.0,0.0,0.0,0.0,0.0,0.0,0.0,0.0,0.0,0.0,0.0,0.0,0.0,0.0,0.0,0.0,0.0,0.0,0.0,0.0,0.0,0.0,0.0,0.0,0.0,0.0,0.0,0.0,0.0,0.0,0.0,0.0,0.0,0.0,0.0,0.0,0.0,0.0,0.0,0.0,0.0,0.0,0.0,0.0,0.0,0.0,0.0,0.0,0.0,0.0,0.0,-0.9822,-1.1594,-1.3324,-1.4869,-1.4934,-1.4611,-1.3954,-1.3152,-1.2097,0.0,0.0,0.0,0.0,0.0,0.0,0.0,0.0,0.0,0.0,0.0,0.0,0.0,0.0,0.0,0.0,0.0,0.0,0.0,0.0,0.0,0.0,0.0,0.0,0.0,0.0,0.0,0.0,0.0,0.0,0.0,0.0,0.0,0.0,0.0,0.0,0.0,0.0,0.0,0.0,0.0,-1.5728,-1.5229,-1.5844,-1.6395,0.0,0.0,0.0,-1.8075,-1.8095,0.0,0.0,0.0,0.0,0.0,0.0,0.0,0.0,0.0,0.0,0.0,0.0,0.0,0.0,0.0,0.0,0.0,0.0,0.0,0.0,0.0,0.0,0.0,0.0,0.0,0.0,0.0,0.0,0.0,0.0,0.0,0.0,0.0,0.0,0.0,0.0,0.0,0.0,0.0,0.0,0.0,0.0,0.0,0.0,0.0,0.0,0.0,0.0,0.0,0.0,0.0,0.0,0.0,0.0,0.0,-0.8972,-0.9433,-1.1765,-1.3561,-1.4632,-1.4562,-1.4218,-1.3636,-1.2456,-1.1343,0.0,0.0,0.0,0.0,0.0,0.0,0.0,0.0,0.0,0.0,0.0,0.0,0.0,0.0,0.0,0.0,0.0,0.0,0.0,0.0,0.0,0.0,0.0,0.0,0.0,0.0,0.0,0.0,0.0,0.0,0.0,0.0,0.0,0.0,0.0,0.0,0.0,0.0,0.0,0.0,0.0,0.0,-1.6242,-1.71,0.0,0.0,0.0,-1.7918,-1.8749,0.0,0.0,0.0,0.0,0.0,0.0,0.0,0.0,0.0,0.0,0.0,0.0,0.0,0.0,0.0,0.0,0.0,0.0,0.0,0.0,0.0,0.0,0.0,0.0,0.0,0.0,0.0,0.0,0.0,0.0,0.0,0.0,0.0,0.0,0.0,0.0,0.0,0.0,0.0,0.0,0.0,0.0,0.0,0.0,0.0,0.0,0.0,0.0,0.0,0.0,0.0,0.0,0.0,0.0,0.0,0.0,0.0,-0.8842,-1.1457,-1.3132,-1.379,-1.3661,-1.3435,-1.32,-1.1763,0.0,0.0,0.0,0.0,0.0,0.0,0.0,0.0,0.0,0.0,0.0,0.0,0.0,0.0,0.0,0.0,0.0,0.0,0.0,0.0,0.0,0.0,0.0,0.0,0.0,0.0,0.0,-1.1061,0.0,0.0,0.0,0.0,0.0,0.0,0.0,0.0,0.0,0.0,0.0,0.0,0.0,0.0,-1.6988,-1.7237,-1.8239,-1.8869,0.0,0.0,-1.887,-1.9173,-1.9218,-1.8975,0.0,0.0,0.0,0.0,0.0,0.0,0.0,0.0,0.0,0.0,0.0,0.0,0.0,0.0,0.0,0.0,0.0,0.0,0.0,0.0,0.0,0.0,0.0,0.0,0.0,0.0,0.0,0.0,0.0,0.0,0.0,0.0,0.0,0.0,0.0,0.0,0.0,0.0,0.0,0.0,0.0,0.0,0.0,0.0,0.0,0.0,0.0,0.0,0.0,0.0,0.0,0.0,0.0,0.0,0.0,-0.7698,-0.9846,-1.1344,-1.2038,-1.1819,-1.1915,-1.2442,-1.151,-1.0659,0.0,0.0,0.0,0.0,0.0,0.0,0.0,0.0,0.0,0.0,0.0,0.0,0.0,0.0,0.0,0.0,0.0,0.0,0.0,0.0,0.0,0.0,0.0,0.0,0.0,0.0,0.0,0.0,0.0,0.0,0.0,0.0,0.0,0.0,0.0,0.0,0.0,0.0,0.0,0.0,0.0,-1.7633,-1.8138,-1.9285,-2.0171,0.0,0.0,-1.995,-1.9627,-2.0049,-1.9863,-1.8334,0.0,0.0,0.0,0.0,0.0,0.0,0.0,0.0,0.0,0.0,0.0,0.0,0.0,0.0,0.0,0.0,0.0,0.0,0.0,0.0,0.0,0.0,0.0,0.0,0.0,0.0,0.0,0.0,0.0,0.0,0.0,0.0,0.0,0.0,0.0,0.0,0.0,0.0,0.0,0.0,0.0,0.0,0.0,0.0,0.0,0.0,0.0,0.0,0.0,0.0,0.0,0.0,0.0,-0.7189,-0.7292,-0.9206,-1.0345,-1.0718,-1.1102,-1.1361,-1.1405,-1.0992,-1.0463,0.0,0.0,0.0,0.0,0.0,0.0,0.0,0.0,0.0,0.0,0.0,0.0,0.0,0.0,0.0,0.0,0.0,0.0,0.0,0.0,0.0,0.0,0.0,0.0,0.0,0.0,0.0,0.0,-1.104,-1.124,-1.1464,0.0,0.0,0.0,0.0,0.0,0.0,0.0,0.0,0.0,0.0,-1.8015,-1.9115,-2.0011,0.0,0.0,-2.0709,-2.0703,-2.043,-2.0296,-1.9885,-1.8713,-1.8222,0.0,0.0,0.0,0.0,0.0,0.0,0.0,0.0,0.0,0.0,0.0,0.0,0.0,0.0,0.0,0.0,0.0,0.0,0.0,0.0,0.0,0.0,0.0,0.0,0.0,0.0,0.0,0.0,0.0,0.0,0.0,0.0,0.0,0.0,0.0,0.0,0.0,0.0,0.0,0.0,0.0,0.0,0.0,0.0,0.0,0.0,0.0,0.0,0.0,0.0,0.0,0.0,-0.6713,-0.6717,-0.8279,-0.9208,-0.9377,-0.9853,-1.0297,-1.0665,-1.0288,-1.0021,0.0,0.0,0.0,0.0,0.0,0.0,0.0,0.0,0.0,0.0,0.0,0.0,0.0,0.0,0.0,0.0,0.0,0.0,0.0,0.0,0.0,0.0,0.0,0.0,0.0,0.0,0.0,0.0,-1.0992,-1.1226,-1.1269,0.0,0.0,0.0,0.0,0.0,0.0,0.0,0.0,0.0,0.0,-1.8442,-1.972,-2.037,-2.0683,-2.0605,-2.0739,-2.0763,-2.0605,-2.0122,-1.9444,-1.8606,0.0,0.0,0.0,0.0,0.0,0.0,0.0,0.0,0.0,0.0,0.0,0.0,0.0,0.0,0.0,0.0,0.0,0.0,0.0,0.0,0.0,0.0,0.0,0.0,0.0,0.0,0.0,0.0,0.0,0.0,0.0,0.0,0.0,0.0,0.0,0.0,0.0,0.0,0.0,0.0,0.0,0.0,0.0,0.0,0.0,0.0,0.0,0.0,0.0,0.0,0.0,0.0,0.0,-0.6312,-0.5769,-0.6983,-0.7736,-0.8014,-0.7743,-0.8535,-1.0325,-0.9489,-0.9238,-0.9873,0.0,0.0,0.0,0.0,0.0,0.0,0.0,0.0,0.0,0.0,0.0,0.0,0.0,0.0,0.0,0.0,0.0,0.0,0.0,0.0,0.0,0.0,0.0,0.0,0.0,0.0,-1.0776,-1.109,-1.1223,0.0,0.0,0.0,0.0,0.0,0.0,0.0,0.0,0.0,0.0,-1.7665,-1.89,-1.9748,-2.0312,-2.0556,-2.0566,-2.0224,-1.9897,-1.9843,-1.9338,-1.8648,0.0,0.0,0.0,0.0,0.0,0.0,0.0,0.0,0.0,0.0,0.0,0.0,0.0,0.0,0.0,0.0,0.0,0.0,0.0,0.0,0.0,0.0,0.0,0.0,0.0,0.0,0.0,0.1239,0.1181,0.0,0.0,0.0,0.0,0.0,0.0,0.0,0.0,0.0,0.0,0.0,-0.2181,-0.2768,0.0,0.0,0.0,0.0,0.0,0.0,0.0,0.0,0.0,0.0,0.0,0.0,-0.5654,-0.5725,-0.6285,-0.6675,-0.6918,-0.7395,-0.7919,-0.8512,-0.8957,-0.931,-0.9434,0.0,0.0,0.0,0.0,0.0,0.0,0.0,0.0,0.0,0.0,0.0,0.0,0.0,0.0,0.0,0.0,0.0,0.0,0.0,0.0,0.0,0.0,0.0,0.0,0.0,-1.0624,0.0,0.0,0.0,0.0,0.0,0.0,0.0,0.0,0.0,0.0,0.0,-1.5839,-1.6919,-1.7716,-1.849,-1.9385,-1.9619,-1.9717,0.0,0.0,0.0,0.0,0.0,0.0,0.0,0.0,0.0,0.0,0.0,0.0,0.0,0.0,-1.9888,-1.8773,-1.836,-1.8409,-1.926,0.0,0.0,0.0,0.0,0.0,0.0,0.0,0.0,0.0,0.0,0.0,0.0,0.0,0.0,0.0,0.0,0.123,0.0,0.0,0.0,0.0,0.0,0.0,0.0,0.0,0.0043,-0.0477,-0.1318,-0.1931,-0.2786,0.0,-0.446,-0.4738,0.0,0.0,0.0,0.0,0.0,0.0,0.0,0.0,-0.5409,-0.5683,-0.5966,-0.6198,-0.6418,-0.6911,-0.7305,-0.7483,-0.8304,-0.8672,-0.8417,-0.8257,-0.8166,0.0,0.0,0.0,0.0,0.0,0.0,0.0,0.0,0.0,0.0,0.0,0.0,0.0,0.0,0.0,0.0,0.0,0.0,0.0,0.0,0.0,0.0,0.0,-1.0586,0.0,0.0,0.0,0.0,0.0,0.0,0.0,0.0,0.0,-1.5279,-1.552,-1.6186,-1.7619,-1.8022,-1.8477,-1.9189,0.0,0.0,0.0,0.0,0.0,0.0,0.0,-1.9153,-1.8944,-1.9361,-1.9516,-1.8893,-1.9693,-2.0472,-2.0627,0.0,0.0,-2.0064,-1.969,-1.9827,-2.0981,-2.1481,-2.1825,-2.2213,-2.2504,-2.2875,0.0,0.0,0.0,0.0,0.0,0.0,0.0,0.0,0.2723,0.2137,0.0,0.1083,0.0,0.0,0.0,0.0,0.0,0.0,0.0,0.0,0.0088,-0.045,-0.1215,-0.1306,-0.2248,-0.395,-0.4076,-0.4552,-0.5266,-0.479,0.0,0.0,0.0,0.0,0.0,0.0,-0.5491,-0.5694,-0.5969,-0.6198,-0.6365,-0.6325,-0.6681,-0.7449,-0.7517,-0.7369,-0.6956,-0.735,-0.7534,-0.747,-0.8084,0.0,0.0,0.0,0.0,0.0,0.0,0.0,0.0,0.0,0.0,0.0,0.0,0.0,0.0,0.0,0.0,0.0,0.0,0.0,0.0,-1.0586,0.0,0.0,0.0,0.0,0.0,0.0,0.0,0.0,0.0,0.0,-1.5297,-1.61,-1.7174,-1.8403,0.0,0.0,0.0,0.0,-1.9238,-1.9219,-1.9248,-1.9478,-2.0039,-1.9642,-1.922,-1.9114,0.0,0.0,-1.9565,-2.0087,-2.0369,-1.9969,-2.0276,-2.0848,-2.2031,-2.1488,-2.1542,-2.3332,-2.3062,-2.2824,-2.3698,-2.3622,-2.3374,0.7742,0.0,0.0,0.0,0.0,0.4877,0.4418,0.4131,0.3333,0.2797,0.2395,0.1641,0.0,0.0,0.0,0.0,0.0,0.0,0.0521,0.0353,0.0322,0.0047,-0.0383,-0.1052,-0.1672,-0.2195,-0.3569,-0.433,-0.4474,-0.4948,-0.4982,-0.4735,0.0,0.0,0.0,0.0,-0.5572,-0.5841,-0.6007,-0.6162,-0.6314,-0.6333,-0.6555,-0.698,-0.6767,-0.671,-0.6912,-0.69,-0.6823,-0.6741,-0.7018,0.0,0.0,0.0,0.0,0.0,0.0,0.0,0.0,0.0,0.0,0.0,0.0,0.0,0.0,0.0,0.0,0.0,0.0,0.0,-1.0586,-1.0586,-1.0586,0.0,0.0,0.0,0.0,0.0,0.0,0.0,0.0,0.0,-1.6626,-1.7012,-1.7441,0.0,0.0,-1.8315,-1.8724,-1.8564,-1.8369,-1.8379,0.0,0.0,0.0,-1.9039,-1.9017,-1.8959,-1.954,-2.023,-2.0802,-2.1182,-2.1373,-2.1217,-2.1321,-2.1612,-2.2125,-2.22,-2.2669,-2.4083,-2.4561,-2.4726,-2.5039,-2.4983,-2.5106,0.8381,0.787,0.6998,0.6691,0.6685,0.6092,0.5637,0.527,0.4567,0.3831,0.306,0.2389,0.1756,0.1199,0.1028,0.0,0.0,0.0,0.0761,0.069,0.0618,0.039,0.0149,-0.0397,-0.0991,-0.1534,-0.2638,-0.3553,-0.4261,-0.466,-0.4957,-0.5081,0.0,0.0,-0.5227,-0.5417,-0.5665,-0.5964,-0.6048,-0.6146,-0.6265,-0.6221,-0.6213,-0.6245,-0.6019,-0.5924,-0.6025,-0.6166,-0.6146,-0.598,-0.6363,-0.6625,0.0,0.0,0.0,0.0,0.0,0.0,0.0,0.0,0.0,0.0,0.0,-0.9478,0.0,0.0,0.0,0.0,-1.0364,-1.0586,-1.0586,-1.0586,0.0,0.0,0.0,0.0,0.0,0.0,0.0,-1.4401,-1.5009,-1.5822,-1.7098,-1.7486,-1.7783,-1.8169,-1.8115,-1.8164,-1.8539,0.0,-1.8076,-1.8198,-1.8442,-1.8666,-1.8831,-1.8958,-1.9065,-1.9065,-1.9533,-2.0101,-2.0616,-2.0971,-2.1158,-2.1158,-2.1185,-2.1424,-2.1922,-2.2329,-2.2954,-2.4144,-2.5058,-2.5573,-2.5586,-2.5774,-2.6152,0.8794,0.8482,0.8062,0.7794,0.7655,0.7651,0.7165,0.6328,0.6171,0.5108,0.3464,0.3199,0.2495,0.1472,0.1176,0.0,0.0,0.094,0.0922,0.1052,0.0878,0.0596,0.0353,0.0353,-0.0303,-0.1462,-0.1436,-0.2382,-0.4195,-0.4183,-0.4601,-0.5428,-0.5321,-0.5347,-0.5502,-0.5626,-0.585,-0.6081,-0.6086,-0.6185,-0.6281,-0.6002,-0.5723,-0.5497,-0.5409,-0.5161,-0.4751,-0.5275,-0.5494,-0.5263,-0.5858,-0.6281,-0.649,0.0,0.0,0.0,0.0,0.0,0.0,0.0,0.0,0.0,0.0,0.0,0.0,0.0,0.0,0.0,-1.0371,0.0,-1.0586,-1.0586,0.0,0.0,0.0,-1.1042,-1.2039,-1.2047,-1.2752,-1.4667,0.0,0.0,0.0,0.0,-1.812,-1.85,-1.8262,-1.8164,-1.8549,-1.8247,-1.8144,-1.8451,-1.8578,-1.8734,-1.9082,-1.9196,-1.9187,-1.915,-1.942,-1.9601,-1.9716,-1.999,-2.0186,-2.0298,-2.0309,-2.0588,-2.132,-2.1922,-2.2716,-2.3451,-2.4628,-2.5511,-2.5523,-2.5896,-2.6269,0.9103,0.8757,0.8591,0.8347,0.8113,0.8159,0.7942,0.7537,0.6715,0.6092,0.5516,0.3862,0.2461,0.1446,0.1403,0.1362,0.1371,0.1184,0.1015,0.083,0.0597,0.0352,0.0101,0.0101,-0.005,-0.0404,-0.1154,-0.1798,-0.2334,-0.3833,-0.4687,-0.4894,-0.5438,-0.5626,-0.5516,-0.5629,-0.5847,-0.6083,-0.6086,-0.6053,-0.5986,-0.5757,-0.5518,-0.5457,-0.5211,-0.4961,-0.4734,-0.4651,-0.4594,-0.4528,-0.4599,-0.4721,-0.4851,-0.5642,0.0,0.0,0.0,0.0,0.0,0.0,0.0,0.0,0.0,-0.9694,-0.9534,0.0,-1.0338,0.0,-1.0371,-1.0586,-1.0586,-1.0586,0.0,0.0,-1.0955,-1.131,-1.1573,-1.1895,-1.2564,-1.3858,-1.4708,-1.5556,-1.6611,-1.7478,-1.8013,-1.811,-1.8076,-1.8154,-1.852,-1.8271,-1.8013,-1.8164,-1.8428,-1.8637,-1.8724,-1.8789,-1.8789,-1.8754,-1.8966,-1.9298,-1.9745,-2.0021,-2.0237,-2.0324,-2.0359,-2.0367,-2.0254,-2.0753,-2.1476,-2.2252,-2.3761,-2.5008,-2.5008,-2.5146,-2.5413,0.9147,0.8871,0.8771,0.8577,0.8412,0.835,0.818,0.7942,0.7388,0.6845,0.6279,0.4076,0.2809,0.2195,0.1732,0.1508,0.1523,0.141,0.1283,0.1145,0.0854,0.0606,0.0353,0.0252,0.0101,-0.005,-0.0606,-0.1105,-0.1542,-0.2683,-0.372,-0.4632,-0.5057,-0.5426,-0.5675,-0.5828,-0.598,-0.6162,-0.6059,-0.5947,-0.5828,-0.5602,-0.5475,-0.5447,-0.5167,-0.4901,-0.4695,-0.4425,-0.4303,-0.43,-0.4238,-0.4254,-0.4402,-0.4944,-0.5614,0.0,0.0,0.0,0.0,0.0,0.0,0.0,0.0,0.0,0.0,0.0,-1.0219,0.0,-1.0403,0.0,-1.0586,-1.0586,-1.0646,-1.0774,-1.1042,-1.1329,-1.159,-1.1869,-1.2436,-1.3491,-1.4399,-1.5306,-1.6236,-1.7217,-1.7862,-1.7852,-1.794,-1.8096,-1.8247,-1.8144,-1.8008,-1.8018,-1.8203,-1.8325,-1.8325,-1.8325,-1.8325,-1.8359,-1.8463,-1.8656,-1.9008,-1.9259,-1.9469,-1.9553,-1.9716,-1.9748,-1.9567,-2.0044,-2.0699,-2.1506,-2.2627,-2.388,-2.4943,-2.5172,-2.5305,0.9076,0.8896,0.8767,0.8611,0.8448,0.8323,0.8194,0.8019,0.8019,0.7403,0.6279,0.4402,0.3439,0.3142,0.2175,0.1697,0.1577,0.1577,0.1541,0.1515,0.1263,0.101,0.0758,0.0505,0.0252,0.0,0.0,-0.045,-0.1225,-0.1349,-0.2335,-0.4084,-0.4237,-0.48,-0.5698,-0.5829,-0.6021,-0.6217,-0.6026,-0.5863,-0.5691,-0.557,-0.5491,-0.5451,-0.5156,-0.4855,-0.4651,-0.4429,-0.4278,-0.4278,-0.4278,-0.4327,-0.4476,-0.4482,-0.4941,0.0,-0.6465,0.0,0.0,0.0,0.0,0.0,0.0,0.0,0.0,-0.9708,-0.997,-1.0289,-1.0486,-1.0586,-1.0586,-1.0586,-1.0693,-1.0902,-1.0975,-1.1196,-1.1718,-1.1826,-1.2209,-1.3187,-1.4117,-1.4945,-1.5604,-1.6759,-1.7569,-1.7535,-1.7828,-1.7978,-1.7939,-1.7978,-1.8008,-1.8008,-1.8008,-1.8066,-1.8047,-1.8027,-1.8027,-1.8018,-1.8037,-1.8008,-1.8125,-1.8309,-1.8546,-1.8613,-1.8913,-1.9073,-1.9098,-1.9572,-2.0216,-2.0952,-2.1701,-2.2829,-2.4576,-2.5197,-2.5423,0.911,0.8754,0.872,0.8554,0.8361,0.8282,0.8252,0.8228,0.8228,0.7547,0.6384,0.5962,0.4854,0.3206,0.2996,0.24,0.1608,0.1357,0.1259,0.1263,0.101,0.0707,0.0455,0.0404,0.0252,0.0,0.0,-0.01,-0.0294,-0.1172,-0.1788,-0.2188,-0.2888,-0.3812,-0.4859,0.0,0.0,0.0,-0.6024,-0.5947,-0.5694,-0.557,-0.5413,-0.5254,-0.4947,0.0,-0.4379,-0.4197,-0.4153,-0.4151,-0.4153,0.0,0.0,0.0,0.0,0.0,0.0,0.0,0.0,0.0,0.0,0.0,-0.8985,-0.8914,-0.9446,-0.9798,-1.0084,-1.0352,-1.0502,-1.0586,-1.0586,-1.0586,-1.062,-1.0673,-1.0881,-1.1042,-1.1156,-1.1369,-1.1693,-1.216,-1.3039,-1.3737,-1.4224,-1.5685,-1.681,-1.6888,-1.7501,-1.7828,-1.7559,-1.7793,-1.7988,-1.8008,-1.7988,-1.8008,-1.8008,-1.8008,-1.8008,-1.8008,-1.8008,-1.8032,-1.8182,-1.824,-1.8428,-1.8643,-1.8808,-1.8898,-1.9031,-1.9208,-1.9657,-2.0742,-2.1457,-2.2276,-2.335,-2.3979,-2.4431,0.9028,0.0,0.8659,0.8513,0.0,0.8354,0.8323,0.8316,0.8187,0.7808,0.7138,0.6637,0.5782,0.4728,0.3674,0.2923,0.2371,0.1716,0.1364,0.1364,0.1111,0.0909,0.0758,0.0505,0.0352,0.0199,0.005,0.0,0.0,-0.0527,-0.1047,-0.1617,-0.2051,-0.2828,-0.3835,-0.4223,-0.4886,-0.5901,-0.5909,-0.5852,-0.5688,-0.5553,-0.5434,-0.5355,0.0,0.0,0.0,0.0,0.0,0.0,0.0,0.0,0.0,0.0,0.0,-0.5326,-0.5745,-0.6433,-0.7381,-0.7414,-0.7712,-0.8404,-0.849,-0.8786,-0.9446,-0.9734,-0.9956,-1.0082,-1.0322,-1.0434,-1.0466,-1.0561,-1.0653,-1.0794,-1.0941,-1.1042,-1.1189,-1.1336,-1.1449,-1.168,-1.2401,-1.3071,-1.3319,-1.4681,-1.5843,-1.6392,-1.7001,-1.7426,-1.7424,-1.7559,-1.7695,-1.7715,-1.79,-1.8008,-1.8008,-1.8008,-1.7998,-1.7998,-1.7842,-1.7748,-1.7829,-1.7741,-1.77,-1.7906,-1.822,-1.8547,-1.8666,-1.8876,-1.937,-2.0303,-2.1037,-2.171,-2.2475,-2.3331,-2.4079,0.895,0.8876,0.8628,0.8492,0.8435,0.8319,0.8255,0.8275,0.0,0.0,0.0,0.7039,0.6587,0.6284,0.4578,0.3574,0.3123,0.227,0.1768,0.1566,0.1364,0.1263,0.1162,0.0758,0.0501,0.0444,0.0197,0.0049,0.0048,0.0,-0.0419,-0.1222,-0.1297,-0.1794,-0.2718,-0.3597,-0.4552,-0.557,-0.5676,-0.571,-0.5683,-0.5515,-0.5428,-0.5443,-0.4963,-0.4701,-0.4654,-0.4336,-0.4216,-0.4295,-0.4303,-0.4344,-0.4468,-0.4473,-0.4569,-0.4806,-0.5352,-0.5906,-0.6363,-0.6793,-0.7092,-0.7223,-0.7999,-0.8786,-0.9446,-0.9676,-0.9804,-0.9804,-1.0085,-1.0308,-1.0308,-1.046,-1.0687,-1.0895,-1.0915,-1.1009,-1.1196,-1.1269,-1.1269,-1.137,-1.1885,-1.2405,-1.2702,-1.3735,-1.476,-1.56,-1.6175,-1.6679,-1.6987,-1.7116,-1.7266,-1.7295,-1.749,-1.7711,-1.7764,-1.7734,-1.775,-1.7662,-1.7471,-1.7285,-1.7239,-1.7091,-1.6969,-1.7082,-1.7575,-1.7927,-1.8095,-1.844,-1.9044,-1.9663,-2.0319,-2.102,-2.1815,-2.2861,-2.371,0.8974,0.874,0.8696,0.8533,0.8299,0.8279,0.8194,0.8032,0.8187,0.8163,0.7988,0.7839,0.7288,0.6387,0.6084,0.4929,0.3224,0.3022,0.2471,0.0,0.1566,0.1415,0.1212,0.1111,0.0958,0.0754,0.0495,0.034,0.0334,0.0093,-0.0092,0.0,-0.0226,-0.0728,-0.1616,-0.262,-0.3557,-0.4518,-0.5425,-0.5833,-0.5688,-0.5553,-0.5389,-0.5238,-0.4961,-0.4705,-0.4536,-0.4482,-0.4416,-0.4306,-0.4303,-0.4308,-0.4322,-0.4327,-0.4481,-0.4764,-0.4894,-0.5385,-0.6301,-0.5947,-0.5918,-0.6531,-0.7772,-0.8791,-0.9414,-0.967,-0.9804,-0.9804,-1.0085,-1.0308,-1.0308,-1.0466,-1.0613,-1.0653,-1.0653,-1.0673,-1.074,-1.0747,-1.0841,-1.1029,-1.1115,-1.1363,-1.1744,-1.2713,-1.3527,-1.3867,-1.4823,-1.5515,-1.5698,-1.6287,-1.6753,-1.6794,-1.6833,-1.6882,-1.698,-1.6892,-1.696,-1.6872,-1.6863,-1.6816,-1.6785,-1.6709,-1.6715,-1.6951,-1.7085,-1.7281,-1.751,-1.7666,-1.8049,-1.8606,-1.9263,-1.9992,-2.098,-2.1858,-2.2818,0.8906,0.872,0.8713,0.854,0.8316,0.818,0.8106,0.7998,0.8116,0.8059,0.7992,0.7988,0.7739,0.7238,0.6637,0.5532,0.4024,0.3473,0.2622,0.1617,0.1566,0.1516,0.1414,0.1263,0.1156,0.0994,0.0585,0.0385,0.0381,0.014,0.0,0.0,0.0,-0.0466,-0.136,-0.1873,-0.2574,-0.3513,-0.4497,-0.5251,-0.5688,-0.5551,-0.5398,-0.5325,-0.4993,-0.4747,-0.467,-0.464,-0.455,-0.4432,-0.439,-0.4365,-0.4306,-0.4303,-0.4398,-0.4661,-0.4761,-0.506,-0.5642,-0.5521,-0.5686,-0.6367,-0.6985,-0.78,-0.8888,-0.9382,-0.9644,-0.9644,-0.9868,-1.0053,-1.0117,-1.0301,-1.0498,-1.0586,-1.0586,-1.0586,-1.0586,-1.0586,-1.0646,-1.0767,-1.0787,-1.0901,-1.1156,-1.1783,-1.2487,-1.3021,-1.3932,-1.4486,-1.451,-1.4782,-1.5337,-1.6143,-1.6541,-1.6687,-1.6687,-1.6697,-1.6697,-1.6697,-1.6492,-1.6396,-1.6348,-1.6221,-1.6085,-1.6136,-1.6384,-1.6635,-1.6859,-1.7225,-1.7563,-1.7853,-1.853,-1.9225,-1.9834,-2.1214,-2.2922,0.8794,0.8713,0.8747,0.8591,0.8357,0.8116,0.7988,0.7988,0.7988,0.7988,0.7988,0.7988,0.7988,0.7939,0.7135,0.6182,0.5127,0.4026,0.2972,0.2019,0.1717,0.1566,0.1566,0.1364,0.1303,0.1234,0.0824,0.0576,0.0527,0.0235,0.0047,0.0,0.0,-0.0384,-0.1054,-0.109,-0.1563,-0.2532,-0.3297,-0.4202,-0.532,-0.5403,-0.544,-0.5391,-0.5075,-0.4904,-0.4833,-0.476,-0.4687,-0.4591,-0.4534,-0.4465,-0.4377,-0.4314,-0.4398,-0.4592,-0.4728,-0.4927,-0.5123,-0.5292,-0.562,-0.6141,-0.6301,-0.6854,-0.7902,-0.8624,-0.9183,-0.9452,-0.9702,-0.9868,-1.0021,-1.0174,-1.0371,-1.0561,-1.0586,-1.0586,-1.0586,-1.0586,-1.0586,-1.0586,-1.0586,-1.0687,-1.0874,-1.1087,-1.1595,-1.2416,-1.3096,-1.3498,-1.3536,-1.3456,-1.4082,-1.5086,-1.5904,-1.6181,-1.6373,-1.6375,-1.6356,-1.6404,-1.6143,-1.5987,-1.5899,-1.5625,-1.5459,-1.5508,-1.5792,-1.6078,-1.6198,-1.6648,-1.7114,-1.7318,-1.7848,-1.8414,-1.9081,-2.1212,-2.308,0.8845,0.874,0.879,0.874,0.8431,0.8157,0.7988,0.7988,0.7988,0.7988,0.7988,0.7988,0.7988,0.7988,0.7889,0.7238,0.6134,0.5127,0.4074,0.3022,0.207,0.1566,0.1617,0.1566,0.1565,0.1508,0.1234,0.1076,0.1027,0.0577,0.0238,0.0,0.0,0.0,0.0,0.0,-0.0596,-0.1515,-0.161,-0.2582,-0.4322,-0.5124,-0.544,-0.5413,-0.5233,-0.5105,-0.4971,-0.4847,-0.4774,-0.4747,-0.4591,-0.4501,-0.4479,-0.4357,-0.44,-0.4595,-0.4728,-0.4964,-0.5329,-0.5395,-0.5425,-0.5524,-0.6042,-0.6465,-0.6658,-0.7251,-0.8172,-0.9125,-0.9612,-0.9804,-0.9983,-1.0174,-1.0339,-1.053,-1.0586,-1.0586,-1.0586,-1.0586,-1.0586,-1.0586,-1.0586,-1.0645,-1.0673,-1.0854,-1.1142,-1.156,-1.2032,-1.2423,-1.2599,-1.2882,-1.3208,-1.3744,-1.4297,-1.4934,-1.5379,-1.5547,-1.5654,-1.5605,-1.5537,-1.5527,-1.5518,-1.5498,-1.542,-1.543,-1.5449,-1.5625,-1.5742,-1.5947,-1.6285,-1.6747,-1.7179,-1.765,-1.9245,-2.1181,-2.2638,0.8713,0.8584,0.8642,0.855,0.8336,0.813,0.7988,0.7988,0.7988,0.7988,0.7988,0.7988,0.7988,0.7988,0.7988,0.7388,0.6387,0.5934,0.5179,0.4124,0.3022,0.2521,0.2472,0.1869,0.1566,0.1564,0.1338,0.1186,0.1096,0.0644,0.0345,0.0198,0.01,0.0,0.0,0.0,-0.0199,-0.0548,-0.1121,-0.1814,-0.2623,-0.3972,-0.4942,-0.5395,-0.5355,-0.532,-0.5219,-0.5108,-0.5012,-0.4901,-0.4776,-0.4618,-0.4512,-0.4425,-0.4439,-0.4439,-0.4664,-0.4927,-0.519,-0.5326,-0.5395,-0.5395,-0.5653,-0.5947,-0.6367,-0.6662,-0.7251,-0.8107,-0.8721,-0.9242,-0.9792,-1.0021,-1.0206,-1.0396,-1.053,-1.0586,-1.0586,-1.0586,-1.0586,-1.0586,-1.0586,-1.0586,-1.0606,-1.0693,-1.0814,-1.0928,-1.1201,-1.1432,-1.1538,-1.183,-1.2266,-1.2704,-1.313,-1.3765,-1.4608,-1.5206,-1.5323,-1.5381,-1.542,-1.542,-1.541,-1.542,-1.542,-1.542,-1.542,-1.542,-1.5498,-1.5662,-1.5907,-1.6274,-1.6547,-1.7088,-1.8433,-1.9698,-2.0798,0.8594,0.8431,0.8381,0.8326,0.8258,0.8106,0.7988,0.7988,0.7988,0.7988,0.7988,0.7988,0.8015,0.8092,0.8012,0.7537,0.6886,0.6537,0.5984,0.5177,0.4124,0.3473,0.3173,0.2422,0.1869,0.1613,0.1395,0.1296,0.1161,0.0859,0.0556,0.0505,0.0252,0.0101,0.0101,0.005,0.0,0.0,-0.0687,-0.1155,-0.1567,-0.2681,-0.3944,-0.5,-0.5079,-0.5152,-0.541,-0.5252,-0.5151,-0.5064,-0.4879,-0.4741,-0.4572,-0.4525,-0.4454,-0.4414,-0.4597,-0.4861,-0.5087,-0.5256,-0.5359,-0.5395,-0.5395,-0.5591,-0.6013,-0.6141,-0.6433,-0.7088,-0.7642,-0.8323,-0.9338,-0.9594,-0.9811,-1.0206,-1.046,-1.0523,-1.0586,-1.0586,-1.0586,-1.0586,-1.0586,-1.0586,-1.0586,-1.06,-1.062,-1.0651,-1.0701,-1.0769,-1.0807,-1.1059,-1.1397,-1.1934,-1.2274,-1.294,-1.4013,-1.446,-1.4874,-1.5147,-1.5118,-1.5177,-1.5323,-1.541,-1.542,-1.542,-1.542,-1.542,-1.5439,-1.5575,-1.5759,-1.5961,-1.6233,-1.6707,-1.7689,-1.834,-1.9309,0.8543,0.8275,0.8123,0.8147,0.8255,0.8106,0.7988,0.7988,0.7988,0.7988,0.7988,0.7988,0.8119,0.8231,0.8096,0.7942,0.7746,0.6889,0.6437,0.6234,0.5227,0.4175,0.3225,0.3124,0.2622,0.1818,0.1713,0.1513,0.1212,0.1162,0.101,0.0758,0.0505,0.0404,0.0353,0.0151,0.0,0.0,-0.0101,-0.0494,-0.1243,-0.1471,-0.2394,-0.3891,-0.4157,-0.4547,-0.5218,-0.5257,-0.5186,-0.5181,-0.4972,-0.4781,-0.4684,-0.4564,-0.4512,-0.4579,-0.4592,-0.4758,-0.502,-0.512,-0.519,-0.5359,-0.5395,-0.5428,-0.5524,-0.5557,-0.5818,-0.64,-0.6531,-0.7149,-0.8415,-0.8742,-0.9192,-1.004,-1.0269,-1.0364,-1.0586,-1.0586,-1.0586,-1.0586,-1.0586,-1.0586,-1.0586,-1.0586,-1.0586,-1.0586,-1.0624,-1.0656,-1.0776,-1.08,-1.1021,-1.1389,-1.1911,-1.2581,-1.3342,-1.3953,-1.4163,-1.446,-1.4854,-1.4787,-1.5138,-1.542,-1.5391,-1.5381,-1.5322,-1.5322,-1.541,-1.5565,-1.5778,-1.599,-1.6202,-1.6675,-1.7177,-1.7722,-1.8559,0.8391,0.8123,0.8012,0.8075,0.8113,0.8012,0.7988,0.7988,0.7988,0.7988,0.7988,0.7988,0.8022,0.8119,0.8015,0.8096,0.812,0.7632,0.7437,0.7288,0.6331,0.5629,0.5231,0.4578,0.3674,0.2772,0.2622,0.222,0.1465,0.1263,0.1162,0.1061,0.0758,0.0657,0.0606,0.0404,0.0252,0.0252,0.0101,-0.0198,0.0,-0.0524,-0.1117,-0.2313,-0.3011,-0.3749,-0.464,-0.4583,-0.4752,-0.5306,-0.5143,-0.4934,-0.4709,-0.4503,-0.4377,-0.4403,-0.4528,-0.4658,-0.4788,-0.499,-0.512,-0.519,-0.5326,-0.5395,-0.5395,-0.5395,-0.5528,-0.5719,-0.5785,-0.6272,-0.7051,-0.7735,-0.8382,-0.9096,-0.9492,-0.9849,-1.0301,-1.0523,-1.0586,-1.0586,-1.0586,-1.0586,-1.0586,-1.0586,-1.0586,-1.0586,-1.0586,-1.0618,-1.0688,-1.0751,-1.0902,-1.1122,-1.1445,-1.1712,-1.1842,-1.3374,-1.4282,-1.4529,-1.4767,-1.4811,-1.5079,-1.5029,-1.498,-1.499,-1.501,-1.5205,-1.5292,-1.5496,-1.5718,-1.5904,-1.6116,-1.6363,-1.6648,-1.7173,-1.7825,0.8466,0.845,0.8137,0.7988,0.7988,0.7988,0.7988,0.7988,0.7988,0.7988,0.7988,0.7988,0.8012,0.8099,0.8015,0.8123,0.8292,0.8062,0.7988,0.7939,0.7238,0.6736,0.6334,0.5632,0.4776,0.3773,0.3324,0.2621,0.1717,0.1415,0.1313,0.1313,0.1061,0.096,0.0909,0.0657,0.0505,0.0404,0.0202,0.0099,0.0,0.0,-0.0282,-0.0956,-0.162,-0.2599,-0.376,-0.3729,-0.4034,-0.4743,-0.48,-0.4748,-0.4678,-0.4465,-0.4303,-0.43,-0.4428,-0.4561,-0.4625,-0.4824,-0.499,-0.5087,-0.5223,-0.5326,-0.5395,-0.5395,-0.5395,-0.5395,-0.5395,-0.562,-0.6042,-0.6629,-0.7344,-0.8156,-0.8613,-0.9107,-0.9856,-1.0079,-1.0301,-1.0523,-1.0586,-1.0586,-1.0586,-1.0586,-1.0586,-1.0586,-1.0586,-1.0586,-1.0624,-1.0688,-1.0807,-1.0965,-1.1153,-1.1262,-1.1516,-1.2645,-1.3139,-1.3372,-1.393,-1.4241,-1.4531,-1.4481,-1.4552,-1.4572,-1.4766,-1.5,-1.5223,-1.5398,-1.5602,-1.5797,-1.599,-1.6239,-1.6438,-1.6627,-1.7244,0.8834,0.9324,0.8432,0.8038,0.7988,0.7988,0.7988,0.7988,0.7988,0.7988,0.7988,0.7988,0.8106,0.8194,0.8092,0.8119,0.8201,0.8099,0.7988,0.7988,0.7889,0.7397,0.6603,0.6506,0.5899,0.4839,0.3778,0.2725,0.1823,0.1773,0.1722,0.1568,0.1315,0.1212,0.1212,0.096,0.0657,0.0505,0.0404,0.025,0.0,0.0,0.0,0.0,0.0,-0.1034,-0.2732,-0.2724,-0.31,-0.3785,-0.3864,-0.4081,-0.4468,-0.4325,-0.4267,-0.4303,-0.4303,-0.4398,-0.4561,-0.4625,-0.4791,-0.4987,-0.512,-0.519,-0.5326,-0.5395,-0.5395,-0.5395,-0.5395,-0.5458,-0.5458,-0.5591,-0.6178,-0.7377,-0.7735,-0.8188,-0.9043,-0.9338,-0.9658,-1.0396,-1.0586,-1.0586,-1.0586,-1.0586,-1.0586,-1.0586,-1.0586,-1.0586,-1.0586,-1.0624,-1.0656,-1.0807,-1.0982,-1.1044,-1.1456,-1.1866,-1.1821,-1.1918,-1.2578,-1.307,-1.3424,-1.3557,-1.3836,-1.3965,-1.4611,-1.4855,-1.5078,-1.529,-1.5436,-1.5659,-1.5862,-1.6095,-1.6257,-1.6428,-1.6655,1.0217,0.9616,0.9262,0.868,0.8038,0.7988,0.7988,0.7988,0.7988,0.7988,0.7988,0.7988,0.8019,0.8092,0.8005,0.8015,0.8106,0.8005,0.7988,0.7988,0.7988,0.7892,0.7715,0.7683,0.7122,0.6093,0.502,0.3898,0.298,0.2826,0.2469,0.1799,0.1576,0.1465,0.1465,0.1212,0.101,0.0909,0.0606,0.035,0.0246,0.0098,0.0,0.0,0.0,-0.0364,-0.0898,-0.1471,-0.2195,-0.3048,-0.3067,-0.3275,-0.3642,-0.3664,-0.3763,-0.4233,-0.4303,-0.4334,-0.4398,-0.4528,-0.4625,-0.4791,-0.4954,-0.512,-0.519,-0.5326,-0.5395,-0.5395,-0.5395,-0.5395,-0.5395,-0.5395,-0.5818,-0.6695,-0.692,-0.7502,-0.864,-0.9492,-1.011,-1.0491,-1.0586,-1.0586,-1.0586,-1.0586,-1.0586,-1.0586,-1.0586,-1.0586,-1.0586,-1.0586,-1.0649,-1.0807,-1.0867,-1.0878,-1.1074,-1.1165,-1.1084,-1.1225,-1.1739,-1.2054,-1.2368,-1.2964,-1.3184,-1.3628,-1.4268,-1.4699,-1.4922,-1.5096,-1.5202,-1.5505,-1.5758,-1.5923,-1.6066,-1.6257,-1.6457,1.1325,1.069,0.9899,0.9217,0.8528,0.8187,0.7988,0.7988,0.7988,0.7988,0.7988,0.7988,0.7988,0.7988,0.7988,0.7988,0.7988,0.7988,0.7988,0.7988,0.7988,0.8046,0.818,0.8184,0.7655,0.6759,0.599,0.5136,0.4076,0.3607,0.3027,0.2383,0.1898,0.1627,0.1568,0.1415,0.1313,0.1162,0.0909,0.0653,0.0546,0.0394,0.0291,0.0,0.0,0.0139,0.0092,-0.0544,-0.1289,-0.2038,-0.2403,-0.2715,-0.2965,-0.2907,-0.3118,-0.3703,-0.3894,-0.3997,-0.4267,-0.4398,-0.4528,-0.4625,-0.4788,-0.499,-0.509,-0.5223,-0.5292,-0.5395,-0.5395,-0.5395,-0.5395,-0.5395,-0.5591,-0.5943,-0.6141,-0.6724,-0.7854,-0.9128,-0.9881,-1.0104,-1.0371,-1.0555,-1.0586,-1.0586,-1.0586,-1.0586,-1.0586,-1.0586,-1.0586,-1.0586,-1.0649,-1.0751,-1.08,-1.0722,-1.059,-1.0513,-1.0394,-1.0664,-1.1071,-1.1236,-1.1434,-1.2394,-1.2947,-1.3494,-1.4109,-1.4406,-1.4639,-1.4678,-1.4784,-1.5172,-1.5564,-1.5817,-1.5951,-1.6056,-1.6257,1.2309,1.2424,1.0538,0.9657,0.9365,0.8432,0.7988,0.7988,0.7988,0.7988,0.7988,0.7988,0.7988,0.7988,0.7988,0.7988,0.7988,0.7988,0.7988,0.7988,0.7992,0.8015,0.8102,0.8109,0.7668,0.7032,0.6838,0.6274,0.5314,0.4523,0.3594,0.3239,0.2389,0.17,0.1678,0.1568,0.1465,0.1263,0.1212,0.1059,0.0804,0.0795,0.0735,0.0731,0.0521,0.0422,0.0283,0.0,-0.0446,-0.1214,-0.1751,-0.2029,-0.2165,-0.2138,-0.2359,-0.3064,-0.3117,-0.3522,-0.403,-0.4131,-0.4298,-0.4525,-0.4625,-0.4725,-0.4987,-0.509,-0.519,-0.5326,-0.5359,-0.5395,-0.5395,-0.5395,-0.5428,-0.5428,-0.5653,-0.6108,-0.6724,-0.8221,-0.9037,-0.9332,-0.9945,-1.046,-1.0364,-1.0428,-1.0491,-1.0586,-1.0586,-1.0586,-1.0586,-1.0586,-1.0586,-1.0649,-1.0719,-1.0568,-1.0407,-1.0316,-1.0179,-1.0046,-1.042,-1.0585,-1.0815,-1.1748,-1.2681,-1.3278,-1.3898,-1.4155,-1.4365,-1.4445,-1.4572,-1.4882,-1.526,-1.5621,-1.5796,-1.5861,-1.6085,1.373,1.2881,1.1379,1.0342,0.9509,0.8482,0.7988,0.7988,0.7988,0.7988,0.7988,0.7988,0.7988,0.7988,0.7988,0.7988,0.7988,0.7988,0.7988,0.7988,0.7988,0.8109,0.8191,0.8208,0.8173,0.7978,0.7887,0.7492,0.6537,0.6114,0.5179,0.3494,0.3199,0.2538,0.1803,0.1678,0.1567,0.1465,0.1263,0.1204,0.1093,0.09,0.0791,0.077,0.0723,0.0576,0.0381,0.014,-0.009,-0.0305,-0.05,-0.0875,-0.137,-0.1388,-0.1687,-0.2237,-0.2417,-0.2716,-0.332,-0.3487,-0.3756,-0.4328,-0.4425,-0.4625,-0.4725,-0.4957,-0.5087,-0.5223,-0.5292,-0.5395,-0.5395,-0.5395,-0.5395,-0.5458,-0.5752,-0.617,-0.6691,-0.747,-0.8199,-0.8458,-0.8742,-0.9192,-0.962,-0.9811,-1.0009,-1.0396,-1.0523,-1.0586,-1.0555,-1.0586,-1.0586,-1.0586,-1.0602,-1.0407,-1.023,-1.0155,-0.9938,-0.9574,-0.9744,-1.0061,-1.0484,-1.1218,-1.2088,-1.2842,-1.3668,-1.4115,-1.4274,-1.4416,-1.4562,-1.4718,-1.495,-1.5289,-1.5442,-1.5535,-1.5909,1.4681,1.3672,1.2389,1.1219,1.0194,0.9122,0.8435,0.8038,0.7988,0.7988,0.7988,0.7988,0.7988,0.7988,0.7988,0.7988,0.7988,0.7988,0.7988,0.7988,0.7988,0.8085,0.8153,0.8174,0.8279,0.8521,0.8535,0.8232,0.7729,0.7322,0.6307,0.5206,0.4402,0.3498,0.2537,0.2293,0.2019,0.1667,0.1465,0.1356,0.1345,0.1205,0.115,0.1078,0.1031,0.0825,0.0567,0.0328,0.0138,0.0,0.0,-0.0207,-0.0549,-0.0647,-0.0947,-0.1621,-0.1674,-0.1972,-0.2554,-0.2748,-0.2917,-0.3353,-0.372,-0.4023,-0.4189,-0.4556,-0.4888,-0.5087,-0.5223,-0.5292,-0.5395,-0.5395,-0.5395,-0.5428,-0.5752,-0.6046,-0.6174,-0.6822,-0.7279,-0.7605,-0.7962,-0.835,-0.8909,-0.9,-0.9416,-0.9875,-1.0072,-1.0295,-1.0523,-1.0548,-1.0553,-1.0512,-1.0425,-1.0215,-1.0018,-0.9894,-0.9817,-0.9473,-0.9396,-0.9688,-1.0367,-1.0955,-1.1605,-1.2458,-1.3365,-1.3999,-1.4093,-1.4299,-1.4591,-1.4728,-1.4863,-1.5057,-1.5297,-1.5432,-1.5813,1.5257,1.4677,1.329,1.2193,1.1268,1.0194,0.9316,0.8528,0.8528,0.8432,0.8283,0.8187,0.8184,0.7988,0.7988,0.7988,0.7988,0.7988,0.7988,0.7988,0.7988,0.8005,0.8012,0.8019,0.8225,0.8442,0.8535,0.8605,0.8459,0.7753,0.726,0.6616,0.575,0.4752,0.3698,0.3321,0.268,0.202,0.1667,0.156,0.1555,0.1509,0.1508,0.1447,0.124,0.1069,0.0808,0.0566,0.0281,0.0,0.0,0.0,0.0,0.0,-0.0309,-0.0825,-0.1014,-0.1277,-0.1856,-0.2013,-0.208,-0.2347,-0.2848,-0.3151,-0.3384,-0.3854,-0.4323,-0.4722,-0.4954,-0.5057,-0.5359,-0.5395,-0.5395,-0.5428,-0.5428,-0.5428,-0.5557,-0.6108,-0.6588,-0.6621,-0.7414,-0.7837,-0.8129,-0.827,-0.857,-0.9129,-0.9337,-0.9501,-0.9779,-0.992,-1.01,-1.0325,-1.0187,-1.0017,-0.9829,-0.9652,-0.9546,-0.9378,-0.933,-0.9624,-1.0441,-1.102,-1.1364,-1.2062,-1.3158,-1.3645,-1.3681,-1.3997,-1.4463,-1.4699,-1.4805,-1.5125,-1.5486,-1.5543,-1.5807,1.562,1.5219,1.365,1.278,1.2242,1.1317,1.0734,1.044,1.044,0.9948,0.941,0.9266,0.8775,0.8038,0.8038,0.7988,0.7988,0.7988,0.7988,0.7988,0.7988,0.7988,0.7988,0.7988,0.8153,0.8411,0.8531,0.8645,0.8698,0.853,0.8033,0.7152,0.6867,0.6015,0.4859,0.4,0.3268,0.2781,0.2071,0.1657,0.1594,0.1607,0.1607,0.1541,0.1348,0.1191,0.1021,0.0671,0.0377,0.0276,0.0,0.0,0.0,0.0,0.0,0.0,0.0,-0.059,-0.115,-0.1344,-0.1545,-0.1946,-0.2146,-0.2347,-0.238,-0.2716,-0.322,-0.372,-0.4084,-0.4486,-0.516,-0.5362,-0.5395,-0.5395,-0.5395,-0.5395,-0.5425,-0.5554,-0.5785,-0.591,-0.6108,-0.6465,-0.727,-0.7264,-0.7655,-0.8256,-0.8521,-0.8632,-0.8981,-0.9367,-0.9708,-1.0093,-1.0023,-0.9846,-0.9586,-0.9394,-0.9315,-0.9282,-0.9271,-0.9429,-1.0268,-1.074,-1.0979,-1.1891,-1.3081,-1.3289,-1.3095,-1.3894,-1.4394,-1.4556,-1.4766,-1.5027,-1.529,-1.5466,-1.573,1.5853,1.5381,1.4314,1.3414,1.2678,1.2242,1.1755,1.1317,1.1365,1.1023,1.0342,0.9899,0.9266,0.8726,0.8233,0.7988,0.7988,0.7988,0.7988,0.7988,0.7988,0.7988,0.7988,0.8005,0.8116,0.8364,0.8432,0.8554,0.876,0.879,0.8475,0.7974,0.7856,0.7212,0.6173,0.5332,0.4412,0.3383,0.2758,0.223,0.1701,0.1607,0.1562,0.1597,0.1456,0.1402,0.1326,0.1011,0.0756,0.0554,0.0359,0.0131,0.0,0.0,0.0,0.0,0.0,0.0,-0.0514,-0.0606,-0.0707,-0.1109,-0.141,-0.1578,-0.1745,-0.198,-0.245,-0.2883,-0.3218,-0.3651,-0.4622,-0.5259,-0.5326,-0.5395,-0.5395,-0.5395,-0.5395,-0.5395,-0.5425,-0.5488,-0.5653,-0.591,-0.6221,-0.6449,-0.6818,-0.7451,-0.7588,-0.7784,-0.8993,-0.9369,-0.9579,-0.982,-0.9767,-0.9626,-0.9331,-0.9165,-0.9065,-0.9092,-0.917,-0.9386,-0.9891,-1.0208,-1.0432,-1.1306,-1.212,-1.2379,-1.2413,-1.334,-1.4235,-1.4622,-1.4814,-1.4902,-1.5077,-1.537,-1.5642,1.6124,1.5545,1.5039,1.4136,1.3167,1.327,1.2829,1.1999,1.1999,1.1999,1.1365,1.044,1.0096,0.946,0.873,0.8237,0.8038,0.7988,0.7988,0.7988,0.7988,0.7988,0.7995,0.8039,0.8153,0.8316,0.8323,0.8489,0.8669,0.874,0.8716,0.8763,0.8767,0.811,0.7409,0.6895,0.5863,0.4318,0.3791,0.3215,0.2423,0.2119,0.1917,0.1564,0.1563,0.1557,0.1483,0.131,0.1093,0.0837,0.0592,0.0312,0.0132,0.0,0.0,0.0,0.0,0.0,0.0,0.0,0.0,0.0,-0.0538,-0.0874,-0.1076,-0.1344,-0.1746,-0.2182,-0.2582,-0.3182,-0.3915,-0.4788,-0.5292,-0.5395,-0.5395,-0.5395,-0.5395,-0.5395,-0.5395,-0.5395,-0.5491,-0.5686,-0.5745,-0.5901,-0.6251,-0.6533,-0.6673,-0.7101,-0.8286,-0.9035,-0.9048,-0.9285,-0.9249,-0.9311,-0.9078,-0.9018,-0.8911,-0.8964,-0.9036,-0.9341,-0.9637,-0.9895,-1.0141,-1.0211,-1.0743,-1.1257,-1.193,-1.2784,-1.3626,-1.4382,-1.4771,-1.4783,-1.4994,-1.5274,-1.5447,1.6586,1.5836,1.5507,1.5099,1.4706,1.4496,1.4394,1.4442,1.41,1.3661,1.2775,1.2339,1.1121,0.9998,0.9509,0.8874,0.8333,0.8088,0.7998,0.8005,0.8008,0.8012,0.8052,0.8187,0.8252,0.8347,0.8384,0.855,0.8703,0.8828,0.8828,0.8791,0.8849,0.8573,0.8078,0.7422,0.6706,0.5639,0.4989,0.4405,0.3882,0.3175,0.2421,0.1818,0.1667,0.1562,0.1554,0.1332,0.1162,0.1092,0.0651,0.0455,0.0312,0.0132,0.0,0.0,0.0,0.0,0.0,0.0,0.0,0.0,0.0,0.0,0.0,0.0,-0.0841,-0.1478,-0.2415,-0.3382,-0.3949,-0.4553,-0.5123,-0.5326,-0.5395,-0.5395,-0.5395,-0.5395,-0.5395,-0.5395,-0.5425,-0.543,-0.5474,-0.5519,-0.5705,-0.5872,-0.5931,-0.6277,-0.7138,-0.7688,-0.7851,-0.8221,-0.8609,-0.8771,-0.8825,-0.8838,-0.8831,-0.8884,-0.9024,-0.9267,-0.9541,-0.9768,-0.9924,-1.0146,-1.0491,-1.1138,-1.1812,-1.2391,-1.3159,-1.4026,-1.4363,-1.46,-1.4754,-1.4883,-1.4949,1.661,1.6077,1.5693,1.5348,1.5143,1.5124,1.5124,1.5083,1.507,1.4682,1.3902,1.3167,1.2339,1.1268,1.0587,0.9854,0.8973,0.8187,0.8082,0.8136,0.816,0.8208,0.8248,0.8402,0.8428,0.8496,0.8581,0.8632,0.8706,0.8774,0.8821,0.8859,0.891,0.8855,0.8625,0.8157,0.7366,0.6738,0.609,0.5422,0.4828,0.3775,0.2923,0.2521,0.1869,0.1617,0.156,0.1488,0.1314,0.1192,0.0935,0.0729,0.0535,0.0352,0.0129,0.0,0.0,0.0,0.0,0.0,0.0,0.0,0.0,0.0,0.0,0.0,0.0,-0.0706,-0.1477,-0.2412,-0.2544,-0.378,-0.4483,-0.4755,-0.5057,-0.5292,-0.5395,-0.5395,-0.5362,-0.5362,-0.5425,-0.5377,-0.5292,-0.5286,-0.5302,-0.5276,-0.5248,-0.5641,-0.6207,-0.6639,-0.7051,-0.7595,-0.8084,-0.8215,-0.8421,-0.8586,-0.8639,-0.8712,-0.8978,-0.9248,-0.9535,-0.9785,-1.0059,-1.0271,-1.0703,-1.0983,-1.1451,-1.1989,-1.2846,-1.3593,-1.3914,-1.4165,-1.4319,-1.4443,-1.4584,1.6593,1.616,1.5748,1.5456,1.5274,1.5404,1.5404,1.5315,1.5404,1.5255,1.4783,1.395,1.327,1.2587,1.1658,1.0681,0.9854,0.9019,0.8814,0.8686,0.8663,0.8642,0.8497,0.853,0.8581,0.8648,0.874,0.8737,0.8723,0.8774,0.8821,0.8849,0.8844,0.8913,0.8787,0.8618,0.7971,0.7503,0.7027,0.6396,0.5199,0.4325,0.3674,0.3423,0.2471,0.1969,0.2015,0.1697,0.1515,0.1293,0.1172,0.1005,0.0793,0.0575,0.0347,0.0123,0.0,0.0,0.0,0.0,0.0,0.0,0.0,0.0,0.0,0.0,0.0,0.0,-0.0806,-0.1408,-0.1775,-0.2744,-0.3547,-0.3915,-0.4384,-0.4921,-0.5024,-0.5123,-0.5193,-0.5259,-0.5362,-0.5347,-0.5288,-0.5168,-0.5196,-0.5166,-0.5148,-0.525,-0.5797,-0.6253,-0.6686,-0.7219,-0.7596,-0.7693,-0.7904,-0.8256,-0.8342,-0.8395,-0.8804,-0.9187,-0.9535,-0.9868,-1.0115,-1.0365,-1.0315,-1.0628,-1.1095,-1.147,-1.2005,-1.2619,-1.3305,-1.3654,-1.3634,-1.399,-1.4314,1.664,1.5863,1.5842,1.5825,1.5709,1.5588,1.5594,1.5689,1.5547,1.5445,1.5309,1.4975,1.4148,1.3082,1.1873,1.1228,1.0979,1.0672,1.0237,0.9794,0.9564,0.9198,0.866,0.8632,0.8686,0.8757,0.8849,0.8821,0.8784,0.8849,0.8784,0.8757,0.8828,0.8886,0.8801,0.874,0.8514,0.8198,0.8077,0.748,0.6414,0.5937,0.5329,0.4576,0.3673,0.3022,0.2923,0.2405,0.1878,0.1675,0.138,0.1154,0.0971,0.0784,0.0554,0.0329,0.0,0.0,0.0,0.0,0.0,0.0,0.0,0.0,0.0,0.0,0.0,0.0,-0.0673,-0.1041,-0.1241,-0.2045,-0.2646,-0.298,-0.3313,-0.3851,-0.4187,-0.4453,-0.4589,-0.5024,-0.5093,-0.5246,-0.5324,-0.5206,-0.5102,-0.5048,-0.5053,-0.5181,-0.5357,-0.5801,-0.6151,-0.6606,-0.7012,-0.7149,-0.7316,-0.7691,-0.7937,-0.8043,-0.8613,-0.9077,-0.9347,-0.9674,-1.0189,-1.0333,-1.0272,-1.0243,-1.0606,-1.0923,-1.1148,-1.1698,-1.2463,-1.2752,-1.2825,-1.3282,-1.3816,1.658,1.6079,1.5888,1.5802,1.5784,1.5689,1.5737,1.5784,1.5737,1.5588,1.5493,1.5404,1.4825,1.3871,1.2905,1.2459,1.2201,1.1771,1.1413,1.0948,1.0446,0.9903,0.967,0.9124,0.8838,0.89,0.8838,0.8851,0.8821,0.8831,0.8834,0.8807,0.8844,0.8861,0.8815,0.875,0.8652,0.8457,0.8322,0.8037,0.7452,0.6779,0.6184,0.5729,0.4676,0.4225,0.3976,0.3772,0.3361,0.3167,0.2712,0.2207,0.201,0.1718,0.1363,0.0695,0.0875,0.0,0.0,0.0,0.0,0.0,0.0,0.0,0.0,0.0,0.0,0.0,0.0,0.0,0.0,-0.1308,-0.1709,-0.2043,-0.2379,-0.2913,-0.3382,-0.3585,-0.3887,-0.4356,-0.4815,-0.4923,-0.5032,-0.4976,-0.4877,-0.4879,-0.4883,-0.4916,-0.5057,-0.5286,-0.5593,-0.5859,-0.626,-0.6561,-0.6777,-0.7047,-0.7375,-0.7653,-0.8425,-0.8839,-0.9054,-0.9407,-0.995,-1.0246,-1.0243,-1.0243,-1.0291,-1.0594,-1.0993,-1.1349,-1.1703,-1.185,-1.2051,-1.2417,-1.3037,1.6426,1.6146,1.5919,1.5825,1.5825,1.5825,1.5825,1.5825,1.5778,1.5683,1.5588,1.5493,1.5255,1.4815,1.4206,1.3751,1.3528,1.2817,1.2566,1.221,1.1639,1.1181,1.0816,1.0093,0.9318,0.9316,0.8978,0.8927,0.8875,0.8881,0.8878,0.8937,0.8875,0.8875,0.8851,0.8784,0.8743,0.8659,0.8404,0.8279,0.8028,0.7302,0.6954,0.6484,0.5879,0.5225,0.5177,0.4774,0.464,0.4313,0.385,0.3354,0.3114,0.2858,0.2487,0.1955,0.2023,0.1596,0.0838,0.0,0.0,0.0,0.0,0.0,0.0,0.0,0.0,0.0,0.0,0.0,0.0,0.0,-0.0906,-0.1275,-0.1643,-0.2179,-0.2614,-0.2781,-0.3151,-0.3718,-0.4132,-0.4347,-0.447,-0.4584,-0.464,-0.4684,-0.4699,-0.4719,-0.4857,-0.5026,-0.5219,-0.5525,-0.5704,-0.5996,-0.6132,-0.6404,-0.6734,-0.7215,-0.7993,-0.863,-0.8871,-0.9225,-0.9707,-0.9936,-1.0059,-0.9981,-0.989,-1.0366,-1.0805,-1.0795,-1.083,-1.1083,-1.1319,-1.1735,-1.2582,1.6132,1.5804,1.5791,1.5825,1.5825,1.5825,1.5825,1.5825,1.5825,1.5778,1.573,1.5588,1.5493,1.5328,1.5092,1.4865,1.4885,1.4863,1.4463,1.3903,1.3388,1.2801,1.2186,1.1274,1.0275,1.0218,0.9644,0.9154,0.8937,0.8937,0.8937,0.8937,0.8937,0.8937,0.8875,0.8899,0.8828,0.8716,0.8472,0.8371,0.8258,0.7951,0.7809,0.759,0.6886,0.6287,0.6234,0.5577,0.5138,0.5005,0.4703,0.4384,0.4138,0.3929,0.3601,0.3212,0.3185,0.2705,0.1852,0.0794,0.0,0.0,0.0,0.0,0.0,0.0,0.0,0.0,0.0,0.0,0.0,-0.0101,-0.037,-0.0572,-0.0941,-0.1276,-0.1679,-0.1913,-0.2348,-0.3015,-0.3394,-0.3624,-0.3858,-0.3977,-0.4478,-0.4596,-0.4619,-0.4639,-0.4799,-0.4945,-0.5073,-0.5262,-0.5329,-0.5462,-0.5485,-0.5786,-0.6218,-0.671,-0.7356,-0.8147,-0.8756,-0.9144,-0.9339,-0.9521,-0.9604,-0.9559,-0.9599,-1.001,-1.0196,-0.9986,-1.0032,-1.0482,-1.1068,-1.1646,-1.2704,1.6099,1.5784,1.5825,1.5825,1.5825,1.5825,1.5825,1.5825,1.5825,1.5825,1.5825,1.5737,1.5642,1.5538,1.5599,1.547,1.536,1.5328,1.5356,1.5094,1.449,1.3958,1.3338,1.2602,1.1472,1.0878,1.0186,0.9482,0.894,0.9154,0.8937,0.8937,0.8992,0.8937,0.8937,0.8937,0.8893,0.8821,0.8645,0.8509,0.8377,0.8262,0.814,0.7892,0.7739,0.7388,0.7338,0.7033,0.668,0.6337,0.5845,0.5443,0.5175,0.4986,0.4617,0.4162,0.421,0.3805,0.2848,0.1684,0.0744,0.0,0.0,0.0,0.0,0.0,0.0,0.0,0.0,0.0,0.0,0.0,-0.0101,-0.0135,-0.0303,-0.0606,-0.0841,-0.1177,-0.1545,-0.2248,-0.2569,-0.2781,-0.3091,-0.335,-0.3964,-0.449,-0.4532,-0.4567,-0.4723,-0.4877,-0.4973,-0.5108,-0.5207,-0.5246,-0.5297,-0.5513,-0.5786,-0.6279,-0.6783,-0.7444,-0.8184,-0.8549,-0.8764,-0.8968,-0.9207,-0.9257,-0.9381,-0.9614,-0.9716,-0.9695,-0.984,-1.0109,-1.0758,-1.1503,-1.256,1.6019,1.5838,1.5825,1.5825,1.5825,1.5825,1.5825,1.5825,1.5825,1.5825,1.5825,1.5778,1.5737,1.566,1.5724,1.575,1.5619,1.5605,1.5967,1.5775,1.5337,1.5078,1.4743,1.4067,1.2885,1.1892,1.1269,1.0781,0.9644,0.9809,0.9809,0.9699,0.9427,0.9372,0.8937,0.8937,0.8937,0.8903,0.8788,0.8638,0.8479,0.8336,0.8191,0.8015,0.7889,0.7889,0.7819,0.7681,0.7589,0.7276,0.6904,0.6463,0.6177,0.5924,0.5513,0.5218,0.4988,0.4885,0.3873,0.2676,0.1538,0.0,0.0,0.0,0.0,0.0,0.0,0.0,0.0,0.0,0.0,0.0,0.0,0.0,0.0,-0.0337,-0.0438,-0.0707,-0.1043,-0.1479,-0.1706,-0.1967,-0.2601,-0.2936,-0.347,-0.413,-0.4519,-0.4551,-0.464,-0.4758,-0.4862,-0.5001,-0.5143,-0.5179,-0.5242,-0.5407,-0.5622,-0.6059,-0.6524,-0.679,-0.7346,-0.7777,-0.8175,-0.8433,-0.8665,-0.8929,-0.9199,-0.9451,-0.9561,-0.9595,-0.9829,-1.0132,-1.0539,-1.1267,-1.2038,1.5845,1.5825,1.5825,1.5825,1.5825,1.5825,1.5825,1.5825,1.5825,1.5825,1.5825,1.5825,1.5825,1.5791,1.5803,1.5777,1.5777,1.5817,1.6102,1.6311,1.6114,1.6362,1.6185,1.5452,1.4434,1.4218,1.327,1.2023,1.0781,1.1383,1.1328,1.0836,1.0457,0.9915,0.8992,0.8937,0.8937,0.8916,0.8737,0.8662,0.8516,0.8377,0.8231,0.8116,0.7998,0.7992,0.7971,0.7867,0.7777,0.7533,0.7379,0.7031,0.6868,0.6743,0.657,0.6424,0.6319,0.59,0.4971,0.3593,0.2497,0.1506,0.1265,0.0952,0.029,0.0,0.0,0.0,0.0,0.0,0.0,0.0,0.0,0.0,0.0,-0.0101,-0.0236,-0.0371,-0.0741,-0.0977,-0.0977,-0.1143,-0.1929,-0.2577,-0.3034,-0.36,-0.4285,-0.4518,-0.4464,-0.4671,-0.4807,-0.4923,-0.5066,-0.5093,-0.5156,-0.5242,-0.5489,-0.5918,-0.6191,-0.6401,-0.6651,-0.7073,-0.7458,-0.7818,-0.8217,-0.8534,-0.8935,-0.929,-0.9482,-0.9693,-0.9987,-1.0282,-1.0614,-1.1069,-1.1869,1.6386,1.5825,1.5825,1.5825,1.5825,1.5825,1.5825,1.5825,1.5825,1.5825,1.5825,1.5825,1.5825,1.5825,1.5825,1.5832,1.5811,1.6099,1.6393,1.6653,1.664,1.6877,1.6852,1.6542,1.5777,1.4978,1.4137,1.3539,1.2457,1.2896,1.262,1.2018,1.1319,1.0025,0.921,0.8937,0.8937,0.8878,0.8817,0.8791,0.8635,0.8486,0.8336,0.8187,0.8046,0.7992,0.7975,0.7885,0.7733,0.7597,0.7494,0.7288,0.7122,0.7014,0.6947,0.6851,0.6702,0.6344,0.5737,0.4917,0.4056,0.2953,0.2085,0.1718,0.0968,0.0789,0.0,0.0,0.0,0.0,0.0,0.0,0.0,0.0,0.0,0.0,-0.0101,-0.0236,-0.0472,-0.0573,-0.0641,-0.0876,-0.1438,-0.1941,-0.241,-0.2747,-0.3332,-0.3865,-0.3943,-0.4447,-0.4751,-0.4836,-0.4932,-0.5001,-0.5077,-0.5227,-0.5318,-0.5618,-0.5753,-0.5841,-0.6136,-0.6472,-0.6842,-0.7246,-0.7738,-0.8184,-0.856,-0.8962,-0.951,-0.9834,-1.0079,-1.036,-1.0674,-1.1123,-1.1775,1.7138,1.6756,1.6062,1.6015,1.6204,1.5967,1.5825,1.5825,1.5825,1.5825,1.5825,1.5825,1.5825,1.5825,1.5825,1.5825,1.5818,1.6139,1.6426,1.6714,1.7052,1.7236,1.7285,1.7279,1.6711,1.5873,1.5494,1.5007,1.3917,1.4078,1.3917,1.3324,1.2512,1.1651,1.0515,0.9702,0.8937,0.8878,0.8906,0.879,0.8699,0.8554,0.8408,0.8262,0.814,0.7988,0.7934,0.7862,0.7699,0.757,0.7414,0.7258,0.7122,0.7078,0.7021,0.6889,0.6719,0.6428,0.6081,0.5857,0.4985,0.4167,0.3348,0.2566,0.1895,0.161,0.1328,0.0988,0.055,0.0,0.0,0.037,0.0,0.0,0.0,0.0,0.0,0.0,-0.0236,-0.0337,-0.0472,-0.0707,-0.0973,-0.1284,-0.1704,-0.2017,-0.2367,-0.2863,-0.3398,-0.3931,-0.4407,-0.4531,-0.478,-0.4934,-0.5091,-0.5305,-0.5361,-0.5394,-0.5501,-0.5609,-0.5637,-0.5981,-0.6338,-0.664,-0.7004,-0.7423,-0.8084,-0.8606,-0.9185,-0.9731,-1.014,-1.0413,-1.0704,-1.1204,-1.1795,1.7924,1.8419,1.6709,1.648,1.7044,1.6204,1.5825,1.5825,1.5825,1.5838,1.5858,1.5852,1.5858,1.5858,1.5845,1.5825,1.5919,1.6172,1.6453,1.6754,1.7125,1.7341,1.7508,1.7536,1.7213,1.7173,1.6849,1.6146,1.5274,1.5648,1.5541,1.49,1.4191,1.3275,1.1978,1.068,0.9644,0.9427,0.8982,0.8849,0.8713,0.856,0.8414,0.8272,0.8133,0.8005,0.7907,0.7794,0.7658,0.7506,0.728,0.7159,0.7095,0.7095,0.7004,0.6885,0.663,0.6441,0.6256,0.606,0.5899,0.5237,0.4644,0.3709,0.2921,0.2449,0.2165,0.1809,0.1422,0.1261,0.1143,0.0706,0.0,0.0,0.0,0.0,0.0,0.0,0.0,-0.0202,-0.0304,-0.0505,-0.0805,-0.1057,-0.129,-0.1437,-0.1721,-0.198,-0.2524,-0.3229,-0.3669,-0.3978,-0.43,-0.4854,-0.5078,-0.5289,-0.5449,-0.5462,-0.5591,-0.5682,-0.5637,-0.5549,-0.5839,-0.6082,-0.6214,-0.6792,-0.7925,-0.8562,-0.8897,-0.948,-1.0293,-1.0493,-1.077,-1.1217,-1.1677,1.9201,1.8742,1.8187,1.7692,1.7185,1.6251,1.5825,1.5825,1.5832,1.5884,1.6132,1.5919,1.5985,1.6126,1.5932,1.5865,1.6025,1.6293,1.6553,1.6854,1.7188,1.7428,1.7555,1.7589,1.7536,1.743,1.7272,1.7047,1.6817,1.7147,1.6995,1.6418,1.5334,1.4471,1.3604,1.225,1.1214,1.0225,0.9567,0.905,0.881,0.86,0.846,0.8269,0.8123,0.8005,0.7921,0.7763,0.7638,0.755,0.7257,0.7109,0.7095,0.7085,0.7007,0.6783,0.658,0.6453,0.633,0.6219,0.6138,0.598,0.5509,0.4807,0.3995,0.3391,0.3056,0.2701,0.2221,0.1928,0.1779,0.1411,0.1008,0.0841,0.0673,0.0,0.0,0.0,-0.0034,-0.0101,-0.0202,-0.0438,-0.0705,-0.0856,-0.1027,-0.1062,-0.1158,-0.1371,-0.1751,-0.2484,-0.2956,-0.3272,-0.3792,-0.4295,-0.4955,-0.5269,-0.544,-0.557,-0.5703,-0.5733,-0.5563,-0.549,-0.5496,-0.568,-0.5996,-0.6971,-0.8214,-0.8567,-0.8531,-0.9851,-1.0703,-1.0733,-1.0872,-1.1298,-1.1577,2.0158,1.9849,1.9109,1.8241,1.7301,1.6802,1.6382,1.6053,1.6005,1.6172,1.64,1.6273,1.6279,1.64,1.6273,1.6159,1.6079,1.6587,1.684,1.6834,1.7308,1.7488,1.7582,1.7589,1.7589,1.7536,1.7457,1.7358,1.7423,1.7337,1.7173,1.7014,1.5933,1.5654,1.5055,1.4078,1.3106,1.1936,1.082,0.9757,0.9254,0.8822,0.8415,0.831,0.8116,0.8005,0.7961,0.7784,0.7675,0.759,0.7336,0.7156,0.717,0.7085,0.696,0.6763,0.6641,0.6501,0.6351,0.63,0.618,0.6099,0.6018,0.5628,0.5064,0.4466,0.4053,0.3629,0.3008,0.2514,0.2414,0.2246,0.1879,0.1545,0.121,0.0875,0.0,0.0,0.0067,0.0,-0.0169,-0.0405,-0.0567,-0.0687,-0.0836,-0.0981,-0.1027,-0.1099,-0.1404,-0.1901,-0.2315,-0.2596,-0.3169,-0.3725,-0.4392,-0.5031,-0.5258,-0.551,-0.5968,-0.5927,-0.5607,-0.5616,-0.5756,-0.5835,-0.5926,-0.6894,-0.7783,-0.7918,-0.8142,-0.949,-1.0486,-1.0557,-1.0728,-1.1305,-1.1518,2.0951,2.1518,1.9754,1.8465,1.7557,1.775,1.7353,1.6474,1.657,1.6592,1.6757,1.67,1.6673,1.6707,1.6613,1.6473,1.6493,1.6884,1.7025,1.6767,1.7308,1.7575,1.7589,1.7589,1.7589,1.7589,1.7562,1.7449,1.7281,1.7255,1.7212,1.7213,1.7067,1.6711,1.6159,1.54,1.4596,1.3944,1.2298,1.0879,1.0253,0.9405,0.8412,0.8421,0.8223,0.7985,0.7948,0.7833,0.7733,0.7594,0.7428,0.7258,0.7187,0.7018,0.6859,0.6759,0.662,0.6464,0.6358,0.63,0.63,0.6257,0.6257,0.606,0.5651,0.5213,0.4792,0.4398,0.3832,0.3455,0.33,0.3032,0.2684,0.2315,0.198,0.1612,0.121,0.0807,0.0438,0.0303,0.0,-0.0236,-0.0469,-0.0592,-0.0743,-0.0896,-0.1016,-0.0998,-0.1141,-0.151,-0.178,-0.2073,-0.2546,-0.3152,-0.3836,-0.4448,-0.4951,-0.5363,-0.5794,-0.5994,-0.5654,-0.5804,-0.6061,-0.605,-0.599,-0.6314,-0.6921,-0.7305,-0.7912,-0.8817,-0.9675,-1.008,-1.0547,-1.1076,-1.1441,2.1944,2.2044,2.0888,1.9655,1.8574,1.8871,1.8417,1.7529,1.7988,1.7757,1.7147,1.6891,1.6834,1.6981,1.6814,1.6653,1.6687,1.6965,1.7119,1.7152,1.7447,1.7535,1.7582,1.7569,1.7582,1.7589,1.7569,1.7482,1.746,1.7308,1.7281,1.745,1.7351,1.7062,1.6736,1.6072,1.5704,1.535,1.4021,1.246,1.1624,1.0412,0.9384,0.9037,0.8676,0.8077,0.7911,0.7794,0.7682,0.7563,0.7322,0.7197,0.7098,0.6893,0.6797,0.6685,0.6522,0.6422,0.6344,0.63,0.63,0.63,0.6296,0.6257,0.6078,0.5792,0.543,0.5064,0.472,0.4394,0.4101,0.3777,0.35,0.3125,0.2681,0.228,0.1879,0.1377,0.0874,0.0605,0.0269,0.0,-0.0234,-0.0464,-0.0651,-0.0806,-0.0934,-0.0992,-0.0992,-0.1232,-0.1495,-0.178,-0.1999,-0.2586,-0.3267,-0.3741,-0.4175,-0.463,-0.4987,-0.53,-0.5597,-0.5887,-0.6099,-0.6053,-0.6075,-0.6366,-0.6768,-0.7293,-0.7964,-0.8544,-0.8918,-0.9357,-0.9974,-1.0537,-1.1017,2.1676,2.1459,2.1132,2.04,1.9641,1.9808,1.9351,1.8586,1.8624,1.8404,1.7777,1.7364,1.7121,1.7219,1.7018,1.67,1.6737,1.7018,1.6918,1.6978,1.7367,1.7422,1.7488,1.7581,1.7575,1.7569,1.7301,1.7215,1.7422,1.7188,1.7094,1.7455,1.7318,1.7107,1.6864,1.6612,1.6289,1.603,1.5078,1.4213,1.2953,1.1425,0.9921,0.9373,0.8718,0.8156,0.7909,0.7753,0.7645,0.7465,0.7204,0.7092,0.7007,0.6878,0.6736,0.6647,0.6512,0.6368,0.6323,0.63,0.63,0.63,0.63,0.6257,0.6257,0.598,0.5767,0.539,0.4999,0.4665,0.4485,0.4191,0.4106,0.3842,0.3212,0.2681,0.2246,0.1779,0.1544,0.1444,0.1042,0.0572,0.0268,-0.0235,-0.043,-0.076,-0.089,-0.1018,-0.1018,-0.1014,-0.1262,-0.1472,-0.1673,-0.2001,-0.2575,-0.2965,-0.3322,-0.3754,-0.4188,-0.4704,-0.5148,-0.5737,-0.6081,-0.6041,-0.6129,-0.6353,-0.6804,-0.7145,-0.7548,-0.8004,-0.834,-0.8639,-0.9308,-0.999,-1.0611,2.0943,2.0625,2.101,2.0766,2.0359,2.0726,2.0305,1.9383,1.9034,1.8907,1.8799,1.8126,1.7616,1.7266,1.7377,1.6924,1.6764,1.7159,1.6945,1.6891,1.7333,1.74,1.744,1.7494,1.7548,1.7341,1.7041,1.7141,1.7328,1.6967,1.6874,1.7301,1.732,1.7119,1.7018,1.6747,1.6328,1.61,1.5638,1.5527,1.4076,1.2264,1.0854,0.9731,0.8826,0.8122,0.7883,0.7716,0.759,0.7548,0.7377,0.7384,0.7462,0.7383,0.7127,0.7052,0.6838,0.662,0.6366,0.63,0.63,0.63,0.63,0.63,0.63,0.6188,0.5972,0.5657,0.5261,0.4996,0.4812,0.4591,0.4501,0.4378,0.3685,0.3188,0.2787,0.235,0.2283,0.2248,0.1745,0.1243,0.0706,0.0202,-0.0202,-0.0539,-0.0809,-0.0942,-0.1006,-0.1033,-0.1189,-0.1244,-0.1328,-0.1674,-0.196,-0.2209,-0.2499,-0.2937,-0.344,-0.4081,-0.4671,-0.5104,-0.5611,-0.6086,-0.6216,-0.6265,-0.6375,-0.6629,-0.7064,-0.7484,-0.7512,-0.78,-0.8506,-0.9224,-1.0149,2.1062,2.1034,2.1403,2.0926,2.0163,2.1354,2.1304,2.0225,2.0207,2.0303,1.9933,1.9132,1.8304,1.7295,1.8055,1.783,1.7011,1.7315,1.7293,1.7219,1.7261,1.7313,1.7293,1.7306,1.7414,1.7206,1.6874,1.6834,1.6994,1.6647,1.6526,1.6887,1.6874,1.6673,1.6426,1.6213,1.5984,1.5844,1.5691,1.5444,1.4895,1.3341,1.214,1.0947,0.9813,0.871,0.7935,0.7562,0.7487,0.7559,0.7897,0.8012,0.8122,0.8205,0.8073,0.7656,0.743,0.6989,0.6767,0.6528,0.649,0.63,0.63,0.63,0.63,0.6296,0.6056,0.588,0.5538,0.5284,0.5032,0.4701,0.4547,0.4503,0.4059,0.3975,0.3749,0.3303,0.2995,0.2753,0.238,0.1846,0.1276,0.0773,0.0303,-0.0067,-0.0539,-0.0707,-0.1009,-0.1042,-0.1076,-0.1101,-0.1058,-0.1048,-0.1242,-0.1378,-0.1694,-0.2131,-0.2673,-0.333,-0.3885,-0.4353,-0.4851,-0.5451,-0.5818,-0.5935,-0.6083,-0.6288,-0.6519,-0.6839,-0.6675,-0.69,-0.7642,-0.8382,-0.9204]}]]